Time,TemperatureF,DewpointF,PressureIn,WindDirection,WindDirectionDegrees,WindSpeedMPH,WindSpeedGustMPH,Humidity,HourlyPrecipIn,Conditions,Clouds,dailyrainin,SoftwareType,DateUTC
2013-03-30 00:00:00,57.1,46.7,29.95,SE,126,3.0,3.0,68,0.00,,SKC,0.00,VWS V13.01,2013-03-30 07:00:00,
2013-03-30 00:01:00,57.1,46.7,29.95,SE,126,3.0,3.0,68,0.00,,SKC,0.00,VWS V13.01,2013-03-30 07:01:00,
2013-03-30 00:02:00,57.1,46.7,29.95,SE,126,3.0,3.0,68,0.00,,SKC,0.00,VWS V13.01,2013-03-30 07:02:00,
2013-03-30 00:03:00,57.2,46.8,29.95,SE,126,0.0,4.0,68,0.00,,SKC,0.00,VWS V13.01,2013-03-30 07:03:00,
2013-03-30 00:04:00,57.2,46.8,29.95,SE,126,0.0,4.0,68,0.00,,SKC,0.00,VWS V13.01,2013-03-30 07:04:00,
2013-03-30 00:05:00,57.2,46.8,29.95,SE,130,3.0,4.0,68,0.00,,SKC,0.00,VWS V13.01,2013-03-30 07:05:00,
2013-03-30 00:06:00,57.3,46.8,29.95,SE,130,0.0,5.0,68,0.00,,SKC,0.00,VWS V13.01,2013-03-30 07:06:00,
2013-03-30 00:07:00,57.3,46.8,29.95,SE,130,0.0,5.0,68,0.00,,SKC,0.00,VWS V13.01,2013-03-30 07:07:00,
2013-03-30 00:08:00,57.4,46.5,29.95,SE,131,4.0,5.0,67,0.00,,SKC,0.00,VWS V13.01,2013-03-30 07:08:00,
2013-03-30 00:09:00,57.5,47.0,29.94,SE,131,0.0,5.0,68,0.00,,SKC,0.00,VWS V13.01,2013-03-30 07:09:00,
2013-03-30 00:10:00,57.5,46.6,29.94,SE,131,0.0,5.0,67,0.00,,SKC,0.00,VWS V13.01,2013-03-30 07:10:00,
2013-03-30 00:11:00,57.6,46.7,29.94,SE,131,3.0,3.0,67,0.00,,SKC,0.00,VWS V13.01,2013-03-30 07:11:00,
2013-03-30 00:12:00,57.7,46.8,29.94,SE,131,2.0,3.0,67,0.00,,SKC,0.00,VWS V13.01,2013-03-30 07:12:00,
2013-03-30 00:13:00,57.7,46.8,29.95,SE,131,0.0,3.0,67,0.00,,SKC,0.00,VWS V13.01,2013-03-30 07:13:00,
2013-03-30 00:14:00,57.8,46.9,29.94,SE,136,2.0,5.0,67,0.00,,SKC,0.00,VWS V13.01,2013-03-30 07:14:00,
2013-03-30 00:15:00,57.9,47.0,29.94,SE,136,1.0,5.0,67,0.00,,SKC,0.00,VWS V13.01,2013-03-30 07:15:00,
2013-03-30 00:16:00,58.0,47.1,29.94,SE,130,2.0,5.0,67,0.00,,SKC,0.00,VWS V13.01,2013-03-30 07:16:00,
2013-03-30 00:17:00,58.1,47.2,29.94,SE,130,4.0,5.0,67,0.00,,SKC,0.00,VWS V13.01,2013-03-30 07:17:00,
2013-03-30 00:18:00,58.2,47.3,29.94,SE,130,2.0,5.0,67,0.00,,SKC,0.00,VWS V13.01,2013-03-30 07:18:00,
2013-03-30 00:19:00,58.2,46.9,29.94,SE,130,3.0,5.0,66,0.00,,SKC,0.00,VWS V13.01,2013-03-30 07:19:00,
2013-03-30 00:20:00,58.3,47.0,29.94,SE,130,2.0,5.0,66,0.00,,SKC,0.00,VWS V13.01,2013-03-30 07:20:00,
2013-03-30 00:21:00,58.4,47.1,29.94,SE,130,0.0,5.0,66,0.00,,SKC,0.00,VWS V13.01,2013-03-30 07:21:00,
2013-03-30 00:22:00,58.4,47.1,29.94,SE,130,5.0,5.0,66,0.00,,SKC,0.00,VWS V13.01,2013-03-30 07:22:00,
2013-03-30 00:23:00,58.5,47.2,29.94,SE,146,3.0,6.0,66,0.00,,SKC,0.00,VWS V13.01,2013-03-30 07:23:00,
2013-03-30 00:24:00,58.5,47.2,29.94,SE,146,3.0,6.0,66,0.00,,SKC,0.00,VWS V13.01,2013-03-30 07:24:00,
2013-03-30 00:25:00,58.6,47.3,29.94,SSE,147,0.0,6.0,66,0.00,,SKC,0.00,VWS V13.01,2013-03-30 07:25:00,
2013-03-30 00:26:00,58.6,47.3,29.94,SSE,147,2.0,4.0,66,0.00,,SKC,0.00,VWS V13.01,2013-03-30 07:26:00,
2013-03-30 00:27:00,58.7,47.4,29.94,SSE,147,0.0,4.0,66,0.00,,SKC,0.00,VWS V13.01,2013-03-30 07:27:00,
2013-03-30 00:28:00,58.7,47.0,29.94,SSE,147,2.0,4.0,65,0.00,,SKC,0.00,VWS V13.01,2013-03-30 07:28:00,
2013-03-30 00:29:00,58.8,47.1,29.94,SE,136,4.0,6.0,65,0.00,,SKC,0.00,VWS V13.01,2013-03-30 07:29:00,
2013-03-30 00:30:00,59.0,47.3,29.94,SE,132,1.0,6.0,65,0.00,,SKC,0.00,VWS V13.01,2013-03-30 07:30:00,
2013-03-30 00:31:00,59.0,47.3,29.94,SE,133,0.0,5.0,65,0.00,,SKC,0.00,VWS V13.01,2013-03-30 07:31:00,
2013-03-30 00:32:00,59.0,47.3,29.94,SE,133,3.0,5.0,65,0.00,,SKC,0.00,VWS V13.01,2013-03-30 07:32:00,
2013-03-30 00:33:00,59.0,47.3,29.94,SE,135,1.0,5.0,65,0.00,,SKC,0.00,VWS V13.01,2013-03-30 07:33:00,
2013-03-30 00:34:00,59.0,47.3,29.94,ESE,113,5.0,5.0,65,0.00,,SKC,0.00,VWS V13.01,2013-03-30 07:34:00,
2013-03-30 00:35:00,59.0,47.3,29.94,SE,134,3.0,5.0,65,0.00,,SKC,0.00,VWS V13.01,2013-03-30 07:35:00,
2013-03-30 00:36:00,59.0,47.3,29.94,SE,131,3.0,6.0,65,0.00,,SKC,0.00,VWS V13.01,2013-03-30 07:36:00,
2013-03-30 00:37:00,59.0,47.3,29.94,SE,134,5.0,7.0,65,0.00,,SKC,0.00,VWS V13.01,2013-03-30 07:37:00,
2013-03-30 00:38:00,59.0,46.8,29.94,SE,130,3.0,7.0,64,0.00,,SKC,0.00,VWS V13.01,2013-03-30 07:38:00,
2013-03-30 00:39:00,59.0,46.8,29.94,SE,130,3.0,7.0,64,0.00,,SKC,0.00,VWS V13.01,2013-03-30 07:39:00,
2013-03-30 00:40:00,59.0,46.8,29.94,ESE,111,3.0,7.0,64,0.00,,SKC,0.00,VWS V13.01,2013-03-30 07:40:00,
2013-03-30 00:41:00,59.2,47.0,29.94,ESE,113,4.0,9.0,64,0.00,,SKC,0.00,VWS V13.01,2013-03-30 07:41:00,
2013-03-30 00:42:00,59.4,47.2,29.94,SE,142,5.0,9.0,64,0.00,,SKC,0.00,VWS V13.01,2013-03-30 07:42:00,
2013-03-30 00:43:00,59.5,47.3,29.94,SE,138,3.0,9.0,64,0.00,,SKC,0.00,VWS V13.01,2013-03-30 07:43:00,
2013-03-30 00:44:00,59.5,47.3,29.93,SE,128,4.0,9.0,64,0.00,,SKC,0.00,VWS V13.01,2013-03-30 07:44:00,
2013-03-30 00:45:00,59.6,47.0,29.93,SE,129,6.0,9.0,63,0.00,,SKC,0.00,VWS V13.01,2013-03-30 07:45:00,
2013-03-30 00:46:00,59.6,47.0,29.94,SE,142,2.0,7.0,63,0.00,,SKC,0.00,VWS V13.01,2013-03-30 07:46:00,
2013-03-30 00:47:00,59.6,47.0,29.93,SE,142,4.0,7.0,63,0.00,,SKC,0.00,VWS V13.01,2013-03-30 07:47:00,
2013-03-30 00:48:00,59.6,47.0,29.94,SE,142,3.0,7.0,63,0.00,,SKC,0.00,VWS V13.01,2013-03-30 07:48:00,
2013-03-30 00:49:00,59.6,47.0,29.93,SE,127,3.0,7.0,63,0.00,,SKC,0.00,VWS V13.01,2013-03-30 07:49:00,
2013-03-30 00:50:00,59.6,47.0,29.93,SE,127,3.0,7.0,63,0.00,,SKC,0.00,VWS V13.01,2013-03-30 07:50:00,
2013-03-30 00:51:00,59.6,47.0,29.94,SE,127,3.0,6.0,63,0.00,,SKC,0.00,VWS V13.01,2013-03-30 07:51:00,
2013-03-30 00:52:00,59.5,46.9,29.93,SE,128,3.0,6.0,63,0.00,,SKC,0.00,VWS V13.01,2013-03-30 07:52:00,
2013-03-30 00:53:00,59.5,46.9,29.93,SE,127,4.0,6.0,63,0.00,,SKC,0.00,VWS V13.01,2013-03-30 07:53:00,
2013-03-30 00:54:00,59.6,47.0,29.93,SE,139,3.0,6.0,63,0.00,,SKC,0.00,VWS V13.01,2013-03-30 07:54:00,
2013-03-30 00:55:00,59.6,47.0,29.93,SE,136,3.0,6.0,63,0.00,,SKC,0.00,VWS V13.01,2013-03-30 07:55:00,
2013-03-30 00:56:00,59.5,46.9,29.93,SE,136,1.0,4.0,63,0.00,,SKC,0.00,VWS V13.01,2013-03-30 07:56:00,
2013-03-30 00:57:00,59.6,47.0,29.93,SE,136,3.0,4.0,63,0.00,,SKC,0.00,VWS V13.01,2013-03-30 07:57:00,
2013-03-30 00:58:00,59.6,47.0,29.93,SE,136,2.0,4.0,63,0.00,,SKC,0.00,VWS V13.01,2013-03-30 07:58:00,
2013-03-30 00:59:00,59.5,46.9,29.93,SE,136,1.0,4.0,63,0.00,,SKC,0.00,VWS V13.01,2013-03-30 07:59:00,
2013-03-30 01:00:00,59.5,46.9,29.93,SE,136,1.0,4.0,63,0.00,,SKC,0.00,VWS V13.01,2013-03-30 08:00:00,
2013-03-30 01:01:00,59.5,46.9,29.93,SE,136,0.0,2.0,63,0.00,,SKC,0.00,VWS V13.01,2013-03-30 08:01:00,
2013-03-30 01:02:00,59.5,46.9,29.93,SE,136,0.0,2.0,63,0.00,,SKC,0.00,VWS V13.01,2013-03-30 08:02:00,
2013-03-30 01:03:00,59.4,46.8,29.93,SE,136,1.0,2.0,63,0.00,,SKC,0.00,VWS V13.01,2013-03-30 08:03:00,
2013-03-30 01:04:00,59.4,46.8,29.93,SE,136,2.0,3.0,63,0.00,,SKC,0.00,VWS V13.01,2013-03-30 08:04:00,
2013-03-30 01:05:00,59.4,46.8,29.93,SE,136,0.0,3.0,63,0.00,,SKC,0.00,VWS V13.01,2013-03-30 08:05:00,
2013-03-30 01:06:00,59.3,46.7,29.93,SE,136,0.0,0.0,63,0.00,,SKC,0.00,VWS V13.01,2013-03-30 08:06:00,
2013-03-30 01:07:00,59.2,47.0,29.93,SE,136,0.0,0.0,64,0.00,,SKC,0.00,VWS V13.01,2013-03-30 08:07:00,
2013-03-30 01:08:00,59.1,47.0,29.93,SE,136,0.0,0.0,64,0.00,,SKC,0.00,VWS V13.01,2013-03-30 08:08:00,
2013-03-30 01:09:00,59.0,46.8,29.93,SE,136,0.0,0.0,64,0.00,,SKC,0.00,VWS V13.01,2013-03-30 08:09:00,
2013-03-30 01:10:00,59.0,46.8,29.93,SE,136,0.0,0.0,64,0.00,,SKC,0.00,VWS V13.01,2013-03-30 08:10:00,
2013-03-30 01:11:00,59.0,46.8,29.93,SE,136,0.0,0.0,64,0.00,,SKC,0.00,VWS V13.01,2013-03-30 08:11:00,
2013-03-30 01:12:00,59.0,46.8,29.93,SE,136,0.0,0.0,64,0.00,,SKC,0.00,VWS V13.01,2013-03-30 08:12:00,
2013-03-30 01:13:00,59.0,46.8,29.93,SE,136,0.0,0.0,64,0.00,,SKC,0.00,VWS V13.01,2013-03-30 08:13:00,
2013-03-30 01:14:00,59.0,46.8,29.93,SE,136,0.0,0.0,64,0.00,,SKC,0.00,VWS V13.01,2013-03-30 08:14:00,
2013-03-30 01:15:00,59.0,46.8,29.93,SE,136,1.0,1.0,64,0.00,,SKC,0.00,VWS V13.01,2013-03-30 08:15:00,
2013-03-30 01:16:00,59.0,46.8,29.93,SE,136,0.0,2.0,64,0.00,,SKC,0.00,VWS V13.01,2013-03-30 08:16:00,
2013-03-30 01:17:00,59.0,47.3,29.93,SE,136,0.0,2.0,65,0.00,,SKC,0.00,VWS V13.01,2013-03-30 08:17:00,
2013-03-30 01:18:00,59.0,46.8,29.93,SE,136,0.0,2.0,64,0.00,,SKC,0.00,VWS V13.01,2013-03-30 08:18:00,
2013-03-30 01:19:00,59.0,46.8,29.93,SE,136,1.0,3.0,64,0.00,,SKC,0.00,VWS V13.01,2013-03-30 08:19:00,
2013-03-30 01:20:00,59.0,47.3,29.93,SE,136,2.0,4.0,65,0.00,,SKC,0.00,VWS V13.01,2013-03-30 08:20:00,
2013-03-30 01:21:00,59.0,47.3,29.93,SE,136,0.0,3.0,65,0.00,,SKC,0.00,VWS V13.01,2013-03-30 08:21:00,
2013-03-30 01:22:00,58.8,47.1,29.93,SE,136,2.0,3.0,65,0.00,,SKC,0.00,VWS V13.01,2013-03-30 08:22:00,
2013-03-30 01:23:00,58.9,47.2,29.93,SE,136,1.0,4.0,65,0.00,,SKC,0.00,VWS V13.01,2013-03-30 08:23:00,
2013-03-30 01:24:00,58.8,47.1,29.93,South,171,3.0,4.0,65,0.00,,SKC,0.00,VWS V13.01,2013-03-30 08:24:00,
2013-03-30 01:25:00,58.8,47.1,29.93,South,170,1.0,4.0,65,0.00,,SKC,0.00,VWS V13.01,2013-03-30 08:25:00,
2013-03-30 01:26:00,58.7,47.0,29.93,SSE,158,0.0,4.0,65,0.00,,SKC,0.00,VWS V13.01,2013-03-30 08:26:00,
2013-03-30 01:27:00,58.7,47.0,29.93,SE,134,2.0,5.0,65,0.00,,SKC,0.00,VWS V13.01,2013-03-30 08:27:00,
2013-03-30 01:28:00,58.7,47.0,29.93,SE,128,1.0,5.0,65,0.00,,SKC,0.00,VWS V13.01,2013-03-30 08:28:00,
2013-03-30 01:29:00,58.7,47.0,29.93,SSE,163,4.0,5.0,65,0.00,,SKC,0.00,VWS V13.01,2013-03-30 08:29:00,
2013-03-30 01:30:00,58.7,47.0,29.93,SE,141,4.0,5.0,65,0.00,,SKC,0.00,VWS V13.01,2013-03-30 08:30:00,
2013-03-30 01:31:00,58.7,47.0,29.93,SE,141,4.0,4.0,65,0.00,,SKC,0.00,VWS V13.01,2013-03-30 08:31:00,
2013-03-30 01:32:00,58.7,47.0,29.93,SE,130,3.0,6.0,65,0.00,,SKC,0.00,VWS V13.01,2013-03-30 08:32:00,
2013-03-30 01:33:00,58.9,47.2,29.93,SE,125,6.0,7.0,65,0.00,,SKC,0.00,VWS V13.01,2013-03-30 08:33:00,
2013-03-30 01:34:00,58.9,47.2,29.93,SE,130,5.0,7.0,65,0.00,,SKC,0.00,VWS V13.01,2013-03-30 08:34:00,
2013-03-30 01:35:00,59.0,47.3,29.93,SE,134,5.0,7.0,65,0.00,,SKC,0.00,VWS V13.01,2013-03-30 08:35:00,
2013-03-30 01:36:00,59.0,47.3,29.93,SE,145,1.0,8.0,65,0.00,,SKC,0.00,VWS V13.01,2013-03-30 08:36:00,
2013-03-30 01:37:00,59.0,46.8,29.93,SE,132,2.0,8.0,64,0.00,,SKC,0.00,VWS V13.01,2013-03-30 08:37:00,
2013-03-30 01:38:00,59.0,46.8,29.93,SSE,160,5.0,8.0,64,0.00,,SKC,0.00,VWS V13.01,2013-03-30 08:38:00,
2013-03-30 01:39:00,59.0,46.8,29.93,SE,131,3.0,8.0,64,0.00,,SKC,0.00,VWS V13.01,2013-03-30 08:39:00,
2013-03-30 01:40:00,59.0,46.8,29.93,SE,131,0.0,8.0,64,0.00,,SKC,0.00,VWS V13.01,2013-03-30 08:40:00,
2013-03-30 01:41:00,59.0,46.8,29.93,SE,131,1.0,3.0,64,0.00,,SKC,0.00,VWS V13.01,2013-03-30 08:41:00,
2013-03-30 01:42:00,59.0,46.8,29.93,SE,131,0.0,3.0,64,0.00,,SKC,0.00,VWS V13.01,2013-03-30 08:42:00,
2013-03-30 01:43:00,59.0,46.8,29.93,SE,131,0.0,3.0,64,0.00,,SKC,0.00,VWS V13.01,2013-03-30 08:43:00,
2013-03-30 01:45:00,59.0,46.8,29.93,SE,131,0.0,4.0,64,0.00,,SKC,0.00,VWS V13.01,2013-03-30 08:45:00,
2013-03-30 01:46:00,59.1,47.0,29.93,SE,132,1.0,2.0,64,0.00,,SKC,0.00,VWS V13.01,2013-03-30 08:46:00,
2013-03-30 01:47:00,59.1,47.0,29.93,SE,132,2.0,2.0,64,0.00,,SKC,0.00,VWS V13.01,2013-03-30 08:47:00,
2013-03-30 01:48:00,59.1,47.0,29.93,SE,132,2.0,5.0,64,0.00,,SKC,0.00,VWS V13.01,2013-03-30 08:48:00,
2013-03-30 01:49:00,59.2,47.0,29.93,SE,132,1.0,5.0,64,0.00,,SKC,0.00,VWS V13.01,2013-03-30 08:49:00,
2013-03-30 01:50:00,59.2,47.0,29.93,SE,132,0.0,5.0,64,0.00,,SKC,0.00,VWS V13.01,2013-03-30 08:50:00,
2013-03-30 01:51:00,59.1,46.5,29.93,SE,132,2.0,3.0,63,0.00,,SKC,0.00,VWS V13.01,2013-03-30 08:51:00,
2013-03-30 01:52:00,59.2,46.6,29.93,SE,132,0.0,3.0,63,0.00,,SKC,0.00,VWS V13.01,2013-03-30 08:52:00,
2013-03-30 01:53:00,59.2,46.6,29.93,SE,132,1.0,3.0,63,0.00,,SKC,0.00,VWS V13.01,2013-03-30 08:53:00,
2013-03-30 01:55:00,59.2,46.6,29.93,SE,132,0.0,3.0,63,0.00,,SKC,0.00,VWS V13.01,2013-03-30 08:55:00,
2013-03-30 01:56:00,59.2,46.6,29.93,SE,132,0.0,0.0,63,0.00,,SKC,0.00,VWS V13.01,2013-03-30 08:56:00,
2013-03-30 01:57:00,59.2,46.6,29.93,SE,132,0.0,0.0,63,0.00,,SKC,0.00,VWS V13.01,2013-03-30 08:57:00,
2013-03-30 01:58:00,59.2,46.6,29.93,SE,132,0.0,0.0,63,0.00,,SKC,0.00,VWS V13.01,2013-03-30 08:58:00,
2013-03-30 01:59:00,59.2,46.6,29.94,SE,132,0.0,0.0,63,0.00,,SKC,0.00,VWS V13.01,2013-03-30 08:59:00,
2013-03-30 02:00:00,59.2,46.6,29.94,SE,132,0.0,0.0,63,0.00,,SKC,0.00,VWS V13.01,2013-03-30 09:00:00,
2013-03-30 02:01:00,59.1,46.5,29.93,SE,132,0.0,0.0,63,0.00,,SKC,0.00,VWS V13.01,2013-03-30 09:01:00,
2013-03-30 02:02:00,59.0,46.8,29.93,SE,132,0.0,0.0,64,0.00,,SKC,0.00,VWS V13.01,2013-03-30 09:02:00,
2013-03-30 02:03:00,59.0,46.8,29.93,SE,132,0.0,0.0,64,0.00,,SKC,0.00,VWS V13.01,2013-03-30 09:03:00,
2013-03-30 02:04:00,59.0,46.8,29.93,SE,132,0.0,0.0,64,0.00,,SKC,0.00,VWS V13.01,2013-03-30 09:04:00,
2013-03-30 02:05:00,59.0,46.8,29.93,SE,132,0.0,0.0,64,0.00,,SKC,0.00,VWS V13.01,2013-03-30 09:05:00,
2013-03-30 02:06:00,58.9,46.8,29.93,SE,132,0.0,0.0,64,0.00,,SKC,0.00,VWS V13.01,2013-03-30 09:06:00,
2013-03-30 02:07:00,58.6,46.5,29.93,SE,132,0.0,0.0,64,0.00,,SKC,0.00,VWS V13.01,2013-03-30 09:07:00,
2013-03-30 02:08:00,58.5,46.8,29.93,SE,132,0.0,0.0,65,0.00,,SKC,0.00,VWS V13.01,2013-03-30 09:08:00,
2013-03-30 02:09:00,58.2,46.5,29.93,SE,132,0.0,0.0,65,0.00,,SKC,0.00,VWS V13.01,2013-03-30 09:09:00,
2013-03-30 02:10:00,58.0,46.3,29.93,SE,132,0.0,0.0,65,0.00,,SKC,0.00,VWS V13.01,2013-03-30 09:10:00,
2013-03-30 02:11:00,57.8,46.5,29.94,SE,132,0.0,0.0,66,0.00,,SKC,0.00,VWS V13.01,2013-03-30 09:11:00,
2013-03-30 02:12:00,57.6,46.7,29.94,SE,132,0.0,0.0,67,0.00,,SKC,0.00,VWS V13.01,2013-03-30 09:12:00,
2013-03-30 02:13:00,57.4,46.5,29.94,SE,132,0.0,0.0,67,0.00,,SKC,0.00,VWS V13.01,2013-03-30 09:13:00,
2013-03-30 02:14:00,57.2,46.8,29.94,SE,132,0.0,0.0,68,0.00,,SKC,0.00,VWS V13.01,2013-03-30 09:14:00,
2013-03-30 02:15:00,57.2,46.8,29.94,SE,132,0.0,0.0,68,0.00,,SKC,0.00,VWS V13.01,2013-03-30 09:15:00,
2013-03-30 02:16:00,57.0,46.6,29.94,SE,132,0.0,0.0,68,0.00,,SKC,0.00,VWS V13.01,2013-03-30 09:16:00,
2013-03-30 02:17:00,56.8,46.4,29.94,SE,132,0.0,0.0,68,0.00,,SKC,0.00,VWS V13.01,2013-03-30 09:17:00,
2013-03-30 02:18:00,56.7,46.7,29.94,SE,132,0.0,0.0,69,0.00,,SKC,0.00,VWS V13.01,2013-03-30 09:18:00,
2013-03-30 02:19:00,56.5,46.5,29.94,SE,132,0.0,0.0,69,0.00,,SKC,0.00,VWS V13.01,2013-03-30 09:19:00,
2013-03-30 02:20:00,56.4,46.8,29.94,SE,132,0.0,0.0,70,0.00,,SKC,0.00,VWS V13.01,2013-03-30 09:20:00,
2013-03-30 02:21:00,56.3,46.7,29.94,SE,132,0.0,0.0,70,0.00,,SKC,0.00,VWS V13.01,2013-03-30 09:21:00,
2013-03-30 02:22:00,56.1,46.8,29.94,SE,132,0.0,0.0,71,0.00,,SKC,0.00,VWS V13.01,2013-03-30 09:22:00,
2013-03-30 02:23:00,56.0,46.7,29.94,SE,132,0.0,0.0,71,0.00,,SKC,0.00,VWS V13.01,2013-03-30 09:23:00,
2013-03-30 02:24:00,55.9,46.7,29.94,SE,132,0.0,0.0,71,0.00,,SKC,0.00,VWS V13.01,2013-03-30 09:24:00,
2013-03-30 02:25:00,55.7,46.5,29.94,SE,132,0.0,0.0,71,0.00,,SKC,0.00,VWS V13.01,2013-03-30 09:25:00,
2013-03-30 02:26:00,55.5,46.6,29.94,SE,132,0.0,0.0,72,0.00,,SKC,0.00,VWS V13.01,2013-03-30 09:26:00,
2013-03-30 02:27:00,55.4,46.5,29.94,SE,132,0.0,0.0,72,0.00,,SKC,0.00,VWS V13.01,2013-03-30 09:27:00,
2013-03-30 02:28:00,55.2,46.7,29.94,SE,132,0.0,0.0,73,0.00,,SKC,0.00,VWS V13.01,2013-03-30 09:28:00,
2013-03-30 02:29:00,55.0,46.5,29.94,SE,132,0.0,0.0,73,0.00,,SKC,0.00,VWS V13.01,2013-03-30 09:29:00,
2013-03-30 02:30:00,54.9,46.4,29.94,SE,132,0.0,0.0,73,0.00,,SKC,0.00,VWS V13.01,2013-03-30 09:30:00,
2013-03-30 02:31:00,54.7,46.2,29.94,SE,132,0.0,0.0,73,0.00,,SKC,0.00,VWS V13.01,2013-03-30 09:31:00,
2013-03-30 02:32:00,54.5,46.0,29.94,SE,132,0.0,0.0,73,0.00,,SKC,0.00,VWS V13.01,2013-03-30 09:32:00,
2013-03-30 02:33:00,54.4,46.3,29.94,SE,132,0.0,0.0,74,0.00,,SKC,0.00,VWS V13.01,2013-03-30 09:33:00,
2013-03-30 02:34:00,54.2,46.1,29.94,SE,132,0.0,0.0,74,0.00,,SKC,0.00,VWS V13.01,2013-03-30 09:34:00,
2013-03-30 02:35:00,54.1,46.0,29.94,SE,132,0.0,0.0,74,0.00,,SKC,0.00,VWS V13.01,2013-03-30 09:35:00,
2013-03-30 02:36:00,54.0,45.9,29.94,SE,132,0.0,0.0,74,0.00,,SKC,0.00,VWS V13.01,2013-03-30 09:36:00,
2013-03-30 02:37:00,53.9,45.8,29.94,SE,132,0.0,0.0,74,0.00,,SKC,0.00,VWS V13.01,2013-03-30 09:37:00,
2013-03-30 02:38:00,53.8,45.7,29.94,SE,132,0.0,0.0,74,0.00,,SKC,0.00,VWS V13.01,2013-03-30 09:38:00,
2013-03-30 02:39:00,53.7,46.0,29.94,SE,132,0.0,0.0,75,0.00,,SKC,0.00,VWS V13.01,2013-03-30 09:39:00,
2013-03-30 02:40:00,53.6,46.2,29.94,SE,132,0.0,0.0,76,0.00,,SKC,0.00,VWS V13.01,2013-03-30 09:40:00,
2013-03-30 02:41:00,53.5,46.1,29.94,SE,132,0.0,0.0,76,0.00,,SKC,0.00,VWS V13.01,2013-03-30 09:41:00,
2013-03-30 02:42:00,53.4,46.0,29.94,SE,132,0.0,0.0,76,0.00,,SKC,0.00,VWS V13.01,2013-03-30 09:42:00,
2013-03-30 02:43:00,53.3,45.9,29.94,SE,132,0.0,0.0,76,0.00,,SKC,0.00,VWS V13.01,2013-03-30 09:43:00,
2013-03-30 02:44:00,53.2,45.8,29.94,SE,132,0.0,0.0,76,0.00,,SKC,0.00,VWS V13.01,2013-03-30 09:44:00,
2013-03-30 02:45:00,53.1,45.8,29.94,SE,132,0.0,0.0,76,0.00,,SKC,0.00,VWS V13.01,2013-03-30 09:45:00,
2013-03-30 02:46:00,53.0,46.0,29.94,SE,132,0.0,0.0,77,0.00,,SKC,0.00,VWS V13.01,2013-03-30 09:46:00,
2013-03-30 02:47:00,52.8,45.8,29.94,SE,132,0.0,0.0,77,0.00,,SKC,0.00,VWS V13.01,2013-03-30 09:47:00,
2013-03-30 02:48:00,52.7,45.7,29.94,SE,132,0.0,0.0,77,0.00,,SKC,0.00,VWS V13.01,2013-03-30 09:48:00,
2013-03-30 02:49:00,52.6,45.6,29.94,SE,132,0.0,0.0,77,0.00,,SKC,0.00,VWS V13.01,2013-03-30 09:49:00,
2013-03-30 02:50:00,52.5,45.5,29.94,SE,132,0.0,0.0,77,0.00,,SKC,0.00,VWS V13.01,2013-03-30 09:50:00,
2013-03-30 02:51:00,52.4,45.8,29.94,SE,132,0.0,0.0,78,0.00,,SKC,0.00,VWS V13.01,2013-03-30 09:51:00,
2013-03-30 02:52:00,52.3,45.7,29.94,SE,132,0.0,0.0,78,0.00,,SKC,0.00,VWS V13.01,2013-03-30 09:52:00,
2013-03-30 02:53:00,52.3,45.7,29.94,SE,132,0.0,0.0,78,0.00,,SKC,0.00,VWS V13.01,2013-03-30 09:53:00,
2013-03-30 02:54:00,52.2,45.6,29.94,SE,132,0.0,0.0,78,0.00,,SKC,0.00,VWS V13.01,2013-03-30 09:54:00,
2013-03-30 02:55:00,52.1,45.5,29.94,SE,132,0.0,0.0,78,0.00,,SKC,0.00,VWS V13.01,2013-03-30 09:55:00,
2013-03-30 02:56:00,52.1,45.5,29.94,SE,132,0.0,0.0,78,0.00,,SKC,0.00,VWS V13.01,2013-03-30 09:56:00,
2013-03-30 02:57:00,52.0,45.4,29.94,SE,132,0.0,0.0,78,0.00,,SKC,0.00,VWS V13.01,2013-03-30 09:57:00,
2013-03-30 02:58:00,51.9,45.6,29.94,SE,132,0.0,0.0,79,0.00,,SKC,0.00,VWS V13.01,2013-03-30 09:58:00,
2013-03-30 02:59:00,51.8,45.2,29.94,SE,132,0.0,0.0,78,0.00,,SKC,0.00,VWS V13.01,2013-03-30 09:59:00,
2013-03-30 03:00:00,51.8,45.5,29.94,SE,132,0.0,0.0,79,0.00,,SKC,0.00,VWS V13.01,2013-03-30 10:00:00,
2013-03-30 03:01:00,51.7,45.4,29.94,SE,132,0.0,0.0,79,0.00,,SKC,0.00,VWS V13.01,2013-03-30 10:01:00,
2013-03-30 03:02:00,51.7,45.4,29.93,SE,132,0.0,0.0,79,0.00,,SKC,0.00,VWS V13.01,2013-03-30 10:02:00,
2013-03-30 03:03:00,51.6,45.3,29.93,SE,132,0.0,0.0,79,0.00,,SKC,0.00,VWS V13.01,2013-03-30 10:03:00,
2013-03-30 03:04:00,51.5,45.2,29.93,SE,132,0.0,0.0,79,0.00,,SKC,0.00,VWS V13.01,2013-03-30 10:04:00,
2013-03-30 03:05:00,51.5,45.2,29.93,SE,132,0.0,0.0,79,0.00,,SKC,0.00,VWS V13.01,2013-03-30 10:05:00,
2013-03-30 03:06:00,51.4,45.1,29.94,SE,132,0.0,0.0,79,0.00,,SKC,0.00,VWS V13.01,2013-03-30 10:06:00,
2013-03-30 03:07:00,51.3,45.0,29.94,SE,132,0.0,0.0,79,0.00,,SKC,0.00,VWS V13.01,2013-03-30 10:07:00,
2013-03-30 03:08:00,51.2,44.9,29.93,SE,132,0.0,0.0,79,0.00,,SKC,0.00,VWS V13.01,2013-03-30 10:08:00,
2013-03-30 03:09:00,51.1,45.2,29.93,SE,132,0.0,0.0,80,0.00,,SKC,0.00,VWS V13.01,2013-03-30 10:09:00,
2013-03-30 03:10:00,51.1,45.2,29.93,SE,132,0.0,0.0,80,0.00,,SKC,0.00,VWS V13.01,2013-03-30 10:10:00,
2013-03-30 03:11:00,51.0,45.1,29.93,SE,132,0.0,0.0,80,0.00,,SKC,0.00,VWS V13.01,2013-03-30 10:11:00,
2013-03-30 03:12:00,50.9,45.0,29.93,SE,132,0.0,0.0,80,0.00,,SKC,0.00,VWS V13.01,2013-03-30 10:12:00,
2013-03-30 03:13:00,50.9,45.0,29.93,SE,132,0.0,0.0,80,0.00,,SKC,0.00,VWS V13.01,2013-03-30 10:13:00,
2013-03-30 03:14:00,50.8,44.9,29.93,SE,132,0.0,0.0,80,0.00,,SKC,0.00,VWS V13.01,2013-03-30 10:14:00,
2013-03-30 03:15:00,50.8,45.2,29.93,SE,132,0.0,0.0,81,0.00,,SKC,0.00,VWS V13.01,2013-03-30 10:15:00,
2013-03-30 03:16:00,50.7,45.1,29.93,SE,132,0.0,0.0,81,0.00,,SKC,0.00,VWS V13.01,2013-03-30 10:16:00,
2013-03-30 03:17:00,50.7,45.1,29.93,SE,132,2.0,3.0,81,0.00,,SKC,0.00,VWS V13.01,2013-03-30 10:17:00,
2013-03-30 03:18:00,50.7,45.1,29.93,SE,132,1.0,3.0,81,0.00,,SKC,0.00,VWS V13.01,2013-03-30 10:18:00,
2013-03-30 03:19:00,50.7,45.1,29.93,SE,132,1.0,3.0,81,0.00,,SKC,0.00,VWS V13.01,2013-03-30 10:19:00,
2013-03-30 03:20:00,50.7,45.1,29.93,SE,132,2.0,3.0,81,0.00,,SKC,0.00,VWS V13.01,2013-03-30 10:20:00,
2013-03-30 03:21:00,50.7,45.4,29.93,SE,132,3.0,3.0,82,0.00,,SKC,0.00,VWS V13.01,2013-03-30 10:21:00,
2013-03-30 03:22:00,50.7,45.4,29.93,SE,132,2.0,3.0,82,0.00,,SKC,0.00,VWS V13.01,2013-03-30 10:22:00,
2013-03-30 03:23:00,50.8,45.5,29.93,SE,132,0.0,3.0,82,0.00,,SKC,0.00,VWS V13.01,2013-03-30 10:23:00,
2013-03-30 03:24:00,50.8,45.5,29.93,SE,132,0.0,3.0,82,0.00,,SKC,0.00,VWS V13.01,2013-03-30 10:24:00,
2013-03-30 03:25:00,50.9,45.6,29.93,SE,132,0.0,3.0,82,0.00,,SKC,0.00,VWS V13.01,2013-03-30 10:25:00,
2013-03-30 03:26:00,50.9,45.6,29.93,SE,132,0.0,0.0,82,0.00,,SKC,0.00,VWS V13.01,2013-03-30 10:26:00,
2013-03-30 03:27:00,51.0,45.7,29.93,SE,132,0.0,0.0,82,0.00,,SKC,0.00,VWS V13.01,2013-03-30 10:27:00,
2013-03-30 03:28:00,51.0,45.7,29.93,SE,132,0.0,0.0,82,0.00,,SKC,0.00,VWS V13.01,2013-03-30 10:28:00,
2013-03-30 03:29:00,51.1,45.8,29.93,SE,132,0.0,0.0,82,0.00,,SKC,0.00,VWS V13.01,2013-03-30 10:29:00,
2013-03-30 03:30:00,51.2,45.9,29.93,SE,132,0.0,0.0,82,0.00,,SKC,0.00,VWS V13.01,2013-03-30 10:30:00,
2013-03-30 03:31:00,51.4,46.1,29.93,SE,132,0.0,0.0,82,0.00,,SKC,0.00,VWS V13.01,2013-03-30 10:31:00,
2013-03-30 03:32:00,51.5,46.2,29.93,SE,132,0.0,0.0,82,0.00,,SKC,0.00,VWS V13.01,2013-03-30 10:32:00,
2013-03-30 03:33:00,51.6,46.3,29.93,SE,132,0.0,0.0,82,0.00,,SKC,0.00,VWS V13.01,2013-03-30 10:33:00,
2013-03-30 03:34:00,51.8,46.2,29.93,SE,132,0.0,0.0,81,0.00,,SKC,0.00,VWS V13.01,2013-03-30 10:34:00,
2013-03-30 03:35:00,51.8,46.2,29.93,SE,132,0.0,0.0,81,0.00,,SKC,0.00,VWS V13.01,2013-03-30 10:35:00,
2013-03-30 03:36:00,51.9,46.3,29.93,SE,132,0.0,0.0,81,0.00,,SKC,0.00,VWS V13.01,2013-03-30 10:36:00,
2013-03-30 03:37:00,52.0,46.4,29.93,SE,132,0.0,0.0,81,0.00,,SKC,0.00,VWS V13.01,2013-03-30 10:37:00,
2013-03-30 03:38:00,52.1,46.1,29.93,SE,132,0.0,0.0,80,0.00,,SKC,0.00,VWS V13.01,2013-03-30 10:38:00,
2013-03-30 03:39:00,52.2,46.2,29.93,SE,132,0.0,0.0,80,0.00,,SKC,0.00,VWS V13.01,2013-03-30 10:39:00,
2013-03-30 03:40:00,52.2,46.2,29.93,SE,132,0.0,0.0,80,0.00,,SKC,0.00,VWS V13.01,2013-03-30 10:40:00,
2013-03-30 03:41:00,52.3,46.3,29.93,SE,132,0.0,0.0,80,0.00,,SKC,0.00,VWS V13.01,2013-03-30 10:41:00,
2013-03-30 03:42:00,52.3,46.0,29.93,SE,132,0.0,0.0,79,0.00,,SKC,0.00,VWS V13.01,2013-03-30 10:42:00,
2013-03-30 03:43:00,52.3,46.0,29.93,SE,132,0.0,0.0,79,0.00,,SKC,0.00,VWS V13.01,2013-03-30 10:43:00,
2013-03-30 03:44:00,52.3,46.0,29.93,SE,132,0.0,0.0,79,0.00,,SKC,0.00,VWS V13.01,2013-03-30 10:44:00,
2013-03-30 03:45:00,52.3,46.0,29.93,SE,132,0.0,0.0,79,0.00,,SKC,0.00,VWS V13.01,2013-03-30 10:45:00,
2013-03-30 03:46:00,52.2,45.9,29.93,SE,132,0.0,0.0,79,0.00,,SKC,0.00,VWS V13.01,2013-03-30 10:46:00,
2013-03-30 03:47:00,52.2,45.9,29.93,SE,132,0.0,0.0,79,0.00,,SKC,0.00,VWS V13.01,2013-03-30 10:47:00,
2013-03-30 03:48:00,52.2,45.9,29.93,SE,132,0.0,0.0,79,0.00,,SKC,0.00,VWS V13.01,2013-03-30 10:48:00,
2013-03-30 03:49:00,52.1,45.8,29.93,SE,132,0.0,0.0,79,0.00,,SKC,0.00,VWS V13.01,2013-03-30 10:49:00,
2013-03-30 03:50:00,52.1,45.8,29.93,SE,132,0.0,0.0,79,0.00,,SKC,0.00,VWS V13.01,2013-03-30 10:50:00,
2013-03-30 03:51:00,52.0,46.0,29.93,SE,132,0.0,0.0,80,0.00,,SKC,0.00,VWS V13.01,2013-03-30 10:51:00,
2013-03-30 03:52:00,51.9,45.9,29.92,SE,132,0.0,0.0,80,0.00,,SKC,0.00,VWS V13.01,2013-03-30 10:52:00,
2013-03-30 03:53:00,51.9,45.9,29.92,SE,132,0.0,0.0,80,0.00,,SKC,0.00,VWS V13.01,2013-03-30 10:53:00,
2013-03-30 03:54:00,51.7,45.7,29.92,SE,132,0.0,0.0,80,0.00,,SKC,0.00,VWS V13.01,2013-03-30 10:54:00,
2013-03-30 03:55:00,51.6,45.6,29.92,SE,132,0.0,0.0,80,0.00,,SKC,0.00,VWS V13.01,2013-03-30 10:55:00,
2013-03-30 03:56:00,51.5,45.5,29.92,SE,132,0.0,0.0,80,0.00,,SKC,0.00,VWS V13.01,2013-03-30 10:56:00,
2013-03-30 03:57:00,51.4,45.5,29.92,SE,132,0.0,0.0,80,0.00,,SKC,0.00,VWS V13.01,2013-03-30 10:57:00,
2013-03-30 03:58:00,51.2,45.2,29.92,SE,132,0.0,0.0,80,0.00,,SKC,0.00,VWS V13.01,2013-03-30 10:58:00,
2013-03-30 03:59:00,51.1,45.2,29.92,SE,132,0.0,0.0,80,0.00,,SKC,0.00,VWS V13.01,2013-03-30 10:59:00,
2013-03-30 04:00:00,51.0,45.1,29.93,SE,132,0.0,0.0,80,0.00,,SKC,0.00,VWS V13.01,2013-03-30 11:00:00,
2013-03-30 04:01:00,50.9,45.0,29.93,SE,132,0.0,0.0,80,0.00,,SKC,0.00,VWS V13.01,2013-03-30 11:01:00,
2013-03-30 04:02:00,50.8,44.9,29.92,SE,132,0.0,0.0,80,0.00,,SKC,0.00,VWS V13.01,2013-03-30 11:02:00,
2013-03-30 04:03:00,50.7,45.1,29.92,SE,132,0.0,0.0,81,0.00,,SKC,0.00,VWS V13.01,2013-03-30 11:03:00,
2013-03-30 04:04:00,50.6,45.0,29.92,SE,132,0.0,0.0,81,0.00,,SKC,0.00,VWS V13.01,2013-03-30 11:04:00,
2013-03-30 04:05:00,50.5,44.9,29.92,SE,132,0.0,0.0,81,0.00,,SKC,0.00,VWS V13.01,2013-03-30 11:05:00,
2013-03-30 04:06:00,50.5,44.9,29.92,SE,132,0.0,0.0,81,0.00,,SKC,0.00,VWS V13.01,2013-03-30 11:06:00,
2013-03-30 04:07:00,50.4,44.8,29.92,SE,132,0.0,0.0,81,0.00,,SKC,0.00,VWS V13.01,2013-03-30 11:07:00,
2013-03-30 04:08:00,50.3,45.0,29.92,SE,132,0.0,0.0,82,0.00,,SKC,0.00,VWS V13.01,2013-03-30 11:08:00,
2013-03-30 04:09:00,50.3,45.0,29.92,SE,132,0.0,0.0,82,0.00,,SKC,0.00,VWS V13.01,2013-03-30 11:09:00,
2013-03-30 04:10:00,50.3,45.0,29.92,SE,132,0.0,0.0,82,0.00,,SKC,0.00,VWS V13.01,2013-03-30 11:10:00,
2013-03-30 04:11:00,50.2,44.9,29.92,SE,132,0.0,0.0,82,0.00,,SKC,0.00,VWS V13.01,2013-03-30 11:11:00,
2013-03-30 04:12:00,50.1,44.8,29.92,SE,132,0.0,0.0,82,0.00,,SKC,0.00,VWS V13.01,2013-03-30 11:12:00,
2013-03-30 04:13:00,50.0,44.7,29.92,SE,132,0.0,0.0,82,0.00,,SKC,0.00,VWS V13.01,2013-03-30 11:13:00,
2013-03-30 04:14:00,49.9,44.6,29.92,SE,132,0.0,0.0,82,0.00,,SKC,0.00,VWS V13.01,2013-03-30 11:14:00,
2013-03-30 04:15:00,49.9,44.6,29.92,SE,132,0.0,0.0,82,0.00,,SKC,0.00,VWS V13.01,2013-03-30 11:15:00,
2013-03-30 04:16:00,49.9,44.6,29.92,SE,132,0.0,0.0,82,0.00,,SKC,0.00,VWS V13.01,2013-03-30 11:16:00,
2013-03-30 04:17:00,49.8,44.5,29.92,SE,132,0.0,0.0,82,0.00,,SKC,0.00,VWS V13.01,2013-03-30 11:17:00,
2013-03-30 04:18:00,49.7,44.8,29.92,SE,132,0.0,0.0,83,0.00,,SKC,0.00,VWS V13.01,2013-03-30 11:18:00,
2013-03-30 04:19:00,49.7,44.8,29.92,SE,132,0.0,0.0,83,0.00,,SKC,0.00,VWS V13.01,2013-03-30 11:19:00,
2013-03-30 04:20:00,49.6,44.7,29.92,SE,132,0.0,0.0,83,0.00,,SKC,0.00,VWS V13.01,2013-03-30 11:20:00,
2013-03-30 04:21:00,49.6,44.7,29.92,SE,132,0.0,0.0,83,0.00,,SKC,0.00,VWS V13.01,2013-03-30 11:21:00,
2013-03-30 04:22:00,49.5,44.6,29.92,SE,132,0.0,0.0,83,0.00,,SKC,0.00,VWS V13.01,2013-03-30 11:22:00,
2013-03-30 04:23:00,49.4,44.5,29.93,SE,132,0.0,0.0,83,0.00,,SKC,0.00,VWS V13.01,2013-03-30 11:23:00,
2013-03-30 04:24:00,49.4,44.5,29.93,SE,132,0.0,0.0,83,0.00,,SKC,0.00,VWS V13.01,2013-03-30 11:24:00,
2013-03-30 04:25:00,49.3,44.4,29.93,SE,132,0.0,0.0,83,0.00,,SKC,0.00,VWS V13.01,2013-03-30 11:25:00,
2013-03-30 04:26:00,49.2,44.3,29.93,SE,132,0.0,0.0,83,0.00,,SKC,0.00,VWS V13.01,2013-03-30 11:26:00,
2013-03-30 04:27:00,49.2,44.3,29.93,SE,132,0.0,0.0,83,0.00,,SKC,0.00,VWS V13.01,2013-03-30 11:27:00,
2013-03-30 04:28:00,49.2,44.3,29.93,SE,132,0.0,0.0,83,0.00,,SKC,0.00,VWS V13.01,2013-03-30 11:28:00,
2013-03-30 04:29:00,49.1,44.2,29.92,SE,132,0.0,0.0,83,0.00,,SKC,0.00,VWS V13.01,2013-03-30 11:29:00,
2013-03-30 04:30:00,49.1,44.2,29.92,SE,132,0.0,0.0,83,0.00,,SKC,0.00,VWS V13.01,2013-03-30 11:30:00,
2013-03-30 04:31:00,49.0,44.4,29.93,SE,132,0.0,0.0,84,0.00,,SKC,0.00,VWS V13.01,2013-03-30 11:31:00,
2013-03-30 04:32:00,49.0,44.4,29.93,SE,132,0.0,0.0,84,0.00,,SKC,0.00,VWS V13.01,2013-03-30 11:32:00,
2013-03-30 04:33:00,49.0,44.4,29.93,SE,132,0.0,0.0,84,0.00,,SKC,0.00,VWS V13.01,2013-03-30 11:33:00,
2013-03-30 04:34:00,48.9,44.3,29.93,SE,132,0.0,0.0,84,0.00,,SKC,0.00,VWS V13.01,2013-03-30 11:34:00,
2013-03-30 04:35:00,48.9,44.3,29.93,SE,132,0.0,0.0,84,0.00,,SKC,0.00,VWS V13.01,2013-03-30 11:35:00,
2013-03-30 04:36:00,48.8,44.2,29.93,SE,132,0.0,0.0,84,0.00,,SKC,0.00,VWS V13.01,2013-03-30 11:36:00,
2013-03-30 04:37:00,48.8,44.2,29.93,SE,132,0.0,0.0,84,0.00,,SKC,0.00,VWS V13.01,2013-03-30 11:37:00,
2013-03-30 04:38:00,48.8,44.2,29.93,SE,132,0.0,0.0,84,0.00,,SKC,0.00,VWS V13.01,2013-03-30 11:38:00,
2013-03-30 04:39:00,48.8,44.2,29.93,SE,132,0.0,0.0,84,0.00,,SKC,0.00,VWS V13.01,2013-03-30 11:39:00,
2013-03-30 04:40:00,48.8,44.2,29.93,SE,132,0.0,0.0,84,0.00,,SKC,0.00,VWS V13.01,2013-03-30 11:40:00,
2013-03-30 04:41:00,48.8,44.2,29.93,SE,132,0.0,0.0,84,0.00,,SKC,0.00,VWS V13.01,2013-03-30 11:41:00,
2013-03-30 04:42:00,48.8,44.2,29.93,SE,132,0.0,0.0,84,0.00,,SKC,0.00,VWS V13.01,2013-03-30 11:42:00,
2013-03-30 04:43:00,48.8,44.5,29.93,SE,132,0.0,0.0,85,0.00,,SKC,0.00,VWS V13.01,2013-03-30 11:43:00,
2013-03-30 04:44:00,48.8,44.5,29.93,SE,132,0.0,0.0,85,0.00,,SKC,0.00,VWS V13.01,2013-03-30 11:44:00,
2013-03-30 04:45:00,48.8,44.5,29.93,SE,132,0.0,0.0,85,0.00,,SKC,0.00,VWS V13.01,2013-03-30 11:45:00,
2013-03-30 04:46:00,48.8,44.5,29.93,SE,132,0.0,0.0,85,0.00,,SKC,0.00,VWS V13.01,2013-03-30 11:46:00,
2013-03-30 04:47:00,48.8,44.5,29.93,SE,132,0.0,0.0,85,0.00,,SKC,0.00,VWS V13.01,2013-03-30 11:47:00,
2013-03-30 04:48:00,48.7,44.4,29.93,SE,132,0.0,0.0,85,0.00,,SKC,0.00,VWS V13.01,2013-03-30 11:48:00,
2013-03-30 04:49:00,48.7,44.4,29.93,SE,132,0.0,0.0,85,0.00,,SKC,0.00,VWS V13.01,2013-03-30 11:49:00,
2013-03-30 04:50:00,48.6,44.3,29.93,SE,132,0.0,0.0,85,0.00,,SKC,0.00,VWS V13.01,2013-03-30 11:50:00,
2013-03-30 04:51:00,48.6,44.3,29.93,SE,132,0.0,0.0,85,0.00,,SKC,0.00,VWS V13.01,2013-03-30 11:51:00,
2013-03-30 04:52:00,48.5,44.2,29.93,SE,132,0.0,0.0,85,0.00,,SKC,0.00,VWS V13.01,2013-03-30 11:52:00,
2013-03-30 04:53:00,48.5,44.2,29.93,SE,132,0.0,0.0,85,0.00,,SKC,0.00,VWS V13.01,2013-03-30 11:53:00,
2013-03-30 04:54:00,48.4,44.1,29.93,SE,132,0.0,0.0,85,0.00,,SKC,0.00,VWS V13.01,2013-03-30 11:54:00,
2013-03-30 04:55:00,48.4,44.1,29.93,SE,132,0.0,0.0,85,0.00,,SKC,0.00,VWS V13.01,2013-03-30 11:55:00,
2013-03-30 04:56:00,48.4,44.1,29.93,SE,132,0.0,0.0,85,0.00,,SKC,0.00,VWS V13.01,2013-03-30 11:56:00,
2013-03-30 04:57:00,48.3,44.0,29.93,SE,132,0.0,0.0,85,0.00,,SKC,0.00,VWS V13.01,2013-03-30 11:57:00,
2013-03-30 04:58:00,48.3,44.0,29.93,SE,132,0.0,0.0,85,0.00,,SKC,0.00,VWS V13.01,2013-03-30 11:58:00,
2013-03-30 04:59:00,48.2,43.9,29.93,SE,132,0.0,0.0,85,0.00,,SKC,0.00,VWS V13.01,2013-03-30 11:59:00,
2013-03-30 05:00:00,48.2,43.9,29.93,SE,132,0.0,0.0,85,0.00,,SKC,0.00,VWS V13.01,2013-03-30 12:00:00,
2013-03-30 05:01:00,48.2,43.9,29.93,SE,132,0.0,0.0,85,0.00,,SKC,0.00,VWS V13.01,2013-03-30 12:01:00,
2013-03-30 05:02:00,48.2,43.9,29.93,SE,132,0.0,0.0,85,0.00,,SKC,0.00,VWS V13.01,2013-03-30 12:02:00,
2013-03-30 05:03:00,48.2,43.9,29.93,SE,132,0.0,0.0,85,0.00,,SKC,0.00,VWS V13.01,2013-03-30 12:03:00,
2013-03-30 05:04:00,48.2,43.9,29.93,SE,132,0.0,0.0,85,0.00,,SKC,0.00,VWS V13.01,2013-03-30 12:04:00,
2013-03-30 05:05:00,48.1,43.8,29.93,SE,132,0.0,0.0,85,0.00,,SKC,0.00,VWS V13.01,2013-03-30 12:05:00,
2013-03-30 05:06:00,48.1,44.1,29.93,SE,132,0.0,0.0,86,0.00,,SKC,0.00,VWS V13.01,2013-03-30 12:06:00,
2013-03-30 05:07:00,48.1,44.1,29.93,SE,132,0.0,0.0,86,0.00,,SKC,0.00,VWS V13.01,2013-03-30 12:07:00,
2013-03-30 05:08:00,48.1,44.1,29.93,SE,132,0.0,0.0,86,0.00,,SKC,0.00,VWS V13.01,2013-03-30 12:08:00,
2013-03-30 05:09:00,48.0,44.0,29.93,SE,132,0.0,0.0,86,0.00,,SKC,0.00,VWS V13.01,2013-03-30 12:09:00,
2013-03-30 05:10:00,48.0,44.0,29.93,SE,132,0.0,0.0,86,0.00,,SKC,0.00,VWS V13.01,2013-03-30 12:10:00,
2013-03-30 05:11:00,48.0,44.0,29.93,SE,132,1.0,3.0,86,0.00,,SKC,0.00,VWS V13.01,2013-03-30 12:11:00,
2013-03-30 05:12:00,48.0,44.0,29.93,SE,132,0.0,3.0,86,0.00,,SKC,0.00,VWS V13.01,2013-03-30 12:12:00,
2013-03-30 05:13:00,48.1,44.1,29.93,SE,132,0.0,3.0,86,0.00,,SKC,0.00,VWS V13.01,2013-03-30 12:13:00,
2013-03-30 05:14:00,48.1,44.1,29.93,SE,132,0.0,3.0,86,0.00,,SKC,0.00,VWS V13.01,2013-03-30 12:14:00,
2013-03-30 05:15:00,48.1,44.1,29.93,SE,132,2.0,4.0,86,0.00,,SKC,0.00,VWS V13.01,2013-03-30 12:15:00,
2013-03-30 05:16:00,48.1,44.1,29.93,SE,132,2.0,3.0,86,0.00,,SKC,0.00,VWS V13.01,2013-03-30 12:16:00,
2013-03-30 05:17:00,48.2,44.2,29.93,SE,132,2.0,5.0,86,0.00,,SKC,0.00,VWS V13.01,2013-03-30 12:17:00,
2013-03-30 05:18:00,48.2,44.2,29.93,SE,132,3.0,5.0,86,0.00,,SKC,0.00,VWS V13.01,2013-03-30 12:18:00,
2013-03-30 05:19:00,48.3,44.6,29.93,SE,132,3.0,5.0,87,0.00,,SKC,0.00,VWS V13.01,2013-03-30 12:19:00,
2013-03-30 05:20:00,48.3,44.6,29.93,SE,132,2.0,5.0,87,0.00,,SKC,0.00,VWS V13.01,2013-03-30 12:20:00,
2013-03-30 05:21:00,48.3,44.6,29.93,SE,132,2.0,4.0,87,0.00,,SKC,0.00,VWS V13.01,2013-03-30 12:21:00,
2013-03-30 05:22:00,48.4,44.7,29.93,SE,132,1.0,4.0,87,0.00,,SKC,0.00,VWS V13.01,2013-03-30 12:22:00,
2013-03-30 05:23:00,48.5,44.8,29.92,SE,132,0.0,4.0,87,0.00,,SKC,0.00,VWS V13.01,2013-03-30 12:23:00,
2013-03-30 05:24:00,48.6,44.9,29.92,SE,132,1.0,4.0,87,0.00,,SKC,0.00,VWS V13.01,2013-03-30 12:24:00,
2013-03-30 05:25:00,48.7,45.0,29.92,SE,132,0.0,4.0,87,0.00,,SKC,0.00,VWS V13.01,2013-03-30 12:25:00,
2013-03-30 05:26:00,48.9,45.2,29.92,SE,132,2.0,2.0,87,0.00,,SKC,0.00,VWS V13.01,2013-03-30 12:26:00,
2013-03-30 05:27:00,49.1,45.4,29.92,SE,132,0.0,2.0,87,0.00,,SKC,0.00,VWS V13.01,2013-03-30 12:27:00,
2013-03-30 05:28:00,49.3,45.6,29.92,SE,132,1.0,3.0,87,0.00,,SKC,0.00,VWS V13.01,2013-03-30 12:28:00,
2013-03-30 05:29:00,49.5,45.8,29.92,SE,132,1.0,3.0,87,0.00,,SKC,0.00,VWS V13.01,2013-03-30 12:29:00,
2013-03-30 05:30:00,49.7,46.0,29.92,SE,132,0.0,3.0,87,0.00,,SKC,0.00,VWS V13.01,2013-03-30 12:30:00,
2013-03-30 05:31:00,49.9,46.2,29.93,SE,132,0.0,0.0,87,0.00,,SKC,0.00,VWS V13.01,2013-03-30 12:31:00,
2013-03-30 05:32:00,50.0,46.3,29.93,SE,132,0.0,0.0,87,0.00,,SKC,0.00,VWS V13.01,2013-03-30 12:32:00,
2013-03-30 05:33:00,50.3,46.6,29.93,SE,132,0.0,0.0,87,0.00,,SKC,0.00,VWS V13.01,2013-03-30 12:33:00,
2013-03-30 05:34:00,50.5,46.8,29.93,SE,132,0.0,0.0,87,0.00,,SKC,0.00,VWS V13.01,2013-03-30 12:34:00,
2013-03-30 05:35:00,50.6,46.6,29.93,SE,132,0.0,0.0,86,0.00,,SKC,0.00,VWS V13.01,2013-03-30 12:35:00,
2013-03-30 05:36:00,50.8,46.8,29.93,SE,132,0.0,0.0,86,0.00,,SKC,0.00,VWS V13.01,2013-03-30 12:36:00,
2013-03-30 05:37:00,50.9,46.9,29.93,SE,132,0.0,0.0,86,0.00,,SKC,0.00,VWS V13.01,2013-03-30 12:37:00,
2013-03-30 05:38:00,51.0,47.0,29.93,SE,132,0.0,0.0,86,0.00,,SKC,0.00,VWS V13.01,2013-03-30 12:38:00,
2013-03-30 05:39:00,51.0,46.7,29.93,SE,132,0.0,0.0,85,0.00,,SKC,0.00,VWS V13.01,2013-03-30 12:39:00,
2013-03-30 05:40:00,51.0,46.7,29.93,SE,132,0.0,0.0,85,0.00,,SKC,0.00,VWS V13.01,2013-03-30 12:40:00,
2013-03-30 05:41:00,51.1,46.8,29.93,SE,132,0.0,0.0,85,0.00,,SKC,0.00,VWS V13.01,2013-03-30 12:41:00,
2013-03-30 05:42:00,51.1,46.8,29.93,SE,132,0.0,0.0,85,0.00,,SKC,0.00,VWS V13.01,2013-03-30 12:42:00,
2013-03-30 05:43:00,51.1,46.8,29.93,SE,132,0.0,0.0,85,0.00,,SKC,0.00,VWS V13.01,2013-03-30 12:43:00,
2013-03-30 05:44:00,51.1,46.8,29.93,SE,132,0.0,0.0,85,0.00,,SKC,0.00,VWS V13.01,2013-03-30 12:44:00,
2013-03-30 05:45:00,51.2,46.8,29.93,SE,132,0.0,0.0,85,0.00,,SKC,0.00,VWS V13.01,2013-03-30 12:45:00,
2013-03-30 05:46:00,51.2,46.8,29.93,SE,132,0.0,0.0,85,0.00,,SKC,0.00,VWS V13.01,2013-03-30 12:46:00,
2013-03-30 05:47:00,51.1,46.8,29.93,SE,132,0.0,0.0,85,0.00,,SKC,0.00,VWS V13.01,2013-03-30 12:47:00,
2013-03-30 05:48:00,51.1,46.8,29.93,SE,132,0.0,0.0,85,0.00,,SKC,0.00,VWS V13.01,2013-03-30 12:48:00,
2013-03-30 05:49:00,51.1,46.8,29.93,SE,132,0.0,0.0,85,0.00,,SKC,0.00,VWS V13.01,2013-03-30 12:49:00,
2013-03-30 05:50:00,51.1,46.4,29.94,SE,132,0.0,0.0,84,0.00,,SKC,0.00,VWS V13.01,2013-03-30 12:50:00,
2013-03-30 05:51:00,51.0,46.3,29.94,SE,132,0.0,0.0,84,0.00,,SKC,0.00,VWS V13.01,2013-03-30 12:51:00,
2013-03-30 05:52:00,51.0,46.3,29.94,SE,132,0.0,0.0,84,0.00,,SKC,0.00,VWS V13.01,2013-03-30 12:52:00,
2013-03-30 05:53:00,50.9,46.2,29.94,SE,132,0.0,0.0,84,0.00,,SKC,0.00,VWS V13.01,2013-03-30 12:53:00,
2013-03-30 05:54:00,50.9,46.2,29.94,SE,132,0.0,0.0,84,0.00,,SKC,0.00,VWS V13.01,2013-03-30 12:54:00,
2013-03-30 05:55:00,50.8,46.2,29.94,SE,132,0.0,0.0,84,0.00,,SKC,0.00,VWS V13.01,2013-03-30 12:55:00,
2013-03-30 05:56:00,50.8,46.2,29.94,SE,132,0.0,0.0,84,0.00,,SKC,0.00,VWS V13.01,2013-03-30 12:56:00,
2013-03-30 05:57:00,50.8,46.2,29.94,SE,132,0.0,0.0,84,0.00,,SKC,0.00,VWS V13.01,2013-03-30 12:57:00,
2013-03-30 05:58:00,50.7,46.0,29.94,SE,132,0.0,0.0,84,0.00,,SKC,0.00,VWS V13.01,2013-03-30 12:58:00,
2013-03-30 05:59:00,50.6,46.0,29.94,SE,132,0.0,0.0,84,0.00,,SKC,0.00,VWS V13.01,2013-03-30 12:59:00,
2013-03-30 06:00:00,50.6,46.0,29.94,SE,132,0.0,0.0,84,0.00,,SKC,0.00,VWS V13.01,2013-03-30 13:00:00,
2013-03-30 06:01:00,50.6,46.0,29.94,SE,132,0.0,0.0,84,0.00,,SKC,0.00,VWS V13.01,2013-03-30 13:01:00,
2013-03-30 06:02:00,50.6,46.0,29.94,SE,132,0.0,0.0,84,0.00,,SKC,0.00,VWS V13.01,2013-03-30 13:02:00,
2013-03-30 06:03:00,50.5,45.8,29.94,SE,132,0.0,0.0,84,0.00,,SKC,0.00,VWS V13.01,2013-03-30 13:03:00,
2013-03-30 06:04:00,50.4,45.8,29.95,SE,132,0.0,0.0,84,0.00,,SKC,0.00,VWS V13.01,2013-03-30 13:04:00,
2013-03-30 06:05:00,50.4,45.8,29.95,SE,132,0.0,0.0,84,0.00,,SKC,0.00,VWS V13.01,2013-03-30 13:05:00,
2013-03-30 06:06:00,50.3,45.7,29.95,SE,132,0.0,0.0,84,0.00,,SKC,0.00,VWS V13.01,2013-03-30 13:06:00,
2013-03-30 06:07:00,50.2,45.6,29.95,SE,132,0.0,0.0,84,0.00,,SKC,0.00,VWS V13.01,2013-03-30 13:07:00,
2013-03-30 06:08:00,50.1,45.5,29.95,SE,132,0.0,0.0,84,0.00,,SKC,0.00,VWS V13.01,2013-03-30 13:08:00,
2013-03-30 06:09:00,50.1,45.5,29.95,SE,132,0.0,0.0,84,0.00,,SKC,0.00,VWS V13.01,2013-03-30 13:09:00,
2013-03-30 06:10:00,50.0,45.4,29.95,SE,132,0.0,0.0,84,0.00,,SKC,0.00,VWS V13.01,2013-03-30 13:10:00,
2013-03-30 06:11:00,49.9,45.6,29.95,SE,132,0.0,0.0,85,0.00,,SKC,0.00,VWS V13.01,2013-03-30 13:11:00,
2013-03-30 06:12:00,49.9,45.6,29.95,SE,132,0.0,0.0,85,0.00,,SKC,0.00,VWS V13.01,2013-03-30 13:12:00,
2013-03-30 06:13:00,49.9,45.6,29.95,SE,132,0.0,0.0,85,0.00,,SKC,0.00,VWS V13.01,2013-03-30 13:13:00,
2013-03-30 06:14:00,49.8,45.5,29.95,SE,132,0.0,0.0,85,0.00,,SKC,0.00,VWS V13.01,2013-03-30 13:14:00,
2013-03-30 06:15:00,49.7,45.4,29.95,SE,132,0.0,0.0,85,0.00,,SKC,0.00,VWS V13.01,2013-03-30 13:15:00,
2013-03-30 06:16:00,49.7,45.4,29.95,SE,132,0.0,0.0,85,0.00,,SKC,0.00,VWS V13.01,2013-03-30 13:16:00,
2013-03-30 06:17:00,49.6,45.3,29.95,SE,132,0.0,0.0,85,0.00,,SKC,0.00,VWS V13.01,2013-03-30 13:17:00,
2013-03-30 06:18:00,49.6,45.3,29.95,SE,132,0.0,0.0,85,0.00,,SKC,0.00,VWS V13.01,2013-03-30 13:18:00,
2013-03-30 06:19:00,49.5,45.2,29.95,SE,132,0.0,0.0,85,0.00,,SKC,0.00,VWS V13.01,2013-03-30 13:19:00,
2013-03-30 06:20:00,49.5,45.2,29.95,SE,132,0.0,0.0,85,0.00,,SKC,0.00,VWS V13.01,2013-03-30 13:20:00,
2013-03-30 06:21:00,49.4,45.1,29.95,SE,132,0.0,0.0,85,0.00,,SKC,0.00,VWS V13.01,2013-03-30 13:21:00,
2013-03-30 06:22:00,49.4,45.1,29.95,SE,132,0.0,0.0,85,0.00,,SKC,0.00,VWS V13.01,2013-03-30 13:22:00,
2013-03-30 06:23:00,49.3,45.0,29.95,SE,132,0.0,0.0,85,0.00,,SKC,0.00,VWS V13.01,2013-03-30 13:23:00,
2013-03-30 06:24:00,49.3,45.3,29.95,SE,132,0.0,0.0,86,0.00,,SKC,0.00,VWS V13.01,2013-03-30 13:24:00,
2013-03-30 06:25:00,49.2,45.2,29.95,SE,132,0.0,0.0,86,0.00,,SKC,0.00,VWS V13.01,2013-03-30 13:25:00,
2013-03-30 06:26:00,49.2,44.9,29.95,SE,132,0.0,0.0,85,0.00,,SKC,0.00,VWS V13.01,2013-03-30 13:26:00,
2013-03-30 06:27:00,49.2,44.9,29.95,SE,132,0.0,0.0,85,0.00,,SKC,0.00,VWS V13.01,2013-03-30 13:27:00,
2013-03-30 06:28:00,49.2,45.2,29.95,SE,132,0.0,0.0,86,0.00,,SKC,0.00,VWS V13.01,2013-03-30 13:28:00,
2013-03-30 06:29:00,49.2,45.2,29.95,SE,132,0.0,0.0,86,0.00,,SKC,0.00,VWS V13.01,2013-03-30 13:29:00,
2013-03-30 06:30:00,49.2,45.2,29.95,SE,132,0.0,0.0,86,0.00,,SKC,0.00,VWS V13.01,2013-03-30 13:30:00,
2013-03-30 06:31:00,49.1,45.1,29.95,SE,132,0.0,0.0,86,0.00,,SKC,0.00,VWS V13.01,2013-03-30 13:31:00,
2013-03-30 06:32:00,49.1,45.1,29.95,SE,132,0.0,0.0,86,0.00,,SKC,0.00,VWS V13.01,2013-03-30 13:32:00,
2013-03-30 06:33:00,49.1,45.1,29.95,SE,132,0.0,0.0,86,0.00,,SKC,0.00,VWS V13.01,2013-03-30 13:33:00,
2013-03-30 06:34:00,49.1,45.1,29.95,SE,132,0.0,0.0,86,0.00,,SKC,0.00,VWS V13.01,2013-03-30 13:34:00,
2013-03-30 06:35:00,49.1,45.1,29.95,SE,132,0.0,0.0,86,0.00,,SKC,0.00,VWS V13.01,2013-03-30 13:35:00,
2013-03-30 06:36:00,49.0,45.0,29.95,SE,132,0.0,0.0,86,0.00,,SKC,0.00,VWS V13.01,2013-03-30 13:36:00,
2013-03-30 06:37:00,49.0,45.0,29.95,SE,132,0.0,0.0,86,0.00,,SKC,0.00,VWS V13.01,2013-03-30 13:37:00,
2013-03-30 06:38:00,49.0,45.0,29.95,SE,132,0.0,0.0,86,0.00,,SKC,0.00,VWS V13.01,2013-03-30 13:38:00,
2013-03-30 06:39:00,49.0,45.0,29.95,SE,132,0.0,0.0,86,0.00,,SKC,0.00,VWS V13.01,2013-03-30 13:39:00,
2013-03-30 06:40:00,49.0,45.0,29.95,SE,132,0.0,0.0,86,0.00,,SKC,0.00,VWS V13.01,2013-03-30 13:40:00,
2013-03-30 06:41:00,49.0,45.0,29.95,SE,132,0.0,0.0,86,0.00,,SKC,0.00,VWS V13.01,2013-03-30 13:41:00,
2013-03-30 06:42:00,49.0,45.0,29.95,SE,132,0.0,0.0,86,0.00,,SKC,0.00,VWS V13.01,2013-03-30 13:42:00,
2013-03-30 06:43:00,49.0,45.0,29.95,SE,132,0.0,0.0,86,0.00,,SKC,0.00,VWS V13.01,2013-03-30 13:43:00,
2013-03-30 06:44:00,49.1,45.4,29.95,SE,132,0.0,0.0,87,0.00,,SKC,0.00,VWS V13.01,2013-03-30 13:44:00,
2013-03-30 06:45:00,49.1,45.4,29.95,SE,132,0.0,0.0,87,0.00,,SKC,0.00,VWS V13.01,2013-03-30 13:45:00,
2013-03-30 06:46:00,49.1,45.4,29.95,SE,132,0.0,0.0,87,0.00,,SKC,0.00,VWS V13.01,2013-03-30 13:46:00,
2013-03-30 06:47:00,49.1,45.4,29.95,SE,132,0.0,0.0,87,0.00,,SKC,0.00,VWS V13.01,2013-03-30 13:47:00,
2013-03-30 06:48:00,49.1,45.4,29.95,SE,132,0.0,0.0,87,0.00,,SKC,0.00,VWS V13.01,2013-03-30 13:48:00,
2013-03-30 06:49:00,49.1,45.4,29.95,SE,132,0.0,0.0,87,0.00,,SKC,0.00,VWS V13.01,2013-03-30 13:49:00,
2013-03-30 06:50:00,49.2,45.5,29.95,SE,132,0.0,0.0,87,0.00,,SKC,0.00,VWS V13.01,2013-03-30 13:50:00,
2013-03-30 06:51:00,49.2,45.5,29.95,SE,132,0.0,0.0,87,0.00,,SKC,0.00,VWS V13.01,2013-03-30 13:51:00,
2013-03-30 06:52:00,49.2,45.5,29.95,SE,132,0.0,0.0,87,0.00,,SKC,0.00,VWS V13.01,2013-03-30 13:52:00,
2013-03-30 06:53:00,49.3,45.6,29.95,SE,132,0.0,0.0,87,0.00,,SKC,0.00,VWS V13.01,2013-03-30 13:53:00,
2013-03-30 06:54:00,49.3,45.6,29.95,SE,132,0.0,0.0,87,0.00,,SKC,0.00,VWS V13.01,2013-03-30 13:54:00,
2013-03-30 06:55:00,49.4,45.7,29.95,SE,132,0.0,0.0,87,0.00,,SKC,0.00,VWS V13.01,2013-03-30 13:55:00,
2013-03-30 06:56:00,49.5,45.8,29.96,SE,132,0.0,0.0,87,0.00,,SKC,0.00,VWS V13.01,2013-03-30 13:56:00,
2013-03-30 06:57:00,49.6,46.2,29.96,SE,132,0.0,0.0,88,0.00,,SKC,0.00,VWS V13.01,2013-03-30 13:57:00,
2013-03-30 06:58:00,49.6,45.9,29.96,SE,132,0.0,0.0,87,0.00,,SKC,0.00,VWS V13.01,2013-03-30 13:58:00,
2013-03-30 06:59:00,49.7,46.0,29.96,SE,132,0.0,0.0,87,0.00,,SKC,0.00,VWS V13.01,2013-03-30 13:59:00,
2013-03-30 07:00:00,49.8,46.4,29.96,SE,132,0.0,0.0,88,0.00,,SKC,0.00,VWS V13.01,2013-03-30 14:00:00,
2013-03-30 07:01:00,50.0,46.6,29.97,SE,132,0.0,0.0,88,0.00,,SKC,0.00,VWS V13.01,2013-03-30 14:01:00,
2013-03-30 07:02:00,50.1,46.7,29.97,SE,132,0.0,0.0,88,0.00,,SKC,0.00,VWS V13.01,2013-03-30 14:02:00,
2013-03-30 07:03:00,50.3,46.9,29.97,SE,132,0.0,0.0,88,0.00,,SKC,0.00,VWS V13.01,2013-03-30 14:03:00,
2013-03-30 07:04:00,50.4,47.0,29.97,SE,132,0.0,0.0,88,0.00,,SKC,0.00,VWS V13.01,2013-03-30 14:04:00,
2013-03-30 07:05:00,50.5,47.1,29.97,SE,132,0.0,0.0,88,0.00,,SKC,0.00,VWS V13.01,2013-03-30 14:05:00,
2013-03-30 07:06:00,50.6,47.2,29.97,SE,132,0.0,0.0,88,0.00,,SKC,0.00,VWS V13.01,2013-03-30 14:06:00,
2013-03-30 07:07:00,50.6,47.2,29.96,SE,132,0.0,0.0,88,0.00,,SKC,0.00,VWS V13.01,2013-03-30 14:07:00,
2013-03-30 07:08:00,50.7,47.3,29.96,SE,132,0.0,0.0,88,0.00,,SKC,0.00,VWS V13.01,2013-03-30 14:08:00,
2013-03-30 07:09:00,50.8,47.4,29.96,SE,132,0.0,0.0,88,0.00,,SKC,0.00,VWS V13.01,2013-03-30 14:09:00,
2013-03-30 07:10:00,50.8,47.4,29.96,SE,132,0.0,0.0,88,0.00,,SKC,0.00,VWS V13.01,2013-03-30 14:10:00,
2013-03-30 07:11:00,50.9,47.5,29.96,SE,132,0.0,0.0,88,0.00,,SKC,0.00,VWS V13.01,2013-03-30 14:11:00,
2013-03-30 07:12:00,51.0,47.6,29.96,SE,132,0.0,0.0,88,0.00,,SKC,0.00,VWS V13.01,2013-03-30 14:12:00,
2013-03-30 07:13:00,51.2,47.8,29.96,SE,132,0.0,0.0,88,0.00,,SKC,0.00,VWS V13.01,2013-03-30 14:13:00,
2013-03-30 07:14:00,51.3,47.9,29.96,SE,132,3.0,3.0,88,0.00,,SKC,0.00,VWS V13.01,2013-03-30 14:14:00,
2013-03-30 07:15:00,51.4,48.0,29.96,SE,132,2.0,3.0,88,0.00,,SKC,0.00,VWS V13.01,2013-03-30 14:15:00,
2013-03-30 07:16:00,51.5,48.1,29.97,SE,132,1.0,3.0,88,0.00,,SKC,0.00,VWS V13.01,2013-03-30 14:16:00,
2013-03-30 07:17:00,51.6,48.2,29.97,SE,132,2.0,3.0,88,0.00,,SKC,0.00,VWS V13.01,2013-03-30 14:17:00,
2013-03-30 07:18:00,51.7,48.3,29.96,SE,132,3.0,3.0,88,0.00,,SKC,0.00,VWS V13.01,2013-03-30 14:18:00,
2013-03-30 07:19:00,51.8,48.4,29.96,SE,132,1.0,4.0,88,0.00,,SKC,0.00,VWS V13.01,2013-03-30 14:19:00,
2013-03-30 07:20:00,51.9,48.5,29.96,SE,132,2.0,4.0,88,0.00,,SKC,0.00,VWS V13.01,2013-03-30 14:20:00,
2013-03-30 07:21:00,52.0,48.6,29.96,SE,132,1.0,2.0,88,0.00,,SKC,0.00,VWS V13.01,2013-03-30 14:21:00,
2013-03-30 07:22:00,52.1,48.7,29.96,SE,132,3.0,3.0,88,0.00,,SKC,0.00,VWS V13.01,2013-03-30 14:22:00,
2013-03-30 07:23:00,52.2,48.8,29.96,SE,132,3.0,3.0,88,0.00,,SKC,0.00,VWS V13.01,2013-03-30 14:23:00,
2013-03-30 07:24:00,52.3,48.5,29.96,SE,132,2.0,3.0,87,0.00,,SKC,0.00,VWS V13.01,2013-03-30 14:24:00,
2013-03-30 07:25:00,52.4,48.7,29.96,SE,132,2.0,3.0,87,0.00,,SKC,0.00,VWS V13.01,2013-03-30 14:25:00,
2013-03-30 07:26:00,52.5,48.8,29.96,SE,132,2.0,5.0,87,0.00,,SKC,0.00,VWS V13.01,2013-03-30 14:26:00,
2013-03-30 07:27:00,52.6,48.8,29.96,SE,132,2.0,5.0,87,0.00,,SKC,0.00,VWS V13.01,2013-03-30 14:27:00,
2013-03-30 07:28:00,52.7,49.0,29.96,SE,132,5.0,5.0,87,0.00,,SKC,0.00,VWS V13.01,2013-03-30 14:28:00,
2013-03-30 07:29:00,52.8,48.7,29.96,SE,132,5.0,5.0,86,0.00,,SKC,0.00,VWS V13.01,2013-03-30 14:29:00,
2013-03-30 07:30:00,52.9,48.8,29.96,SE,132,4.0,6.0,86,0.00,,SKC,0.00,VWS V13.01,2013-03-30 14:30:00,
2013-03-30 07:31:00,53.0,48.9,29.96,SE,131,4.0,5.0,86,0.00,,SKC,0.00,VWS V13.01,2013-03-30 14:31:00,
2013-03-30 07:32:00,53.2,48.8,29.96,SE,131,5.0,5.0,85,0.00,,SKC,0.00,VWS V13.01,2013-03-30 14:32:00,
2013-03-30 07:33:00,53.3,48.9,29.96,SE,130,4.0,6.0,85,0.00,,SKC,0.00,VWS V13.01,2013-03-30 14:33:00,
2013-03-30 07:35:00,53.6,48.9,29.96,SE,131,2.0,6.0,84,0.00,,SKC,0.00,VWS V13.01,2013-03-30 14:35:00,
2013-03-30 07:36:00,53.7,49.0,29.96,SE,131,0.0,3.0,84,0.00,,SKC,0.00,VWS V13.01,2013-03-30 14:36:00,
2013-03-30 07:37:00,53.9,49.2,29.96,SE,131,0.0,3.0,84,0.00,,SKC,0.00,VWS V13.01,2013-03-30 14:37:00,
2013-03-30 07:38:00,53.9,49.2,29.96,SE,131,1.0,3.0,84,0.00,,SKC,0.00,VWS V13.01,2013-03-30 14:38:00,
2013-03-30 07:39:00,54.1,49.1,29.96,SE,131,0.0,3.0,83,0.00,,SKC,0.00,VWS V13.01,2013-03-30 14:39:00,
2013-03-30 07:40:00,54.1,49.1,29.96,SE,131,0.0,3.0,83,0.00,,SKC,0.00,VWS V13.01,2013-03-30 14:40:00,
2013-03-30 07:41:00,54.2,49.2,29.96,SE,131,0.0,0.0,83,0.00,,SKC,0.00,VWS V13.01,2013-03-30 14:41:00,
2013-03-30 07:42:00,54.3,49.3,29.96,SE,131,0.0,0.0,83,0.00,,SKC,0.00,VWS V13.01,2013-03-30 14:42:00,
2013-03-30 07:43:00,54.4,49.3,29.96,SE,131,0.0,0.0,83,0.00,,SKC,0.00,VWS V13.01,2013-03-30 14:43:00,
2013-03-30 07:44:00,54.6,49.2,29.96,SE,131,2.0,4.0,82,0.00,,SKC,0.00,VWS V13.01,2013-03-30 14:44:00,
2013-03-30 07:45:00,54.6,49.2,29.96,SE,131,2.0,4.0,82,0.00,,SKC,0.00,VWS V13.01,2013-03-30 14:45:00,
2013-03-30 07:46:00,54.8,49.4,29.96,SE,131,4.0,4.0,82,0.00,,SKC,0.00,VWS V13.01,2013-03-30 14:46:00,
2013-03-30 07:47:00,54.9,49.5,29.96,SE,131,3.0,5.0,82,0.00,,SKC,0.00,VWS V13.01,2013-03-30 14:47:00,
2013-03-30 07:48:00,55.0,49.3,29.96,SE,131,1.0,5.0,81,0.00,,SKC,0.00,VWS V13.01,2013-03-30 14:48:00,
2013-03-30 07:49:00,55.1,49.4,29.96,SE,131,1.0,5.0,81,0.00,,SKC,0.00,VWS V13.01,2013-03-30 14:49:00,
2013-03-30 07:50:00,55.2,49.5,29.96,SE,131,2.0,5.0,81,0.00,,SKC,0.00,VWS V13.01,2013-03-30 14:50:00,
2013-03-30 07:51:00,55.3,49.2,29.96,SE,131,2.0,4.0,80,0.00,,SKC,0.00,VWS V13.01,2013-03-30 14:51:00,
2013-03-30 07:52:00,55.5,49.4,29.96,SE,131,3.0,4.0,80,0.00,,SKC,0.00,VWS V13.01,2013-03-30 14:52:00,
2013-03-30 07:53:00,55.5,49.4,29.96,SE,131,1.0,4.0,80,0.00,,SKC,0.00,VWS V13.01,2013-03-30 14:53:00,
2013-03-30 07:54:00,55.7,49.3,29.95,SE,131,3.0,4.0,79,0.00,,SKC,0.00,VWS V13.01,2013-03-30 14:54:00,
2013-03-30 07:55:00,55.8,49.4,29.95,SE,131,3.0,4.0,79,0.00,,SKC,0.00,VWS V13.01,2013-03-30 14:55:00,
2013-03-30 07:56:00,55.9,49.5,29.96,SE,131,3.0,3.0,79,0.00,,SKC,0.00,VWS V13.01,2013-03-30 14:56:00,
2013-03-30 07:57:00,56.0,49.6,29.96,SE,131,0.0,4.0,79,0.00,,SKC,0.00,VWS V13.01,2013-03-30 14:57:00,
2013-03-30 07:58:00,56.2,49.8,29.96,SE,131,0.0,4.0,79,0.00,,SKC,0.00,VWS V13.01,2013-03-30 14:58:00,
2013-03-30 07:59:00,56.3,49.9,29.96,SE,131,0.0,4.0,79,0.00,,SKC,0.00,VWS V13.01,2013-03-30 14:59:00,
2013-03-30 08:00:00,56.5,49.7,29.96,SE,131,0.0,4.0,78,0.00,,SKC,0.00,VWS V13.01,2013-03-30 15:00:00,
2013-03-30 08:01:00,56.7,49.9,29.96,SE,131,2.0,3.0,78,0.00,,SKC,0.00,VWS V13.01,2013-03-30 15:01:00,
2013-03-30 08:02:00,56.8,49.7,29.96,SE,131,0.0,3.0,77,0.00,,SKC,0.00,VWS V13.01,2013-03-30 15:02:00,
2013-03-30 08:03:00,57.0,49.9,29.96,SE,131,0.0,3.0,77,0.00,,SKC,0.00,VWS V13.01,2013-03-30 15:03:00,
2013-03-30 08:04:00,57.0,49.9,29.96,SE,131,1.0,3.0,77,0.00,,SKC,0.00,VWS V13.01,2013-03-30 15:04:00,
2013-03-30 08:05:00,57.2,49.7,29.96,SE,131,4.0,4.0,76,0.00,,SKC,0.00,VWS V13.01,2013-03-30 15:05:00,
2013-03-30 08:06:00,57.2,49.7,29.95,SE,131,4.0,5.0,76,0.00,,SKC,0.00,VWS V13.01,2013-03-30 15:06:00,
2013-03-30 08:07:00,57.3,49.8,29.95,SE,131,3.0,5.0,76,0.00,,SKC,0.00,VWS V13.01,2013-03-30 15:07:00,
2013-03-30 08:08:00,57.4,49.9,29.95,SE,131,4.0,5.0,76,0.00,,SKC,0.00,VWS V13.01,2013-03-30 15:08:00,
2013-03-30 08:09:00,57.5,49.7,29.95,SE,131,1.0,5.0,75,0.00,,SKC,0.00,VWS V13.01,2013-03-30 15:09:00,
2013-03-30 08:10:00,57.5,49.7,29.95,SE,131,1.0,5.0,75,0.00,,SKC,0.00,VWS V13.01,2013-03-30 15:10:00,
2013-03-30 08:11:00,57.6,49.8,29.95,SE,131,0.0,2.0,75,0.00,,SKC,0.00,VWS V13.01,2013-03-30 15:11:00,
2013-03-30 08:12:00,57.7,49.8,29.95,SE,131,4.0,5.0,75,0.00,,SKC,0.00,VWS V13.01,2013-03-30 15:12:00,
2013-03-30 08:13:00,57.7,49.5,29.95,SE,131,4.0,5.0,74,0.00,,SKC,0.00,VWS V13.01,2013-03-30 15:13:00,
2013-03-30 08:14:00,57.8,49.6,29.95,SE,131,2.0,5.0,74,0.00,,SKC,0.00,VWS V13.01,2013-03-30 15:14:00,
2013-03-30 08:15:00,57.9,49.7,29.95,SE,131,2.0,5.0,74,0.00,,SKC,0.00,VWS V13.01,2013-03-30 15:15:00,
2013-03-30 08:16:00,58.0,49.8,29.95,SE,131,3.0,4.0,74,0.00,,SKC,0.00,VWS V13.01,2013-03-30 15:16:00,
2013-03-30 08:17:00,58.0,49.8,29.95,SE,131,2.0,4.0,74,0.00,,SKC,0.00,VWS V13.01,2013-03-30 15:17:00,
2013-03-30 08:18:00,58.1,49.9,29.95,SE,131,2.0,4.0,74,0.00,,SKC,0.00,VWS V13.01,2013-03-30 15:18:00,
2013-03-30 08:19:00,58.3,50.1,29.95,SE,131,4.0,5.0,74,0.00,,SKC,0.00,VWS V13.01,2013-03-30 15:19:00,
2013-03-30 08:20:00,58.3,50.1,29.95,SE,131,2.0,5.0,74,0.00,,SKC,0.00,VWS V13.01,2013-03-30 15:20:00,
2013-03-30 08:21:00,58.4,49.8,29.95,SE,130,2.0,5.0,73,0.00,,SKC,0.00,VWS V13.01,2013-03-30 15:21:00,
2013-03-30 08:22:00,58.5,49.9,29.95,SE,130,3.0,5.0,73,0.00,,SKC,0.00,VWS V13.01,2013-03-30 15:22:00,
2013-03-30 08:23:00,58.5,49.9,29.95,SE,130,1.0,5.0,73,0.00,,SKC,0.00,VWS V13.01,2013-03-30 15:23:00,
2013-03-30 08:24:00,58.6,50.0,29.95,SE,130,0.0,5.0,73,0.00,,SKC,0.00,VWS V13.01,2013-03-30 15:24:00,
2013-03-30 08:25:00,58.7,50.1,29.95,SE,130,0.0,5.0,73,0.00,,SKC,0.00,VWS V13.01,2013-03-30 15:25:00,
2013-03-30 08:26:00,58.9,50.3,29.95,SE,130,0.0,0.0,73,0.00,,SKC,0.00,VWS V13.01,2013-03-30 15:26:00,
2013-03-30 08:27:00,59.0,50.4,29.95,SE,130,0.0,0.0,73,0.00,,SKC,0.00,VWS V13.01,2013-03-30 15:27:00,
2013-03-30 08:28:00,59.0,50.4,29.95,SE,130,0.0,0.0,73,0.00,,SKC,0.00,VWS V13.01,2013-03-30 15:28:00,
2013-03-30 08:29:00,59.0,50.4,29.96,SE,130,0.0,0.0,73,0.00,,SKC,0.00,VWS V13.01,2013-03-30 15:29:00,
2013-03-30 08:30:00,59.0,50.4,29.96,SE,130,0.0,0.0,73,0.00,,SKC,0.00,VWS V13.01,2013-03-30 15:30:00,
2013-03-30 08:31:00,59.2,50.2,29.95,SE,130,0.0,0.0,72,0.00,,SKC,0.00,VWS V13.01,2013-03-30 15:31:00,
2013-03-30 08:32:00,59.4,50.4,29.95,SE,130,0.0,0.0,72,0.00,,SKC,0.00,VWS V13.01,2013-03-30 15:32:00,
2013-03-30 08:33:00,59.5,50.8,29.96,SE,130,0.0,0.0,73,0.00,,SKC,0.00,VWS V13.01,2013-03-30 15:33:00,
2013-03-30 08:34:00,59.8,51.1,29.96,SE,130,0.0,0.0,73,0.00,,SKC,0.00,VWS V13.01,2013-03-30 15:34:00,
2013-03-30 08:35:00,59.9,51.2,29.96,SE,130,0.0,0.0,73,0.00,,SKC,0.00,VWS V13.01,2013-03-30 15:35:00,
2013-03-30 08:36:00,60.0,51.0,29.96,SE,130,0.0,0.0,72,0.00,,SKC,0.00,VWS V13.01,2013-03-30 15:36:00,
2013-03-30 08:37:00,60.1,51.1,29.96,SE,130,0.0,0.0,72,0.00,,SKC,0.00,VWS V13.01,2013-03-30 15:37:00,
2013-03-30 08:38:00,60.3,51.2,29.96,SE,130,0.0,0.0,72,0.00,,SKC,0.00,VWS V13.01,2013-03-30 15:38:00,
2013-03-30 08:39:00,60.4,51.3,29.96,SE,130,0.0,0.0,72,0.00,,SKC,0.00,VWS V13.01,2013-03-30 15:39:00,
2013-03-30 08:40:00,60.5,51.4,29.96,SE,130,0.0,0.0,72,0.00,,SKC,0.00,VWS V13.01,2013-03-30 15:40:00,
2013-03-30 08:41:00,60.6,51.2,29.96,SE,130,0.0,0.0,71,0.00,,SKC,0.00,VWS V13.01,2013-03-30 15:41:00,
2013-03-30 08:42:00,60.8,51.3,29.96,SE,130,0.0,0.0,71,0.00,,SKC,0.00,VWS V13.01,2013-03-30 15:42:00,
2013-03-30 08:43:00,60.9,51.5,29.96,SE,130,0.0,0.0,71,0.00,,SKC,0.00,VWS V13.01,2013-03-30 15:43:00,
2013-03-30 08:44:00,61.0,51.5,29.96,SE,130,0.0,0.0,71,0.00,,SKC,0.00,VWS V13.01,2013-03-30 15:44:00,
2013-03-30 08:45:00,61.1,51.6,29.96,SE,130,0.0,0.0,71,0.00,,SKC,0.00,VWS V13.01,2013-03-30 15:45:00,
2013-03-30 08:46:00,61.2,51.3,29.96,SE,130,0.0,0.0,70,0.00,,SKC,0.00,VWS V13.01,2013-03-30 15:46:00,
2013-03-30 08:47:00,61.3,51.1,29.96,SE,130,0.0,0.0,69,0.00,,SKC,0.00,VWS V13.01,2013-03-30 15:47:00,
2013-03-30 08:48:00,61.3,51.1,29.96,SE,130,0.0,0.0,69,0.00,,SKC,0.00,VWS V13.01,2013-03-30 15:48:00,
2013-03-30 08:49:00,61.4,51.2,29.96,SE,130,0.0,0.0,69,0.00,,SKC,0.00,VWS V13.01,2013-03-30 15:49:00,
2013-03-30 08:50:00,61.5,51.2,29.96,SE,130,0.0,0.0,69,0.00,,SKC,0.00,VWS V13.01,2013-03-30 15:50:00,
2013-03-30 08:51:00,61.6,51.7,29.96,SE,130,0.0,0.0,70,0.00,,SKC,0.00,VWS V13.01,2013-03-30 15:51:00,
2013-03-30 08:52:00,61.7,51.4,29.96,SE,130,0.0,0.0,69,0.00,,SKC,0.00,VWS V13.01,2013-03-30 15:52:00,
2013-03-30 08:53:00,61.8,51.5,29.96,SE,130,0.0,0.0,69,0.00,,SKC,0.00,VWS V13.01,2013-03-30 15:53:00,
2013-03-30 08:54:00,61.9,51.2,29.96,SE,130,0.0,0.0,68,0.00,,SKC,0.00,VWS V13.01,2013-03-30 15:54:00,
2013-03-30 08:55:00,62.0,51.3,29.96,SE,130,0.0,0.0,68,0.00,,SKC,0.00,VWS V13.01,2013-03-30 15:55:00,
2013-03-30 08:56:00,62.1,51.4,29.96,SE,130,0.0,0.0,68,0.00,,SKC,0.00,VWS V13.01,2013-03-30 15:56:00,
2013-03-30 08:57:00,62.2,51.5,29.96,SE,130,0.0,0.0,68,0.00,,SKC,0.00,VWS V13.01,2013-03-30 15:57:00,
2013-03-30 08:58:00,62.3,51.6,29.96,SE,130,0.0,0.0,68,0.00,,SKC,0.00,VWS V13.01,2013-03-30 15:58:00,
2013-03-30 08:59:00,62.4,52.1,29.96,SE,130,0.0,0.0,69,0.00,,SKC,0.00,VWS V13.01,2013-03-30 15:59:00,
2013-03-30 09:00:00,62.6,51.9,29.96,SE,130,0.0,0.0,68,0.00,,SKC,0.00,VWS V13.01,2013-03-30 16:00:00,
2013-03-30 09:01:00,62.7,51.6,29.95,SE,130,0.0,0.0,67,0.00,,SKC,0.00,VWS V13.01,2013-03-30 16:01:00,
2013-03-30 09:02:00,62.8,51.7,29.95,SE,130,0.0,0.0,67,0.00,,SKC,0.00,VWS V13.01,2013-03-30 16:02:00,
2013-03-30 09:03:00,63.0,51.9,29.95,SE,130,0.0,0.0,67,0.00,,SKC,0.00,VWS V13.01,2013-03-30 16:03:00,
2013-03-30 09:04:00,63.3,52.2,29.95,SE,130,0.0,0.0,67,0.00,,SKC,0.00,VWS V13.01,2013-03-30 16:04:00,
2013-03-30 09:05:00,63.4,52.3,29.95,SE,130,0.0,0.0,67,0.00,,SKC,0.00,VWS V13.01,2013-03-30 16:05:00,
2013-03-30 09:06:00,63.6,52.5,29.95,SE,130,0.0,0.0,67,0.00,,SKC,0.00,VWS V13.01,2013-03-30 16:06:00,
2013-03-30 09:07:00,63.8,52.7,29.95,SE,130,0.0,0.0,67,0.00,,SKC,0.00,VWS V13.01,2013-03-30 16:07:00,
2013-03-30 09:08:00,63.9,51.9,29.95,SE,130,1.0,4.0,65,0.00,,SKC,0.00,VWS V13.01,2013-03-30 16:08:00,
2013-03-30 09:09:00,64.1,51.7,29.95,SE,130,3.0,4.0,64,0.00,,SKC,0.00,VWS V13.01,2013-03-30 16:09:00,
2013-03-30 09:10:00,64.2,51.8,29.95,SE,130,2.0,4.0,64,0.00,,SKC,0.00,VWS V13.01,2013-03-30 16:10:00,
2013-03-30 09:11:00,64.3,51.9,29.95,SE,130,0.0,2.0,64,0.00,,SKC,0.00,VWS V13.01,2013-03-30 16:11:00,
2013-03-30 09:12:00,64.6,52.2,29.95,SE,130,0.0,2.0,64,0.00,,SKC,0.00,VWS V13.01,2013-03-30 16:12:00,
2013-03-30 09:13:00,64.8,52.3,29.95,SE,130,3.0,3.0,64,0.00,,SKC,0.00,VWS V13.01,2013-03-30 16:13:00,
2013-03-30 09:14:00,65.0,51.7,29.95,SE,131,4.0,4.0,62,0.00,,SKC,0.00,VWS V13.01,2013-03-30 16:14:00,
2013-03-30 09:15:00,65.1,51.8,29.95,SE,131,0.0,4.0,62,0.00,,SKC,0.00,VWS V13.01,2013-03-30 16:15:00,
2013-03-30 09:16:00,65.4,52.1,29.95,SE,131,0.0,2.0,62,0.00,,SKC,0.00,VWS V13.01,2013-03-30 16:16:00,
2013-03-30 09:17:00,65.6,51.8,29.95,SE,131,3.0,3.0,61,0.00,,SKC,0.00,VWS V13.01,2013-03-30 16:17:00,
2013-03-30 09:18:00,65.9,51.6,29.95,SE,131,0.0,3.0,60,0.00,,SKC,0.00,VWS V13.01,2013-03-30 16:18:00,
2013-03-30 09:19:00,66.1,52.3,29.95,SE,131,3.0,4.0,61,0.00,,SKC,0.00,VWS V13.01,2013-03-30 16:19:00,
2013-03-30 09:20:00,66.2,51.9,29.95,South,181,4.0,5.0,60,0.00,,SKC,0.00,VWS V13.01,2013-03-30 16:20:00,
2013-03-30 09:21:00,66.3,51.6,29.95,South,191,3.0,5.0,59,0.00,,SKC,0.00,VWS V13.01,2013-03-30 16:21:00,
2013-03-30 09:22:00,66.3,51.6,29.95,South,191,0.0,5.0,59,0.00,,SKC,0.00,VWS V13.01,2013-03-30 16:22:00,
2013-03-30 09:23:00,66.3,51.6,29.95,South,191,0.0,5.0,59,0.00,,SKC,0.00,VWS V13.01,2013-03-30 16:23:00,
2013-03-30 09:24:00,66.3,51.6,29.95,South,191,3.0,5.0,59,0.00,,SKC,0.00,VWS V13.01,2013-03-30 16:24:00,
2013-03-30 09:25:00,66.2,51.5,29.95,South,191,2.0,5.0,59,0.00,,SKC,0.00,VWS V13.01,2013-03-30 16:25:00,
2013-03-30 09:26:00,66.2,51.5,29.95,SW,227,3.0,5.0,59,0.00,,SKC,0.00,VWS V13.01,2013-03-30 16:26:00,
2013-03-30 09:27:00,66.1,51.4,29.95,SW,227,0.0,5.0,59,0.00,,SKC,0.00,VWS V13.01,2013-03-30 16:27:00,
2013-03-30 09:28:00,66.1,50.9,29.95,SW,227,0.0,5.0,58,0.00,,SKC,0.00,VWS V13.01,2013-03-30 16:28:00,
2013-03-30 09:29:00,66.1,50.9,29.95,SW,227,2.0,5.0,58,0.00,,SKC,0.00,VWS V13.01,2013-03-30 16:29:00,
2013-03-30 09:30:00,66.1,51.4,29.95,SW,227,3.0,5.0,59,0.00,,SKC,0.00,VWS V13.01,2013-03-30 16:30:00,
2013-03-30 09:31:00,66.0,50.8,29.95,SW,227,3.0,4.0,58,0.00,,SKC,0.00,VWS V13.01,2013-03-30 16:31:00,
2013-03-30 09:32:00,66.0,50.8,29.95,SW,227,0.0,4.0,58,0.00,,SKC,0.00,VWS V13.01,2013-03-30 16:32:00,
2013-03-30 09:33:00,65.9,50.7,29.95,SW,227,2.0,4.0,58,0.00,,SKC,0.00,VWS V13.01,2013-03-30 16:33:00,
2013-03-30 09:34:00,65.9,50.7,29.95,SW,227,3.0,4.0,58,0.00,,SKC,0.00,VWS V13.01,2013-03-30 16:34:00,
2013-03-30 09:35:00,65.8,51.1,29.95,SW,227,3.0,5.0,59,0.00,,SKC,0.00,VWS V13.01,2013-03-30 16:35:00,
2013-03-30 09:36:00,65.8,51.1,29.95,SW,227,4.0,5.0,59,0.00,,SKC,0.00,VWS V13.01,2013-03-30 16:36:00,
2013-03-30 09:37:00,65.8,51.5,29.95,SW,227,3.0,5.0,60,0.00,,SKC,0.00,VWS V13.01,2013-03-30 16:37:00,
2013-03-30 09:38:00,65.7,51.5,29.95,WSW,244,4.0,5.0,60,0.00,,SKC,0.00,VWS V13.01,2013-03-30 16:38:00,
2013-03-30 09:39:00,65.7,51.0,29.95,WSW,244,3.0,5.0,59,0.00,,SKC,0.00,VWS V13.01,2013-03-30 16:39:00,
2013-03-30 09:40:00,65.7,51.0,29.95,WSW,244,3.0,5.0,59,0.00,,SKC,0.00,VWS V13.01,2013-03-30 16:40:00,
2013-03-30 09:41:00,65.7,51.0,29.95,WSW,248,5.0,5.0,59,0.00,,SKC,0.00,VWS V13.01,2013-03-30 16:41:00,
2013-03-30 09:42:00,65.7,51.0,29.95,WSW,248,0.0,5.0,59,0.00,,SKC,0.00,VWS V13.01,2013-03-30 16:42:00,
2013-03-30 09:43:00,65.7,51.5,29.95,WSW,248,4.0,5.0,60,0.00,,SKC,0.00,VWS V13.01,2013-03-30 16:43:00,
2013-03-30 09:44:00,65.8,51.1,29.95,NW,305,5.0,6.0,59,0.00,,SKC,0.00,VWS V13.01,2013-03-30 16:44:00,
2013-03-30 09:45:00,65.8,51.1,29.95,NW,305,4.0,6.0,59,0.00,,SKC,0.00,VWS V13.01,2013-03-30 16:45:00,
2013-03-30 09:46:00,65.8,50.6,29.95,NW,305,0.0,4.0,58,0.00,,SKC,0.00,VWS V13.01,2013-03-30 16:46:00,
2013-03-30 09:47:00,65.8,51.1,29.95,WNW,298,6.0,6.0,59,0.00,,SKC,0.00,VWS V13.01,2013-03-30 16:47:00,
2013-03-30 09:48:00,65.8,51.1,29.95,WNW,293,5.0,6.0,59,0.00,,SKC,0.00,VWS V13.01,2013-03-30 16:48:00,
2013-03-30 09:49:00,65.8,51.1,29.95,West,277,2.0,6.0,59,0.00,,SKC,0.00,VWS V13.01,2013-03-30 16:49:00,
2013-03-30 09:50:00,65.8,51.1,29.95,West,277,0.0,6.0,59,0.00,,SKC,0.00,VWS V13.01,2013-03-30 16:50:00,
2013-03-30 09:51:00,65.9,51.2,29.95,West,277,2.0,2.0,59,0.00,,SKC,0.00,VWS V13.01,2013-03-30 16:51:00,
2013-03-30 09:52:00,65.9,51.6,29.95,West,277,0.0,3.0,60,0.00,,SKC,0.00,VWS V13.01,2013-03-30 16:52:00,
2013-03-30 09:53:00,66.0,51.7,29.95,West,277,4.0,5.0,60,0.00,,SKC,0.00,VWS V13.01,2013-03-30 16:53:00,
2013-03-30 09:54:00,66.1,52.3,29.95,West,277,0.0,5.0,61,0.00,,SKC,0.00,VWS V13.01,2013-03-30 16:54:00,
2013-03-30 09:55:00,66.2,52.4,29.95,West,277,0.0,5.0,61,0.00,,SKC,0.00,VWS V13.01,2013-03-30 16:55:00,
2013-03-30 09:56:00,66.3,52.5,29.95,West,277,1.0,1.0,61,0.00,,SKC,0.00,VWS V13.01,2013-03-30 16:56:00,
2013-03-30 09:57:00,66.5,52.7,29.95,West,277,2.0,3.0,61,0.00,,SKC,0.00,VWS V13.01,2013-03-30 16:57:00,
2013-03-30 09:58:00,66.5,51.8,29.95,West,265,5.0,6.0,59,0.00,,SKC,0.00,VWS V13.01,2013-03-30 16:58:00,
2013-03-30 09:59:00,66.5,51.8,29.95,West,265,3.0,6.0,59,0.00,,SKC,0.00,VWS V13.01,2013-03-30 16:59:00,
2013-03-30 10:00:00,66.4,51.7,29.95,WNW,292,5.0,6.0,59,0.00,,SKC,0.00,VWS V13.01,2013-03-30 17:00:00,
2013-03-30 10:01:00,66.4,52.1,29.95,West,278,2.0,6.0,60,0.00,,SKC,0.00,VWS V13.01,2013-03-30 17:01:00,
2013-03-30 10:02:00,66.5,52.7,29.95,West,278,0.0,6.0,61,0.00,,SKC,0.00,VWS V13.01,2013-03-30 17:02:00,
2013-03-30 10:03:00,66.5,52.2,29.95,West,278,0.0,6.0,60,0.00,,SKC,0.00,VWS V13.01,2013-03-30 17:03:00,
2013-03-30 10:04:00,66.6,52.3,29.95,West,278,1.0,6.0,60,0.00,,SKC,0.00,VWS V13.01,2013-03-30 17:04:00,
2013-03-30 10:05:00,66.7,52.4,29.95,West,278,0.0,0.0,60,0.00,,SKC,0.00,VWS V13.01,2013-03-30 17:05:00,
2013-03-30 10:06:00,66.8,52.5,29.95,West,278,0.0,1.0,60,0.00,,SKC,0.00,VWS V13.01,2013-03-30 17:06:00,
2013-03-30 10:07:00,66.9,52.6,29.95,WSW,248,2.0,6.0,60,0.00,,SKC,0.00,VWS V13.01,2013-03-30 17:07:00,
2013-03-30 10:08:00,67.2,53.8,29.95,WNW,285,3.0,6.0,62,0.00,,SKC,0.00,VWS V13.01,2013-03-30 17:08:00,
2013-03-30 10:09:00,67.4,53.0,29.95,WNW,301,3.0,6.0,60,0.00,,SKC,0.00,VWS V13.01,2013-03-30 17:09:00,
2013-03-30 10:10:00,67.4,53.0,29.95,WNW,301,1.0,6.0,60,0.00,,SKC,0.00,VWS V13.01,2013-03-30 17:10:00,
2013-03-30 10:11:00,67.5,52.2,29.95,WNW,302,5.0,5.0,58,0.00,,SKC,0.00,VWS V13.01,2013-03-30 17:11:00,
2013-03-30 10:12:00,67.5,52.7,29.95,WNW,295,3.0,5.0,59,0.00,,SKC,0.00,VWS V13.01,2013-03-30 17:12:00,
2013-03-30 10:13:00,67.5,52.7,29.95,WNW,287,4.0,5.0,59,0.00,,SKC,0.00,VWS V13.01,2013-03-30 17:13:00,
2013-03-30 10:14:00,67.4,52.1,29.95,WNW,288,4.0,7.0,58,0.00,,SKC,0.00,VWS V13.01,2013-03-30 17:14:00,
2013-03-30 10:15:00,67.3,52.0,29.95,WNW,290,4.0,7.0,58,0.00,,SKC,0.00,VWS V13.01,2013-03-30 17:15:00,
2013-03-30 10:16:00,67.2,51.9,29.96,WNW,290,4.0,6.0,58,0.00,,SKC,0.00,VWS V13.01,2013-03-30 17:16:00,
2013-03-30 10:17:00,67.1,51.8,29.96,WNW,290,2.0,6.0,58,0.00,,SKC,0.00,VWS V13.01,2013-03-30 17:17:00,
2013-03-30 10:18:00,67.1,52.8,29.96,WNW,290,4.0,6.0,60,0.00,,SKC,0.00,VWS V13.01,2013-03-30 17:18:00,
2013-03-30 10:19:00,67.1,52.8,29.95,WNW,287,4.0,6.0,60,0.00,,SKC,0.00,VWS V13.01,2013-03-30 17:19:00,
2013-03-30 10:20:00,67.1,52.3,29.96,WNW,287,3.0,6.0,59,0.00,,SKC,0.00,VWS V13.01,2013-03-30 17:20:00,
2013-03-30 10:21:00,67.0,51.8,29.96,WNW,290,3.0,5.0,58,0.00,,SKC,0.00,VWS V13.01,2013-03-30 17:21:00,
2013-03-30 10:22:00,67.1,52.8,29.96,West,259,4.0,6.0,60,0.00,,SKC,0.00,VWS V13.01,2013-03-30 17:22:00,
2013-03-30 10:23:00,67.1,52.8,29.95,WSW,250,0.0,6.0,60,0.00,,SKC,0.00,VWS V13.01,2013-03-30 17:23:00,
2013-03-30 10:24:00,67.2,52.4,29.96,WSW,243,7.0,7.0,59,0.00,,SKC,0.00,VWS V13.01,2013-03-30 17:24:00,
2013-03-30 10:25:00,67.2,52.4,29.96,WSW,244,9.0,9.0,59,0.00,,SKC,0.00,VWS V13.01,2013-03-30 17:25:00,
2013-03-30 10:26:00,67.1,51.8,29.96,WSW,256,4.0,9.0,58,0.00,,SKC,0.00,VWS V13.01,2013-03-30 17:26:00,
2013-03-30 10:27:00,67.1,52.3,29.96,WSW,256,4.0,9.0,59,0.00,,SKC,0.00,VWS V13.01,2013-03-30 17:27:00,
2013-03-30 10:28:00,67.1,51.8,29.96,WSW,256,0.0,9.0,58,0.00,,SKC,0.00,VWS V13.01,2013-03-30 17:28:00,
2013-03-30 10:29:00,67.0,51.3,29.96,WSW,256,1.0,9.0,57,0.00,,SKC,0.00,VWS V13.01,2013-03-30 17:29:00,
2013-03-30 10:30:00,67.0,52.2,29.96,WSW,256,3.0,9.0,59,0.00,,SKC,0.00,VWS V13.01,2013-03-30 17:30:00,
2013-03-30 10:31:00,67.0,51.8,29.96,West,266,3.0,6.0,58,0.00,,SKC,0.00,VWS V13.01,2013-03-30 17:31:00,
2013-03-30 10:32:00,67.0,51.8,29.96,West,266,5.0,6.0,58,0.00,,SKC,0.00,VWS V13.01,2013-03-30 17:32:00,
2013-03-30 10:33:00,67.0,51.8,29.96,West,267,3.0,6.0,58,0.00,,SKC,0.00,VWS V13.01,2013-03-30 17:33:00,
2013-03-30 10:34:00,67.0,51.3,29.96,West,268,4.0,6.0,57,0.00,,SKC,0.00,VWS V13.01,2013-03-30 17:34:00,
2013-03-30 10:35:00,67.0,51.8,29.96,West,267,1.0,6.0,58,0.00,,SKC,0.00,VWS V13.01,2013-03-30 17:35:00,
2013-03-30 10:36:00,67.0,51.8,29.96,West,267,0.0,3.0,58,0.00,,SKC,0.00,VWS V13.01,2013-03-30 17:36:00,
2013-03-30 10:37:00,67.0,52.2,29.96,West,267,2.0,3.0,59,0.00,,SKC,0.00,VWS V13.01,2013-03-30 17:37:00,
2013-03-30 10:38:00,67.1,51.8,29.96,West,265,0.0,3.0,58,0.00,,SKC,0.00,VWS V13.01,2013-03-30 17:38:00,
2013-03-30 10:39:00,67.1,51.4,29.96,West,265,0.0,3.0,57,0.00,,SKC,0.00,VWS V13.01,2013-03-30 17:39:00,
2013-03-30 10:40:00,67.2,52.4,29.96,West,266,3.0,3.0,59,0.00,,SKC,0.00,VWS V13.01,2013-03-30 17:40:00,
2013-03-30 10:41:00,67.3,52.5,29.96,West,266,0.0,3.0,59,0.00,,SKC,0.00,VWS V13.01,2013-03-30 17:41:00,
2013-03-30 10:42:00,67.3,52.5,29.96,WNW,284,5.0,7.0,59,0.00,,SKC,0.00,VWS V13.01,2013-03-30 17:42:00,
2013-03-30 10:43:00,67.4,52.1,29.96,WSW,249,0.0,7.0,58,0.00,,SKC,0.00,VWS V13.01,2013-03-30 17:43:00,
2013-03-30 10:44:00,67.5,52.2,29.96,WSW,249,0.0,7.0,58,0.00,,SKC,0.00,VWS V13.01,2013-03-30 17:44:00,
2013-03-30 10:45:00,67.5,52.2,29.96,WSW,249,4.0,7.0,58,0.00,,SKC,0.00,VWS V13.01,2013-03-30 17:45:00,
2013-03-30 10:46:00,67.6,52.3,29.96,WSW,249,0.0,5.0,58,0.00,,SKC,0.00,VWS V13.01,2013-03-30 17:46:00,
2013-03-30 10:47:00,67.6,52.8,29.96,WSW,249,3.0,5.0,59,0.00,,SKC,0.00,VWS V13.01,2013-03-30 17:47:00,
2013-03-30 10:48:00,67.6,52.8,29.96,WSW,249,1.0,5.0,59,0.00,,SKC,0.00,VWS V13.01,2013-03-30 17:48:00,
2013-03-30 10:49:00,67.6,53.2,29.96,WSW,249,0.0,5.0,60,0.00,,SKC,0.00,VWS V13.01,2013-03-30 17:49:00,
2013-03-30 10:50:00,67.7,53.3,29.96,WSW,249,4.0,5.0,60,0.00,,SKC,0.00,VWS V13.01,2013-03-30 17:50:00,
2013-03-30 10:51:00,67.7,52.9,29.96,WSW,248,5.0,7.0,59,0.00,,SKC,0.00,VWS V13.01,2013-03-30 17:51:00,
2013-03-30 10:52:00,67.7,52.9,29.96,WSW,248,2.0,7.0,59,0.00,,SKC,0.00,VWS V13.01,2013-03-30 17:52:00,
2013-03-30 10:53:00,67.8,53.4,29.96,WSW,248,0.0,7.0,60,0.00,,SKC,0.00,VWS V13.01,2013-03-30 17:53:00,
2013-03-30 10:54:00,67.9,53.1,29.96,West,259,5.0,7.0,59,0.00,,SKC,0.00,VWS V13.01,2013-03-30 17:54:00,
2013-03-30 10:55:00,67.9,53.1,29.96,WSW,258,2.0,3.0,59,0.00,,SKC,0.00,VWS V13.01,2013-03-30 17:55:00,
2013-03-30 10:56:00,68.1,54.2,29.96,SW,234,2.0,6.0,61,0.00,,SKC,0.00,VWS V13.01,2013-03-30 17:56:00,
2013-03-30 10:57:00,68.2,54.2,29.96,SW,234,3.0,6.0,61,0.00,,SKC,0.00,VWS V13.01,2013-03-30 17:57:00,
2013-03-30 10:58:00,68.4,54.4,29.96,SW,234,2.0,6.0,61,0.00,,SKC,0.00,VWS V13.01,2013-03-30 17:58:00,
2013-03-30 10:59:00,68.5,54.1,29.96,SW,232,0.0,6.0,60,0.00,,SKC,0.00,VWS V13.01,2013-03-30 17:59:00,
2013-03-30 11:00:00,68.7,54.3,29.96,SSW,194,5.0,6.0,60,0.00,,SKC,0.00,VWS V13.01,2013-03-30 18:00:00,
2013-03-30 11:01:00,68.7,54.3,29.96,SW,217,3.0,6.0,60,0.00,,SKC,0.00,VWS V13.01,2013-03-30 18:01:00,
2013-03-30 11:02:00,68.8,53.9,29.96,SW,222,5.0,6.0,59,0.00,,SKC,0.00,VWS V13.01,2013-03-30 18:02:00,
2013-03-30 11:03:00,68.8,53.9,29.96,SW,217,2.0,6.0,59,0.00,,SKC,0.00,VWS V13.01,2013-03-30 18:03:00,
2013-03-30 11:04:00,68.9,53.5,29.96,SW,217,3.0,6.0,58,0.00,,SKC,0.00,VWS V13.01,2013-03-30 18:04:00,
2013-03-30 11:05:00,68.9,53.5,29.96,SW,216,2.0,6.0,58,0.00,,SKC,0.00,VWS V13.01,2013-03-30 18:05:00,
2013-03-30 11:06:00,68.9,54.0,29.96,SW,222,4.0,5.0,59,0.00,,SKC,0.00,VWS V13.01,2013-03-30 18:06:00,
2013-03-30 11:07:00,68.9,53.5,29.96,SW,222,3.0,5.0,58,0.00,,SKC,0.00,VWS V13.01,2013-03-30 18:07:00,
2013-03-30 11:08:00,68.9,53.5,29.97,SW,222,3.0,5.0,58,0.00,,SKC,0.00,VWS V13.01,2013-03-30 18:08:00,
2013-03-30 11:09:00,68.8,53.4,29.97,WSW,256,3.0,6.0,58,0.00,,SKC,0.00,VWS V13.01,2013-03-30 18:09:00,
2013-03-30 11:10:00,68.8,53.4,29.96,WSW,257,0.0,6.0,58,0.00,,SKC,0.00,VWS V13.01,2013-03-30 18:10:00,
2013-03-30 11:11:00,68.8,53.4,29.97,West,272,6.0,7.0,58,0.00,,SKC,0.00,VWS V13.01,2013-03-30 18:11:00,
2013-03-30 11:12:00,68.8,53.0,29.97,West,277,10.0,10.0,57,0.00,,SKC,0.00,VWS V13.01,2013-03-30 18:12:00,
2013-03-30 11:13:00,68.6,52.8,29.97,West,263,4.0,10.0,57,0.00,,SKC,0.00,VWS V13.01,2013-03-30 18:13:00,
2013-03-30 11:14:00,68.7,53.8,29.97,WSW,257,9.0,10.0,59,0.00,,SKC,0.00,VWS V13.01,2013-03-30 18:14:00,
2013-03-30 11:15:00,68.6,53.2,29.97,West,275,5.0,10.0,58,0.00,,SKC,0.00,VWS V13.01,2013-03-30 18:15:00,
2013-03-30 11:16:00,68.6,53.2,29.97,West,272,6.0,7.0,58,0.00,,SKC,0.00,VWS V13.01,2013-03-30 18:16:00,
2013-03-30 11:17:00,68.6,53.7,29.97,West,264,2.0,7.0,59,0.00,,SKC,0.00,VWS V13.01,2013-03-30 18:17:00,
2013-03-30 11:18:00,68.7,53.3,29.96,WNW,296,6.0,7.0,58,0.00,,SKC,0.00,VWS V13.01,2013-03-30 18:18:00,
2013-03-30 11:19:00,68.7,53.3,29.96,West,275,2.0,11.0,58,0.00,,SKC,0.00,VWS V13.01,2013-03-30 18:19:00,
2013-03-30 11:20:00,68.7,53.3,29.96,WSW,242,4.0,11.0,58,0.00,,SKC,0.00,VWS V13.01,2013-03-30 18:20:00,
2013-03-30 11:21:00,68.8,54.4,29.97,SW,230,3.0,6.0,60,0.00,,SKC,0.00,VWS V13.01,2013-03-30 18:21:00,
2013-03-30 11:22:00,69.1,55.1,29.96,West,276,3.0,7.0,61,0.00,,SKC,0.00,VWS V13.01,2013-03-30 18:22:00,
2013-03-30 11:23:00,69.2,54.7,29.96,SW,221,6.0,7.0,60,0.00,,SKC,0.00,VWS V13.01,2013-03-30 18:23:00,
2013-03-30 11:24:00,69.4,54.0,29.96,SW,231,0.0,7.0,58,0.00,,SKC,0.00,VWS V13.01,2013-03-30 18:24:00,
2013-03-30 11:25:00,69.4,54.0,29.96,SW,231,2.0,7.0,58,0.00,,SKC,0.00,VWS V13.01,2013-03-30 18:25:00,
2013-03-30 11:26:00,69.5,54.6,29.96,SW,217,6.0,7.0,59,0.00,,SKC,0.00,VWS V13.01,2013-03-30 18:26:00,
2013-03-30 11:27:00,69.6,54.2,29.96,SW,217,0.0,7.0,58,0.00,,SKC,0.00,VWS V13.01,2013-03-30 18:27:00,
2013-03-30 11:28:00,69.7,54.3,29.96,SSW,208,3.0,10.0,58,0.00,,SKC,0.00,VWS V13.01,2013-03-30 18:28:00,
2013-03-30 11:29:00,69.9,55.4,29.96,SW,225,3.0,10.0,60,0.00,,SKC,0.00,VWS V13.01,2013-03-30 18:29:00,
2013-03-30 11:30:00,70.0,55.5,29.96,West,275,4.0,10.0,60,0.00,,SKC,0.00,VWS V13.01,2013-03-30 18:30:00,
2013-03-30 11:31:00,70.0,55.0,29.96,WSW,257,2.0,4.0,59,0.00,,SKC,0.00,VWS V13.01,2013-03-30 18:31:00,
2013-03-30 11:32:00,69.9,54.0,29.96,SSW,211,6.0,7.0,57,0.00,,SKC,0.00,VWS V13.01,2013-03-30 18:32:00,
2013-03-30 11:33:00,69.9,54.5,29.96,SW,223,7.0,10.0,58,0.00,,SKC,0.00,VWS V13.01,2013-03-30 18:33:00,
2013-03-30 11:34:00,69.8,54.8,29.96,SW,234,4.0,10.0,59,0.00,,SKC,0.00,VWS V13.01,2013-03-30 18:34:00,
2013-03-30 11:35:00,69.7,54.3,29.97,SW,232,4.0,10.0,58,0.00,,SKC,0.00,VWS V13.01,2013-03-30 18:35:00,
2013-03-30 11:36:00,69.5,54.1,29.96,SW,234,7.0,13.0,58,0.00,,SKC,0.00,VWS V13.01,2013-03-30 18:36:00,
2013-03-30 11:37:00,69.4,53.0,29.96,SW,230,9.0,13.0,56,0.00,,SKC,0.00,VWS V13.01,2013-03-30 18:37:00,
2013-03-30 11:38:00,69.2,52.8,29.96,WSW,256,6.0,13.0,56,0.00,,SKC,0.00,VWS V13.01,2013-03-30 18:38:00,
2013-03-30 11:39:00,69.1,53.2,29.96,SW,215,11.0,13.0,57,0.00,,SKC,0.00,VWS V13.01,2013-03-30 18:39:00,
2013-03-30 11:40:00,69.1,53.2,29.96,SW,221,4.0,13.0,57,0.00,,SKC,0.00,VWS V13.01,2013-03-30 18:40:00,
2013-03-30 11:41:00,69.0,53.2,29.96,SSW,204,5.0,7.0,57,0.00,,SKC,0.00,VWS V13.01,2013-03-30 18:41:00,
2013-03-30 11:42:00,69.0,53.6,29.96,SSW,204,4.0,7.0,58,0.00,,SKC,0.00,VWS V13.01,2013-03-30 18:42:00,
2013-03-30 11:43:00,69.0,53.2,29.96,SW,220,9.0,10.0,57,0.00,,SKC,0.00,VWS V13.01,2013-03-30 18:43:00,
2013-03-30 11:44:00,69.0,53.6,29.96,SSW,212,5.0,10.0,58,0.00,,SKC,0.00,VWS V13.01,2013-03-30 18:44:00,
2013-03-30 11:45:00,69.0,53.2,29.96,SW,215,9.0,10.0,57,0.00,,SKC,0.00,VWS V13.01,2013-03-30 18:45:00,
2013-03-30 11:46:00,69.0,53.6,29.96,South,187,5.0,9.0,58,0.00,,SKC,0.00,VWS V13.01,2013-03-30 18:46:00,
2013-03-30 11:47:00,69.0,53.6,29.96,SW,215,6.0,9.0,58,0.00,,SKC,0.00,VWS V13.01,2013-03-30 18:47:00,
2013-03-30 11:48:00,69.0,54.1,29.96,South,184,4.0,9.0,59,0.00,,SKC,0.00,VWS V13.01,2013-03-30 18:48:00,
2013-03-30 11:49:00,69.1,54.2,29.96,SSW,200,7.0,11.0,59,0.00,,SKC,0.00,VWS V13.01,2013-03-30 18:49:00,
2013-03-30 11:50:00,69.0,53.6,29.96,SSW,205,2.0,12.0,58,0.00,,SKC,0.00,VWS V13.01,2013-03-30 18:50:00,
2013-03-30 11:51:00,69.0,53.6,29.96,South,182,5.0,11.0,58,0.00,,SKC,0.00,VWS V13.01,2013-03-30 18:51:00,
2013-03-30 11:52:00,69.0,54.1,29.96,SSW,194,5.0,11.0,59,0.00,,SKC,0.00,VWS V13.01,2013-03-30 18:52:00,
2013-03-30 11:53:00,69.0,54.1,29.96,SSW,196,7.0,11.0,59,0.00,,SKC,0.00,VWS V13.01,2013-03-30 18:53:00,
2013-03-30 11:54:00,69.0,54.1,29.96,SSW,202,11.0,12.0,59,0.00,,SKC,0.00,VWS V13.01,2013-03-30 18:54:00,
2013-03-30 11:55:00,69.0,54.1,29.96,SSW,200,11.0,12.0,59,0.00,,SKC,0.00,VWS V13.01,2013-03-30 18:55:00,
2013-03-30 11:56:00,69.1,54.2,29.96,SSW,196,5.0,11.0,59,0.00,,SKC,0.00,VWS V13.01,2013-03-30 18:56:00,
2013-03-30 11:57:00,69.2,54.7,29.96,SSW,196,3.0,11.0,60,0.00,,SKC,0.00,VWS V13.01,2013-03-30 18:57:00,
2013-03-30 11:58:00,69.4,54.9,29.96,SSW,203,9.0,11.0,60,0.00,,SKC,0.00,VWS V13.01,2013-03-30 18:58:00,
2013-03-30 11:59:00,69.5,55.0,29.96,SSW,201,6.0,11.0,60,0.00,,SKC,0.00,VWS V13.01,2013-03-30 18:59:00,
2013-03-30 12:00:00,69.6,54.7,29.96,South,184,2.0,11.0,59,0.00,,SKC,0.00,VWS V13.01,2013-03-30 19:00:00,
2013-03-30 12:01:00,69.7,54.8,29.95,South,181,6.0,7.0,59,0.00,,SKC,0.00,VWS V13.01,2013-03-30 19:01:00,
2013-03-30 12:02:00,69.7,54.8,29.95,South,182,2.0,9.0,59,0.00,,SKC,0.00,VWS V13.01,2013-03-30 19:02:00,
2013-03-30 12:03:00,69.8,54.4,29.95,SSW,194,4.0,10.0,58,0.00,,SKC,0.00,VWS V13.01,2013-03-30 19:03:00,
2013-03-30 12:04:00,69.8,54.4,29.95,South,181,6.0,10.0,58,0.00,,SKC,0.00,VWS V13.01,2013-03-30 19:04:00,
2013-03-30 12:05:00,69.7,53.8,29.95,SSW,201,3.0,10.0,57,0.00,,SKC,0.00,VWS V13.01,2013-03-30 19:05:00,
2013-03-30 12:06:00,69.8,54.4,29.95,SW,224,9.0,11.0,58,0.00,,SKC,0.00,VWS V13.01,2013-03-30 19:06:00,
2013-03-30 12:07:00,69.8,53.4,29.95,SSW,196,10.0,11.0,56,0.00,,SKC,0.00,VWS V13.01,2013-03-30 19:07:00,
2013-03-30 12:08:00,69.7,52.8,29.95,SSW,197,11.0,12.0,55,0.00,,SKC,0.00,VWS V13.01,2013-03-30 19:08:00,
2013-03-30 12:09:00,69.6,53.2,29.95,SSW,196,7.0,12.0,56,0.00,,SKC,0.00,VWS V13.01,2013-03-30 19:09:00,
2013-03-30 12:10:00,69.5,53.1,29.95,South,184,7.0,12.0,56,0.00,,SKC,0.00,VWS V13.01,2013-03-30 19:10:00,
2013-03-30 12:11:00,69.5,53.6,29.95,SSW,204,9.0,10.0,57,0.00,,SKC,0.00,VWS V13.01,2013-03-30 19:11:00,
2013-03-30 12:12:00,69.5,53.6,29.95,SW,216,6.0,11.0,57,0.00,,SKC,0.00,VWS V13.01,2013-03-30 19:12:00,
2013-03-30 12:13:00,69.5,54.1,29.95,SSW,210,7.0,11.0,58,0.00,,SKC,0.00,VWS V13.01,2013-03-30 19:13:00,
2013-03-30 12:14:00,69.6,54.7,29.95,SSW,199,6.0,11.0,59,0.00,,SKC,0.00,VWS V13.01,2013-03-30 19:14:00,
2013-03-30 12:15:00,69.6,53.7,29.95,South,169,5.0,7.0,57,0.00,,SKC,0.00,VWS V13.01,2013-03-30 19:15:00,
2013-03-30 12:16:00,69.6,53.7,29.95,SSW,205,7.0,10.0,57,0.00,,SKC,0.00,VWS V13.01,2013-03-30 19:16:00,
2013-03-30 12:17:00,69.5,53.6,29.95,SSW,211,2.0,11.0,57,0.00,,SKC,0.00,VWS V13.01,2013-03-30 19:17:00,
2013-03-30 12:18:00,69.5,54.1,29.95,SSW,207,7.0,11.0,58,0.00,,SKC,0.00,VWS V13.01,2013-03-30 19:18:00,
2013-03-30 12:19:00,69.6,55.1,29.95,SSW,205,9.0,11.0,60,0.00,,SKC,0.00,VWS V13.01,2013-03-30 19:19:00,
2013-03-30 12:20:00,69.7,54.3,29.95,SSW,209,7.0,11.0,58,0.00,,SKC,0.00,VWS V13.01,2013-03-30 19:20:00,
2013-03-30 12:21:00,69.7,53.8,29.95,SSW,201,6.0,7.0,57,0.00,,SKC,0.00,VWS V13.01,2013-03-30 19:21:00,
2013-03-30 12:22:00,69.6,53.7,29.95,SSW,205,3.0,7.0,57,0.00,,SKC,0.00,VWS V13.01,2013-03-30 19:22:00,
2013-03-30 12:23:00,69.6,54.2,29.95,SSW,207,6.0,9.0,58,0.00,,SKC,0.00,VWS V13.01,2013-03-30 19:23:00,
2013-03-30 12:24:00,69.7,54.8,29.95,South,191,0.0,10.0,59,0.00,,SKC,0.00,VWS V13.01,2013-03-30 19:24:00,
2013-03-30 12:25:00,69.7,54.8,29.95,South,191,4.0,10.0,59,0.00,,SKC,0.00,VWS V13.01,2013-03-30 19:25:00,
2013-03-30 12:26:00,69.7,54.8,29.95,SSW,192,4.0,5.0,59,0.00,,SKC,0.00,VWS V13.01,2013-03-30 19:26:00,
2013-03-30 12:27:00,69.7,54.8,29.95,SSW,192,7.0,7.0,59,0.00,,SKC,0.00,VWS V13.01,2013-03-30 19:27:00,
2013-03-30 12:28:00,69.8,54.4,29.95,SSW,193,5.0,7.0,58,0.00,,SKC,0.00,VWS V13.01,2013-03-30 19:28:00,
2013-03-30 12:29:00,69.9,54.9,29.95,South,184,3.0,7.0,59,0.00,,SKC,0.00,VWS V13.01,2013-03-30 19:29:00,
2013-03-30 12:30:00,69.9,54.9,29.95,SW,215,5.0,9.0,59,0.00,,SKC,0.00,VWS V13.01,2013-03-30 19:30:00,
2013-03-30 12:31:00,69.9,54.9,29.95,South,185,6.0,6.0,59,0.00,,SKC,0.00,VWS V13.01,2013-03-30 19:31:00,
2013-03-30 12:32:00,69.9,54.9,29.95,South,191,3.0,6.0,59,0.00,,SKC,0.00,VWS V13.01,2013-03-30 19:32:00,
2013-03-30 12:33:00,69.9,54.9,29.95,SSW,195,6.0,7.0,59,0.00,,SKC,0.00,VWS V13.01,2013-03-30 19:33:00,
2013-03-30 12:34:00,70.0,55.0,29.95,SSW,207,7.0,7.0,59,0.00,,SKC,0.00,VWS V13.01,2013-03-30 19:34:00,
2013-03-30 12:35:00,70.0,55.5,29.95,SW,227,7.0,7.0,60,0.00,,SKC,0.00,VWS V13.01,2013-03-30 19:35:00,
2013-03-30 12:36:00,70.0,54.6,29.95,SW,228,3.0,8.0,58,0.00,,SKC,0.00,VWS V13.01,2013-03-30 19:36:00,
2013-03-30 12:37:00,70.0,54.6,29.95,SW,229,2.0,8.0,58,0.00,,SKC,0.00,VWS V13.01,2013-03-30 19:37:00,
2013-03-30 12:38:00,70.1,54.7,29.95,SSW,194,5.0,8.0,58,0.00,,SKC,0.00,VWS V13.01,2013-03-30 19:38:00,
2013-03-30 12:39:00,70.1,54.7,29.94,SSW,195,5.0,8.0,58,0.00,,SKC,0.00,VWS V13.01,2013-03-30 19:39:00,
2013-03-30 12:40:00,70.0,54.1,29.94,SSW,195,3.0,8.0,57,0.00,,SKC,0.00,VWS V13.01,2013-03-30 19:40:00,
2013-03-30 12:41:00,70.0,54.1,29.94,SSW,195,1.0,5.0,57,0.00,,SKC,0.00,VWS V13.01,2013-03-30 19:41:00,
2013-03-30 12:42:00,70.1,55.1,29.94,SSW,195,0.0,5.0,59,0.00,,SKC,0.00,VWS V13.01,2013-03-30 19:42:00,
2013-03-30 12:43:00,70.1,54.7,29.94,SSW,195,4.0,6.0,58,0.00,,SKC,0.00,VWS V13.01,2013-03-30 19:43:00,
2013-03-30 12:44:00,70.2,54.3,29.94,SSW,194,2.0,6.0,57,0.00,,SKC,0.00,VWS V13.01,2013-03-30 19:44:00,
2013-03-30 12:45:00,70.2,55.2,29.94,SSW,193,9.0,9.0,59,0.00,,SKC,0.00,VWS V13.01,2013-03-30 19:45:00,
2013-03-30 12:46:00,70.3,54.4,29.94,SSW,211,3.0,9.0,57,0.00,,SKC,0.00,VWS V13.01,2013-03-30 19:46:00,
2013-03-30 12:47:00,70.4,55.4,29.94,SSW,211,5.0,9.0,59,0.00,,SKC,0.00,VWS V13.01,2013-03-30 19:47:00,
2013-03-30 12:48:00,70.4,54.9,29.94,SSW,211,0.0,9.0,58,0.00,,SKC,0.00,VWS V13.01,2013-03-30 19:48:00,
2013-03-30 12:49:00,70.5,55.0,29.94,WSW,246,4.0,9.0,58,0.00,,SKC,0.00,VWS V13.01,2013-03-30 19:49:00,
2013-03-30 12:50:00,70.5,54.5,29.94,WSW,246,4.0,9.0,57,0.00,,SKC,0.00,VWS V13.01,2013-03-30 19:50:00,
2013-03-30 12:51:00,70.5,54.1,29.94,WSW,246,4.0,5.0,56,0.00,,SKC,0.00,VWS V13.01,2013-03-30 19:51:00,
2013-03-30 12:52:00,70.5,54.5,29.94,WSW,246,1.0,5.0,57,0.00,,SKC,0.00,VWS V13.01,2013-03-30 19:52:00,
2013-03-30 12:53:00,70.5,54.5,29.94,WSW,246,0.0,5.0,57,0.00,,SKC,0.00,VWS V13.01,2013-03-30 19:53:00,
2013-03-30 12:54:00,70.6,54.6,29.94,WSW,246,7.0,7.0,57,0.00,,SKC,0.00,VWS V13.01,2013-03-30 19:54:00,
2013-03-30 12:55:00,70.6,54.6,29.94,WSW,249,6.0,7.0,57,0.00,,SKC,0.00,VWS V13.01,2013-03-30 19:55:00,
2013-03-30 12:56:00,70.6,54.6,29.94,SW,221,6.0,6.0,57,0.00,,SKC,0.00,VWS V13.01,2013-03-30 19:56:00,
2013-03-30 12:57:00,70.6,54.2,29.94,SW,228,3.0,6.0,56,0.00,,SKC,0.00,VWS V13.01,2013-03-30 19:57:00,
2013-03-30 12:58:00,70.6,54.2,29.94,SW,228,5.0,6.0,56,0.00,,SKC,0.00,VWS V13.01,2013-03-30 19:58:00,
2013-03-30 12:59:00,70.5,54.5,29.94,SW,228,2.0,6.0,57,0.00,,SKC,0.00,VWS V13.01,2013-03-30 19:59:00,
2013-03-30 13:00:00,70.6,54.6,29.94,SW,228,2.0,6.0,57,0.00,,SKC,0.00,VWS V13.01,2013-03-30 20:00:00,
2013-03-30 13:01:00,70.6,54.6,29.94,WNW,286,5.0,6.0,57,0.00,,SKC,0.00,VWS V13.01,2013-03-30 20:01:00,
2013-03-30 13:02:00,70.6,54.2,29.94,West,262,7.0,10.0,56,0.00,,SKC,0.00,VWS V13.01,2013-03-30 20:02:00,
2013-03-30 13:03:00,70.6,53.7,29.94,West,271,5.0,10.0,55,0.00,,SKC,0.00,VWS V13.01,2013-03-30 20:03:00,
2013-03-30 13:04:00,70.6,54.2,29.94,West,270,3.0,10.0,56,0.00,,SKC,0.00,VWS V13.01,2013-03-30 20:04:00,
2013-03-30 13:05:00,70.6,54.2,29.94,West,270,2.0,10.0,56,0.00,,SKC,0.00,VWS V13.01,2013-03-30 20:05:00,
2013-03-30 13:06:00,70.6,54.2,29.94,West,271,0.0,6.0,56,0.00,,SKC,0.00,VWS V13.01,2013-03-30 20:06:00,
2013-03-30 13:07:00,70.6,54.6,29.94,WNW,284,6.0,9.0,57,0.00,,SKC,0.00,VWS V13.01,2013-03-30 20:07:00,
2013-03-30 13:08:00,70.7,54.2,29.94,WNW,283,1.0,9.0,56,0.00,,SKC,0.00,VWS V13.01,2013-03-30 20:08:00,
2013-03-30 13:09:00,70.7,54.7,29.94,WSW,237,4.0,9.0,57,0.00,,SKC,0.00,VWS V13.01,2013-03-30 20:09:00,
2013-03-30 13:10:00,70.8,55.8,29.94,WSW,257,1.0,9.0,59,0.00,,SKC,0.00,VWS V13.01,2013-03-30 20:10:00,
2013-03-30 13:11:00,70.8,55.3,29.94,WSW,257,3.0,4.0,58,0.00,,SKC,0.00,VWS V13.01,2013-03-30 20:11:00,
2013-03-30 13:12:00,70.9,54.4,29.94,WSW,253,3.0,6.0,56,0.00,,SKC,0.00,VWS V13.01,2013-03-30 20:12:00,
2013-03-30 13:13:00,70.8,54.3,29.94,SW,235,3.0,6.0,56,0.00,,SKC,0.00,VWS V13.01,2013-03-30 20:13:00,
2013-03-30 13:14:00,70.8,53.8,29.93,SW,235,0.0,6.0,55,0.00,,SKC,0.00,VWS V13.01,2013-03-30 20:14:00,
2013-03-30 13:15:00,70.8,54.3,29.93,South,186,3.0,6.0,56,0.00,,SKC,0.00,VWS V13.01,2013-03-30 20:15:00,
2013-03-30 13:16:00,70.8,54.3,29.93,South,187,3.0,6.0,56,0.00,,SKC,0.00,VWS V13.01,2013-03-30 20:16:00,
2013-03-30 13:17:00,70.9,54.9,29.93,SSW,198,4.0,6.0,57,0.00,,SKC,0.00,VWS V13.01,2013-03-30 20:17:00,
2013-03-30 13:18:00,70.8,54.8,29.93,SSW,198,4.0,6.0,57,0.00,,SKC,0.00,VWS V13.01,2013-03-30 20:18:00,
2013-03-30 13:19:00,70.9,54.4,29.93,SSW,198,2.0,6.0,56,0.00,,SKC,0.00,VWS V13.01,2013-03-30 20:19:00,
2013-03-30 13:20:00,70.9,54.9,29.93,SSW,212,3.0,6.0,57,0.00,,SKC,0.00,VWS V13.01,2013-03-30 20:20:00,
2013-03-30 13:21:00,70.8,54.3,29.93,SW,223,0.0,5.0,56,0.00,,SKC,0.00,VWS V13.01,2013-03-30 20:21:00,
2013-03-30 13:22:00,70.8,54.8,29.93,WNW,290,3.0,5.0,57,0.00,,SKC,0.00,VWS V13.01,2013-03-30 20:22:00,
2013-03-30 13:23:00,70.9,54.4,29.93,NW,309,2.0,6.0,56,0.00,,SKC,0.00,VWS V13.01,2013-03-30 20:23:00,
2013-03-30 13:24:00,70.8,54.3,29.93,WNW,301,4.0,6.0,56,0.00,,SKC,0.00,VWS V13.01,2013-03-30 20:24:00,
2013-03-30 13:25:00,70.8,54.3,29.93,WNW,284,5.0,7.0,56,0.00,,SKC,0.00,VWS V13.01,2013-03-30 20:25:00,
2013-03-30 13:26:00,70.7,54.2,29.93,West,281,3.0,5.0,56,0.00,,SKC,0.00,VWS V13.01,2013-03-30 20:26:00,
2013-03-30 13:27:00,70.7,54.2,29.93,WNW,282,0.0,5.0,56,0.00,,SKC,0.00,VWS V13.01,2013-03-30 20:27:00,
2013-03-30 13:28:00,70.8,54.8,29.93,West,265,4.0,6.0,57,0.00,,SKC,0.00,VWS V13.01,2013-03-30 20:28:00,
2013-03-30 13:29:00,70.8,54.3,29.93,West,261,7.0,7.0,56,0.00,,SKC,0.00,VWS V13.01,2013-03-30 20:29:00,
2013-03-30 13:30:00,70.8,54.3,29.93,West,275,7.0,8.0,56,0.00,,SKC,0.00,VWS V13.01,2013-03-30 20:30:00,
2013-03-30 13:31:00,70.7,53.8,29.93,West,263,4.0,9.0,55,0.00,,SKC,0.00,VWS V13.01,2013-03-30 20:31:00,
2013-03-30 13:32:00,70.6,54.2,29.93,West,262,5.0,9.0,56,0.00,,SKC,0.00,VWS V13.01,2013-03-30 20:32:00,
2013-03-30 13:33:00,70.6,54.2,29.93,West,261,4.0,9.0,56,0.00,,SKC,0.00,VWS V13.01,2013-03-30 20:33:00,
2013-03-30 13:34:00,70.6,54.2,29.93,WSW,258,4.0,9.0,56,0.00,,SKC,0.00,VWS V13.01,2013-03-30 20:34:00,
2013-03-30 13:35:00,70.7,54.2,29.93,WNW,292,2.0,3.0,56,0.00,,SKC,0.00,VWS V13.01,2013-03-30 20:35:00,
2013-03-30 13:36:00,70.7,54.2,29.93,WNW,290,0.0,5.0,56,0.00,,SKC,0.00,VWS V13.01,2013-03-30 20:36:00,
2013-03-30 13:37:00,70.7,54.2,29.93,West,279,6.0,7.0,56,0.00,,SKC,0.00,VWS V13.01,2013-03-30 20:37:00,
2013-03-30 13:38:00,70.7,54.2,29.93,West,280,3.0,10.0,56,0.00,,SKC,0.00,VWS V13.01,2013-03-30 20:38:00,
2013-03-30 13:39:00,70.7,54.2,29.93,West,268,1.0,10.0,56,0.00,,SKC,0.00,VWS V13.01,2013-03-30 20:39:00,
2013-03-30 13:40:00,70.7,54.2,29.93,West,264,2.0,10.0,56,0.00,,SKC,0.00,VWS V13.01,2013-03-30 20:40:00,
2013-03-30 13:41:00,70.8,55.3,29.93,West,264,3.0,3.0,58,0.00,,SKC,0.00,VWS V13.01,2013-03-30 20:41:00,
2013-03-30 13:42:00,70.9,54.9,29.93,WSW,248,5.0,5.0,57,0.00,,SKC,0.00,VWS V13.01,2013-03-30 20:42:00,
2013-03-30 13:43:00,70.9,54.9,29.93,SW,221,3.0,5.0,57,0.00,,SKC,0.00,VWS V13.01,2013-03-30 20:43:00,
2013-03-30 13:44:00,70.9,54.0,29.93,SW,219,0.0,5.0,55,0.00,,SKC,0.00,VWS V13.01,2013-03-30 20:44:00,
2013-03-30 13:45:00,70.9,54.0,29.93,SW,219,2.0,5.0,55,0.00,,SKC,0.00,VWS V13.01,2013-03-30 20:45:00,
2013-03-30 13:46:00,70.9,54.0,29.92,SW,219,5.0,5.0,55,0.00,,SKC,0.00,VWS V13.01,2013-03-30 20:46:00,
2013-03-30 13:47:00,70.8,54.3,29.92,SW,219,0.0,5.0,56,0.00,,SKC,0.00,VWS V13.01,2013-03-30 20:47:00,
2013-03-30 13:48:00,70.8,54.3,29.92,SW,234,4.0,5.0,56,0.00,,SKC,0.00,VWS V13.01,2013-03-30 20:48:00,
2013-03-30 13:49:00,70.8,54.3,29.92,WSW,238,2.0,5.0,56,0.00,,SKC,0.00,VWS V13.01,2013-03-30 20:49:00,
2013-03-30 13:50:00,70.7,53.8,29.92,WSW,238,3.0,5.0,55,0.00,,SKC,0.00,VWS V13.01,2013-03-30 20:50:00,
2013-03-30 13:51:00,70.7,53.8,29.92,WSW,238,0.0,3.0,55,0.00,,SKC,0.00,VWS V13.01,2013-03-30 20:51:00,
2013-03-30 13:52:00,70.7,53.8,29.92,WSW,238,1.0,4.0,55,0.00,,SKC,0.00,VWS V13.01,2013-03-30 20:52:00,
2013-03-30 13:53:00,70.8,54.3,29.92,WSW,237,5.0,7.0,56,0.00,,SKC,0.00,VWS V13.01,2013-03-30 20:53:00,
2013-03-30 13:54:00,70.8,54.3,29.92,SW,234,6.0,9.0,56,0.00,,SKC,0.00,VWS V13.01,2013-03-30 20:54:00,
2013-03-30 13:55:00,70.8,54.3,29.92,SW,234,4.0,9.0,56,0.00,,SKC,0.00,VWS V13.01,2013-03-30 20:55:00,
2013-03-30 13:56:00,70.8,54.3,29.92,SW,234,0.0,4.0,56,0.00,,SKC,0.00,VWS V13.01,2013-03-30 20:56:00,
2013-03-30 13:57:00,70.9,54.4,29.92,SW,234,0.0,4.0,56,0.00,,SKC,0.00,VWS V13.01,2013-03-30 20:57:00,
2013-03-30 13:58:00,71.0,56.0,29.92,SW,234,0.0,4.0,59,0.00,,SKC,0.00,VWS V13.01,2013-03-30 20:58:00,
2013-03-30 13:59:00,71.2,55.2,29.92,SW,232,5.0,5.0,57,0.00,,SKC,0.00,VWS V13.01,2013-03-30 20:59:00,
2013-03-30 14:00:00,71.3,54.8,29.92,SSW,196,6.0,9.0,56,0.00,,SKC,0.00,VWS V13.01,2013-03-30 21:00:00,
2013-03-30 14:01:00,71.3,54.3,29.93,SSW,201,7.0,9.0,55,0.00,,SKC,0.00,VWS V13.01,2013-03-30 21:01:00,
2013-03-30 14:02:00,71.3,54.3,29.93,SSW,205,5.0,10.0,55,0.00,,SKC,0.00,VWS V13.01,2013-03-30 21:02:00,
2013-03-30 14:03:00,71.3,54.3,29.93,SSW,205,3.0,10.0,55,0.00,,SKC,0.00,VWS V13.01,2013-03-30 21:03:00,
2013-03-30 14:04:00,71.3,54.3,29.93,SSW,192,6.0,10.0,55,0.00,,SKC,0.00,VWS V13.01,2013-03-30 21:04:00,
2013-03-30 14:05:00,71.3,54.3,29.93,SSW,192,5.0,10.0,55,0.00,,SKC,0.00,VWS V13.01,2013-03-30 21:05:00,
2013-03-30 14:06:00,71.2,54.2,29.93,SSW,205,7.0,9.0,55,0.00,,SKC,0.00,VWS V13.01,2013-03-30 21:06:00,
2013-03-30 14:07:00,71.2,53.7,29.93,SSW,200,3.0,9.0,54,0.00,,SKC,0.00,VWS V13.01,2013-03-30 21:07:00,
2013-03-30 14:08:00,71.1,53.6,29.93,SSW,200,6.0,9.0,54,0.00,,SKC,0.00,VWS V13.01,2013-03-30 21:08:00,
2013-03-30 14:09:00,71.1,53.1,29.93,SSW,192,5.0,9.0,53,0.00,,SKC,0.00,VWS V13.01,2013-03-30 21:09:00,
2013-03-30 14:10:00,71.1,53.1,29.93,SSW,199,5.0,5.0,53,0.00,,SKC,0.00,VWS V13.01,2013-03-30 21:10:00,
2013-03-30 14:11:00,71.2,53.2,29.93,SSW,199,5.0,6.0,53,0.00,,SKC,0.00,VWS V13.01,2013-03-30 21:11:00,
2013-03-30 14:12:00,71.1,53.1,29.93,SSW,199,4.0,6.0,53,0.00,,SKC,0.00,VWS V13.01,2013-03-30 21:12:00,
2013-03-30 14:13:00,71.2,53.7,29.93,SSW,199,5.0,6.0,54,0.00,,SKC,0.00,VWS V13.01,2013-03-30 21:13:00,
2013-03-30 14:14:00,71.1,53.1,29.92,SSW,199,4.0,6.0,53,0.00,,SKC,0.00,VWS V13.01,2013-03-30 21:14:00,
2013-03-30 14:15:00,71.2,53.2,29.92,SSW,199,4.0,6.0,53,0.00,,SKC,0.00,VWS V13.01,2013-03-30 21:15:00,
2013-03-30 14:16:00,71.3,53.8,29.92,SSW,199,3.0,4.0,54,0.00,,SKC,0.00,VWS V13.01,2013-03-30 21:16:00,
2013-03-30 14:17:00,71.3,53.3,29.92,SSW,200,5.0,6.0,53,0.00,,SKC,0.00,VWS V13.01,2013-03-30 21:17:00,
2013-03-30 14:18:00,71.3,52.8,29.92,SSW,200,5.0,7.0,52,0.00,,SKC,0.00,VWS V13.01,2013-03-30 21:18:00,
2013-03-30 14:19:00,71.3,52.8,29.93,South,190,5.0,7.0,52,0.00,,SKC,0.00,VWS V13.01,2013-03-30 21:19:00,
2013-03-30 14:20:00,71.3,52.8,29.92,South,190,3.0,3.0,52,0.00,,SKC,0.00,VWS V13.01,2013-03-30 21:20:00,
2013-03-30 14:21:00,71.3,53.3,29.92,South,190,4.0,6.0,53,0.00,,SKC,0.00,VWS V13.01,2013-03-30 21:21:00,
2013-03-30 14:22:00,71.3,53.3,29.92,South,190,0.0,6.0,53,0.00,,SKC,0.00,VWS V13.01,2013-03-30 21:22:00,
2013-03-30 14:23:00,71.3,53.3,29.92,SSW,207,5.0,9.0,53,0.00,,SKC,0.00,VWS V13.01,2013-03-30 21:23:00,
2013-03-30 14:24:00,71.5,54.0,29.92,South,187,7.0,9.0,54,0.00,,SKC,0.00,VWS V13.01,2013-03-30 21:24:00,
2013-03-30 14:25:00,71.5,53.5,29.92,SSE,163,1.0,9.0,53,0.00,,SKC,0.00,VWS V13.01,2013-03-30 21:25:00,
2013-03-30 14:26:00,71.6,53.6,29.92,South,181,3.0,7.0,53,0.00,,SKC,0.00,VWS V13.01,2013-03-30 21:26:00,
2013-03-30 14:27:00,71.6,53.1,29.92,South,184,5.0,7.0,52,0.00,,SKC,0.00,VWS V13.01,2013-03-30 21:27:00,
2013-03-30 14:28:00,71.6,53.1,29.92,South,184,3.0,7.0,52,0.00,,SKC,0.00,VWS V13.01,2013-03-30 21:28:00,
2013-03-30 14:29:00,71.6,53.6,29.92,South,191,0.0,7.0,53,0.00,,SKC,0.00,VWS V13.01,2013-03-30 21:29:00,
2013-03-30 14:30:00,71.6,53.6,29.92,South,191,4.0,7.0,53,0.00,,SKC,0.00,VWS V13.01,2013-03-30 21:30:00,
2013-03-30 14:31:00,71.7,54.2,29.91,SSW,192,3.0,5.0,54,0.00,,SKC,0.00,VWS V13.01,2013-03-30 21:31:00,
2013-03-30 14:32:00,71.7,53.7,29.92,SSW,200,7.0,9.0,53,0.00,,SKC,0.00,VWS V13.01,2013-03-30 21:32:00,
2013-03-30 14:33:00,71.7,53.2,29.91,SSW,200,0.0,9.0,52,0.00,,SKC,0.00,VWS V13.01,2013-03-30 21:33:00,
2013-03-30 14:34:00,71.8,54.3,29.92,SSW,207,7.0,9.0,54,0.00,,SKC,0.00,VWS V13.01,2013-03-30 21:34:00,
2013-03-30 14:35:00,71.8,53.2,29.91,SSW,211,3.0,3.0,52,0.00,,SKC,0.00,VWS V13.01,2013-03-30 21:35:00,
2013-03-30 14:36:00,71.8,53.8,29.91,SW,229,3.0,6.0,53,0.00,,SKC,0.00,VWS V13.01,2013-03-30 21:36:00,
2013-03-30 14:37:00,71.8,53.2,29.91,WSW,238,4.0,6.0,52,0.00,,SKC,0.00,VWS V13.01,2013-03-30 21:37:00,
2013-03-30 14:38:00,71.7,53.2,29.91,WSW,250,3.0,6.0,52,0.00,,SKC,0.00,VWS V13.01,2013-03-30 21:38:00,
2013-03-30 14:39:00,71.8,53.8,29.91,WSW,250,0.0,6.0,53,0.00,,SKC,0.00,VWS V13.01,2013-03-30 21:39:00,
2013-03-30 14:40:00,71.8,53.2,29.91,WSW,250,0.0,6.0,52,0.00,,SKC,0.00,VWS V13.01,2013-03-30 21:40:00,
2013-03-30 14:41:00,71.8,53.8,29.91,SSE,165,5.0,6.0,53,0.00,,SKC,0.00,VWS V13.01,2013-03-30 21:41:00,
2013-03-30 14:42:00,71.9,53.9,29.91,South,179,3.0,6.0,53,0.00,,SKC,0.00,VWS V13.01,2013-03-30 21:42:00,
2013-03-30 14:43:00,71.9,53.3,29.91,South,189,1.0,6.0,52,0.00,,SKC,0.00,VWS V13.01,2013-03-30 21:43:00,
2013-03-30 14:44:00,71.9,54.4,29.91,SSW,201,5.0,6.0,54,0.00,,SKC,0.00,VWS V13.01,2013-03-30 21:44:00,
2013-03-30 14:45:00,71.9,54.4,29.91,SSW,202,5.0,6.0,54,0.00,,SKC,0.00,VWS V13.01,2013-03-30 21:45:00,
2013-03-30 14:46:00,71.9,53.9,29.91,SSW,202,1.0,5.0,53,0.00,,SKC,0.00,VWS V13.01,2013-03-30 21:46:00,
2013-03-30 14:47:00,72.0,54.5,29.91,SW,221,3.0,7.0,54,0.00,,SKC,0.00,VWS V13.01,2013-03-30 21:47:00,
2013-03-30 14:48:00,71.9,53.3,29.91,SSW,198,3.0,7.0,52,0.00,,SKC,0.00,VWS V13.01,2013-03-30 21:48:00,
2013-03-30 14:49:00,72.0,54.0,29.91,SSW,198,0.0,7.0,53,0.00,,SKC,0.00,VWS V13.01,2013-03-30 21:49:00,
2013-03-30 14:50:00,71.9,53.3,29.91,SSW,198,5.0,7.0,52,0.00,,SKC,0.00,VWS V13.01,2013-03-30 21:50:00,
2013-03-30 14:51:00,71.9,53.9,29.91,SSW,197,3.0,6.0,53,0.00,,SKC,0.00,VWS V13.01,2013-03-30 21:51:00,
2013-03-30 14:52:00,71.9,53.3,29.91,SSW,197,0.0,6.0,52,0.00,,SKC,0.00,VWS V13.01,2013-03-30 21:52:00,
2013-03-30 14:53:00,71.8,53.8,29.91,SSW,197,0.0,6.0,53,0.00,,SKC,0.00,VWS V13.01,2013-03-30 21:53:00,
2013-03-30 14:54:00,71.8,53.2,29.91,SSW,197,2.0,6.0,52,0.00,,SKC,0.00,VWS V13.01,2013-03-30 21:54:00,
2013-03-30 14:55:00,71.8,53.8,29.91,SSW,198,3.0,6.0,53,0.00,,SKC,0.00,VWS V13.01,2013-03-30 21:55:00,
2013-03-30 14:56:00,71.8,53.8,29.91,SW,221,0.0,5.0,53,0.00,,SKC,0.00,VWS V13.01,2013-03-30 21:56:00,
2013-03-30 14:57:00,71.7,54.2,29.91,SW,220,4.0,5.0,54,0.00,,SKC,0.00,VWS V13.01,2013-03-30 21:57:00,
2013-03-30 14:58:00,71.7,53.7,29.91,SW,220,4.0,5.0,53,0.00,,SKC,0.00,VWS V13.01,2013-03-30 21:58:00,
2013-03-30 14:59:00,71.7,54.2,29.91,SW,220,3.0,5.0,54,0.00,,SKC,0.00,VWS V13.01,2013-03-30 21:59:00,
2013-03-30 15:00:00,71.6,53.6,29.91,SW,220,3.0,5.0,53,0.00,,SKC,0.00,VWS V13.01,2013-03-30 22:00:00,
2013-03-30 15:01:00,71.6,53.1,29.91,SW,220,0.0,4.0,52,0.00,,SKC,0.00,VWS V13.01,2013-03-30 22:01:00,
2013-03-30 15:02:00,71.6,53.6,29.91,South,189,5.0,5.0,53,0.00,,SKC,0.00,VWS V13.01,2013-03-30 22:02:00,
2013-03-30 15:03:00,71.5,54.0,29.91,SSW,200,5.0,6.0,54,0.00,,SKC,0.00,VWS V13.01,2013-03-30 22:03:00,
2013-03-30 15:04:00,71.5,53.5,29.91,South,190,0.0,6.0,53,0.00,,SKC,0.00,VWS V13.01,2013-03-30 22:04:00,
2013-03-30 15:05:00,71.5,53.5,29.91,South,190,4.0,6.0,53,0.00,,SKC,0.00,VWS V13.01,2013-03-30 22:05:00,
2013-03-30 15:06:00,71.5,53.5,29.91,SSW,192,0.0,5.0,53,0.00,,SKC,0.00,VWS V13.01,2013-03-30 22:06:00,
2013-03-30 15:07:00,71.5,54.0,29.91,SSW,192,0.0,5.0,54,0.00,,SKC,0.00,VWS V13.01,2013-03-30 22:07:00,
2013-03-30 15:08:00,71.5,53.5,29.91,SSW,192,4.0,5.0,53,0.00,,SKC,0.00,VWS V13.01,2013-03-30 22:08:00,
2013-03-30 15:09:00,71.6,53.6,29.91,SSW,192,0.0,5.0,53,0.00,,SKC,0.00,VWS V13.01,2013-03-30 22:09:00,
2013-03-30 15:10:00,71.7,54.2,29.91,SSW,192,3.0,5.0,54,0.00,,SKC,0.00,VWS V13.01,2013-03-30 22:10:00,
2013-03-30 15:11:00,71.8,53.8,29.91,South,191,0.0,3.0,53,0.00,,SKC,0.00,VWS V13.01,2013-03-30 22:11:00,
2013-03-30 15:12:00,71.9,53.9,29.91,South,191,3.0,3.0,53,0.00,,SKC,0.00,VWS V13.01,2013-03-30 22:12:00,
2013-03-30 15:13:00,71.9,53.9,29.91,SSW,195,6.0,6.0,53,0.00,,SKC,0.00,VWS V13.01,2013-03-30 22:13:00,
2013-03-30 15:14:00,72.1,54.0,29.91,SSW,194,3.0,6.0,53,0.00,,SKC,0.00,VWS V13.01,2013-03-30 22:14:00,
2013-03-30 15:15:00,72.1,54.0,29.91,SSW,194,3.0,6.0,53,0.00,,SKC,0.00,VWS V13.01,2013-03-30 22:15:00,
2013-03-30 15:16:00,72.1,53.5,29.91,SSW,195,3.0,4.0,52,0.00,,SKC,0.00,VWS V13.01,2013-03-30 22:16:00,
2013-03-30 15:17:00,72.1,53.5,29.91,South,175,4.0,4.0,52,0.00,,SKC,0.00,VWS V13.01,2013-03-30 22:17:00,
2013-03-30 15:18:00,72.2,53.6,29.91,South,170,0.0,4.0,52,0.00,,SKC,0.00,VWS V13.01,2013-03-30 22:18:00,
2013-03-30 15:19:00,72.2,54.1,29.91,South,170,0.0,4.0,53,0.00,,SKC,0.00,VWS V13.01,2013-03-30 22:19:00,
2013-03-30 15:20:00,72.2,54.1,29.91,South,170,0.0,4.0,53,0.00,,SKC,0.00,VWS V13.01,2013-03-30 22:20:00,
2013-03-30 15:21:00,72.2,54.1,29.91,South,169,1.0,3.0,53,0.00,,SKC,0.00,VWS V13.01,2013-03-30 22:21:00,
2013-03-30 15:22:00,72.2,53.6,29.91,SSE,168,1.0,4.0,52,0.00,,SKC,0.00,VWS V13.01,2013-03-30 22:22:00,
2013-03-30 15:23:00,72.2,54.1,29.91,SSE,165,1.0,5.0,53,0.00,,SKC,0.00,VWS V13.01,2013-03-30 22:23:00,
2013-03-30 15:24:00,72.2,53.1,29.91,SSE,166,0.0,5.0,51,0.00,,SKC,0.00,VWS V13.01,2013-03-30 22:24:00,
2013-03-30 15:25:00,72.2,53.6,29.91,SSE,166,0.0,5.0,52,0.00,,SKC,0.00,VWS V13.01,2013-03-30 22:25:00,
2013-03-30 15:26:00,72.3,54.2,29.91,SE,132,4.0,6.0,53,0.00,,SKC,0.00,VWS V13.01,2013-03-30 22:26:00,
2013-03-30 15:27:00,72.4,54.3,29.91,SE,137,1.0,6.0,53,0.00,,SKC,0.00,VWS V13.01,2013-03-30 22:27:00,
2013-03-30 15:28:00,72.5,53.9,29.91,SE,137,0.0,6.0,52,0.00,,SKC,0.00,VWS V13.01,2013-03-30 22:28:00,
2013-03-30 15:29:00,72.6,54.5,29.91,SE,137,0.0,6.0,53,0.00,,SKC,0.00,VWS V13.01,2013-03-30 22:29:00,
2013-03-30 15:30:00,72.6,54.0,29.91,SE,137,0.0,6.0,52,0.00,,SKC,0.00,VWS V13.01,2013-03-30 22:30:00,
2013-03-30 15:31:00,72.7,54.1,29.91,SE,137,0.0,4.0,52,0.00,,SKC,0.00,VWS V13.01,2013-03-30 22:31:00,
2013-03-30 15:32:00,72.8,54.2,29.91,SE,137,3.0,4.0,52,0.00,,SKC,0.00,VWS V13.01,2013-03-30 22:32:00,
2013-03-30 15:33:00,72.8,53.6,29.91,SE,136,1.0,4.0,51,0.00,,SKC,0.00,VWS V13.01,2013-03-30 22:33:00,
2013-03-30 15:34:00,72.8,53.6,29.91,SE,136,0.0,4.0,51,0.00,,SKC,0.00,VWS V13.01,2013-03-30 22:34:00,
2013-03-30 15:35:00,72.8,54.2,29.91,SE,136,0.0,4.0,52,0.00,,SKC,0.00,VWS V13.01,2013-03-30 22:35:00,
2013-03-30 15:36:00,72.8,53.6,29.91,SE,136,0.0,2.0,51,0.00,,SKC,0.00,VWS V13.01,2013-03-30 22:36:00,
2013-03-30 15:37:00,72.9,53.7,29.91,SE,136,0.0,2.0,51,0.00,,SKC,0.00,VWS V13.01,2013-03-30 22:37:00,
2013-03-30 15:38:00,73.0,54.4,29.91,SE,136,0.0,2.0,52,0.00,,SKC,0.00,VWS V13.01,2013-03-30 22:38:00,
2013-03-30 15:39:00,73.0,54.9,29.91,SE,141,1.0,5.0,53,0.00,,SKC,0.00,VWS V13.01,2013-03-30 22:39:00,
2013-03-30 15:40:00,73.1,55.0,29.91,South,176,0.0,5.0,53,0.00,,SKC,0.00,VWS V13.01,2013-03-30 22:40:00,
2013-03-30 15:41:00,73.1,55.0,29.91,SE,136,4.0,5.0,53,0.00,,SKC,0.00,VWS V13.01,2013-03-30 22:41:00,
2013-03-30 15:42:00,73.1,54.5,29.91,SE,136,2.0,5.0,52,0.00,,SKC,0.00,VWS V13.01,2013-03-30 22:42:00,
2013-03-30 15:43:00,73.1,54.5,29.91,SE,136,2.0,5.0,52,0.00,,SKC,0.00,VWS V13.01,2013-03-30 22:43:00,
2013-03-30 15:44:00,73.1,54.5,29.91,SE,136,0.0,5.0,52,0.00,,SKC,0.00,VWS V13.01,2013-03-30 22:44:00,
2013-03-30 15:45:00,73.0,54.4,29.91,South,180,5.0,5.0,52,0.00,,SKC,0.00,VWS V13.01,2013-03-30 22:45:00,
2013-03-30 15:46:00,73.0,53.8,29.91,South,180,2.0,5.0,51,0.00,,SKC,0.00,VWS V13.01,2013-03-30 22:46:00,
2013-03-30 15:47:00,72.9,53.7,29.91,South,180,0.0,5.0,51,0.00,,SKC,0.00,VWS V13.01,2013-03-30 22:47:00,
2013-03-30 15:48:00,72.9,53.7,29.91,South,180,0.0,5.0,51,0.00,,SKC,0.00,VWS V13.01,2013-03-30 22:48:00,
2013-03-30 15:49:00,72.9,53.7,29.90,South,180,0.0,5.0,51,0.00,,SKC,0.00,VWS V13.01,2013-03-30 22:49:00,
2013-03-30 15:50:00,72.9,54.3,29.90,South,180,0.0,5.0,52,0.00,,SKC,0.00,VWS V13.01,2013-03-30 22:50:00,
2013-03-30 15:51:00,73.0,54.9,29.90,SE,139,6.0,6.0,53,0.00,,SKC,0.00,VWS V13.01,2013-03-30 22:51:00,
2013-03-30 15:52:00,73.1,53.9,29.90,SE,137,3.0,6.0,51,0.00,,SKC,0.00,VWS V13.01,2013-03-30 22:52:00,
2013-03-30 15:53:00,73.1,54.5,29.90,SE,137,2.0,6.0,52,0.00,,SKC,0.00,VWS V13.01,2013-03-30 22:53:00,
2013-03-30 15:54:00,73.1,54.5,29.90,ESE,119,5.0,6.0,52,0.00,,SKC,0.00,VWS V13.01,2013-03-30 22:54:00,
2013-03-30 15:55:00,73.1,53.9,29.90,ESE,120,3.0,6.0,51,0.00,,SKC,0.00,VWS V13.01,2013-03-30 22:55:00,
2013-03-30 15:56:00,73.1,54.5,29.90,ESE,120,0.0,4.0,52,0.00,,SKC,0.00,VWS V13.01,2013-03-30 22:56:00,
2013-03-30 15:57:00,73.2,54.5,29.90,ESE,122,5.0,5.0,52,0.00,,SKC,0.00,VWS V13.01,2013-03-30 22:57:00,
2013-03-30 15:58:00,73.2,54.0,29.90,SE,138,3.0,6.0,51,0.00,,SKC,0.00,VWS V13.01,2013-03-30 22:58:00,
2013-03-30 15:59:00,73.3,54.1,29.90,SE,138,0.0,6.0,51,0.00,,SKC,0.00,VWS V13.01,2013-03-30 22:59:00,
2013-03-30 16:00:00,73.3,54.1,29.91,SE,138,0.0,6.0,51,0.00,,SKC,0.00,VWS V13.01,2013-03-30 23:00:00,
2013-03-30 16:01:00,73.3,54.1,29.91,SE,138,0.0,1.0,51,0.00,,SKC,0.00,VWS V13.01,2013-03-30 23:01:00,
2013-03-30 16:02:00,73.3,54.6,29.91,SE,138,0.0,2.0,52,0.00,,SKC,0.00,VWS V13.01,2013-03-30 23:02:00,
2013-03-30 16:03:00,73.4,54.7,29.91,SE,136,3.0,4.0,52,0.00,,SKC,0.00,VWS V13.01,2013-03-30 23:03:00,
2013-03-30 16:04:00,73.5,54.3,29.91,SE,134,4.0,5.0,51,0.00,,SKC,0.00,VWS V13.01,2013-03-30 23:04:00,
2013-03-30 16:05:00,73.5,54.3,29.90,ESE,121,3.0,5.0,51,0.00,,SKC,0.00,VWS V13.01,2013-03-30 23:05:00,
2013-03-30 16:06:00,73.5,54.8,29.90,ESE,122,4.0,5.0,52,0.00,,SKC,0.00,VWS V13.01,2013-03-30 23:06:00,
2013-03-30 16:07:00,73.6,54.4,29.90,ESE,123,3.0,5.0,51,0.00,,SKC,0.00,VWS V13.01,2013-03-30 23:07:00,
2013-03-30 16:08:00,73.6,54.4,29.90,ESE,110,3.0,5.0,51,0.00,,SKC,0.00,VWS V13.01,2013-03-30 23:08:00,
2013-03-30 16:09:00,73.6,54.4,29.90,ESE,115,3.0,5.0,51,0.00,,SKC,0.00,VWS V13.01,2013-03-30 23:09:00,
2013-03-30 16:10:00,73.6,54.4,29.90,ESE,115,0.0,5.0,51,0.00,,SKC,0.00,VWS V13.01,2013-03-30 23:10:00,
2013-03-30 16:11:00,73.6,53.8,29.90,ESE,120,5.0,5.0,50,0.00,,SKC,0.00,VWS V13.01,2013-03-30 23:11:00,
2013-03-30 16:12:00,73.6,54.4,29.90,ESE,113,3.0,6.0,51,0.00,,SKC,0.00,VWS V13.01,2013-03-30 23:12:00,
2013-03-30 16:13:00,73.6,53.8,29.90,East,83,3.0,6.0,50,0.00,,SKC,0.00,VWS V13.01,2013-03-30 23:13:00,
2013-03-30 16:14:00,73.6,53.8,29.90,East,93,5.0,6.0,50,0.00,,SKC,0.00,VWS V13.01,2013-03-30 23:14:00,
2013-03-30 16:15:00,73.5,53.7,29.90,ESE,121,4.0,6.0,50,0.00,,SKC,0.00,VWS V13.01,2013-03-30 23:15:00,
2013-03-30 16:16:00,73.5,53.7,29.90,ESE,121,0.0,4.0,50,0.00,,SKC,0.00,VWS V13.01,2013-03-30 23:16:00,
2013-03-30 16:17:00,73.5,53.7,29.90,ESE,121,0.0,4.0,50,0.00,,SKC,0.00,VWS V13.01,2013-03-30 23:17:00,
2013-03-30 16:18:00,73.5,54.3,29.90,ESE,121,0.0,4.0,51,0.00,,SKC,0.00,VWS V13.01,2013-03-30 23:18:00,
2013-03-30 16:19:00,73.5,53.7,29.90,ESE,121,0.0,4.0,50,0.00,,SKC,0.00,VWS V13.01,2013-03-30 23:19:00,
2013-03-30 16:20:00,73.5,53.2,29.90,ESE,121,0.0,0.0,49,0.00,,SKC,0.00,VWS V13.01,2013-03-30 23:20:00,
2013-03-30 16:21:00,73.5,53.7,29.90,ESE,121,0.0,0.0,50,0.00,,SKC,0.00,VWS V13.01,2013-03-30 23:21:00,
2013-03-30 16:22:00,73.5,53.2,29.90,ESE,121,4.0,5.0,49,0.00,,SKC,0.00,VWS V13.01,2013-03-30 23:22:00,
2013-03-30 16:23:00,73.5,53.2,29.90,ESE,121,3.0,5.0,49,0.00,,SKC,0.00,VWS V13.01,2013-03-30 23:23:00,
2013-03-30 16:24:00,73.5,53.2,29.90,ESE,121,0.0,5.0,49,0.00,,SKC,0.00,VWS V13.01,2013-03-30 23:24:00,
2013-03-30 16:25:00,73.5,53.7,29.90,ESE,121,0.0,5.0,50,0.00,,SKC,0.00,VWS V13.01,2013-03-30 23:25:00,
2013-03-30 16:26:00,73.5,54.3,29.90,ESE,121,0.0,2.0,51,0.00,,SKC,0.00,VWS V13.01,2013-03-30 23:26:00,
2013-03-30 16:27:00,73.5,53.7,29.90,ESE,121,0.0,4.0,50,0.00,,SKC,0.00,VWS V13.01,2013-03-30 23:27:00,
2013-03-30 16:28:00,73.5,53.7,29.90,ESE,121,0.0,4.0,50,0.00,,SKC,0.00,VWS V13.01,2013-03-30 23:28:00,
2013-03-30 16:29:00,73.5,53.7,29.90,ESE,121,0.0,4.0,50,0.00,,SKC,0.00,VWS V13.01,2013-03-30 23:29:00,
2013-03-30 16:30:00,73.6,53.3,29.90,ESE,121,0.0,0.0,49,0.00,,SKC,0.00,VWS V13.01,2013-03-30 23:30:00,
2013-03-30 16:31:00,73.6,53.3,29.90,ESE,121,0.0,0.0,49,0.00,,SKC,0.00,VWS V13.01,2013-03-30 23:31:00,
2013-03-30 16:32:00,73.7,53.4,29.90,ESE,121,2.0,3.0,49,0.00,,SKC,0.00,VWS V13.01,2013-03-30 23:32:00,
2013-03-30 16:33:00,73.8,54.0,29.89,ESE,121,0.0,3.0,50,0.00,,SKC,0.00,VWS V13.01,2013-03-30 23:33:00,
2013-03-30 16:34:00,74.0,53.7,29.90,ESE,121,0.0,3.0,49,0.00,,SKC,0.00,VWS V13.01,2013-03-30 23:34:00,
2013-03-30 16:35:00,74.1,53.7,29.90,ESE,121,0.0,3.0,49,0.00,,SKC,0.00,VWS V13.01,2013-03-30 23:35:00,
2013-03-30 16:36:00,74.2,53.8,29.89,ESE,121,0.0,0.0,49,0.00,,SKC,0.00,VWS V13.01,2013-03-30 23:36:00,
2013-03-30 16:37:00,74.3,53.9,29.89,ESE,121,0.0,4.0,49,0.00,,SKC,0.00,VWS V13.01,2013-03-30 23:37:00,
2013-03-30 16:38:00,74.5,54.7,29.89,ESE,121,0.0,4.0,50,0.00,,SKC,0.00,VWS V13.01,2013-03-30 23:38:00,
2013-03-30 16:39:00,74.6,54.2,29.89,ESE,121,3.0,4.0,49,0.00,,SKC,0.00,VWS V13.01,2013-03-30 23:39:00,
2013-03-30 16:40:00,74.6,54.8,29.89,ESE,121,0.0,4.0,50,0.00,,SKC,0.00,VWS V13.01,2013-03-30 23:40:00,
2013-03-30 16:41:00,74.6,54.2,29.89,SSE,147,4.0,5.0,49,0.00,,SKC,0.00,VWS V13.01,2013-03-30 23:41:00,
2013-03-30 16:42:00,74.6,53.6,29.89,SSE,150,3.0,5.0,48,0.00,,SKC,0.00,VWS V13.01,2013-03-30 23:42:00,
2013-03-30 16:43:00,74.5,53.5,29.89,SSE,150,0.0,5.0,48,0.00,,SKC,0.00,VWS V13.01,2013-03-30 23:43:00,
2013-03-30 16:44:00,74.5,53.5,29.89,SSE,150,1.0,5.0,48,0.00,,SKC,0.00,VWS V13.01,2013-03-30 23:44:00,
2013-03-30 16:45:00,74.4,53.5,29.89,SSE,150,0.0,5.0,48,0.00,,SKC,0.00,VWS V13.01,2013-03-30 23:45:00,
2013-03-30 16:46:00,74.3,53.4,29.89,SSE,150,0.0,0.0,48,0.00,,SKC,0.00,VWS V13.01,2013-03-30 23:46:00,
2013-03-30 16:47:00,74.2,53.8,29.89,SSE,150,0.0,0.0,49,0.00,,SKC,0.00,VWS V13.01,2013-03-30 23:47:00,
2013-03-30 16:48:00,74.2,53.3,29.89,SSE,150,0.0,0.0,48,0.00,,SKC,0.00,VWS V13.01,2013-03-30 23:48:00,
2013-03-30 16:49:00,74.1,53.2,29.89,SSE,150,0.0,0.0,48,0.00,,SKC,0.00,VWS V13.01,2013-03-30 23:49:00,
2013-03-30 16:50:00,74.1,53.7,29.89,SSE,150,0.0,0.0,49,0.00,,SKC,0.00,VWS V13.01,2013-03-30 23:50:00,
2013-03-30 16:51:00,74.1,53.7,29.89,SSE,150,0.0,0.0,49,0.00,,SKC,0.00,VWS V13.01,2013-03-30 23:51:00,
2013-03-30 16:52:00,74.1,53.7,29.89,SSE,150,0.0,0.0,49,0.00,,SKC,0.00,VWS V13.01,2013-03-30 23:52:00,
2013-03-30 16:53:00,74.1,53.2,29.89,SSE,150,0.0,0.0,48,0.00,,SKC,0.00,VWS V13.01,2013-03-30 23:53:00,
2013-03-30 16:54:00,74.1,53.7,29.89,SSE,150,0.0,0.0,49,0.00,,SKC,0.00,VWS V13.01,2013-03-30 23:54:00,
2013-03-30 16:55:00,74.0,53.7,29.89,SSE,150,0.0,0.0,49,0.00,,SKC,0.00,VWS V13.01,2013-03-30 23:55:00,
2013-03-30 16:56:00,74.1,53.7,29.89,SSE,150,0.0,0.0,49,0.00,,SKC,0.00,VWS V13.01,2013-03-30 23:56:00,
2013-03-30 16:57:00,74.1,53.7,29.89,SSE,150,0.0,0.0,49,0.00,,SKC,0.00,VWS V13.01,2013-03-30 23:57:00,
2013-03-30 16:58:00,74.1,54.3,29.89,SSE,150,0.0,0.0,50,0.00,,SKC,0.00,VWS V13.01,2013-03-30 23:58:00,
2013-03-30 16:59:00,74.2,53.8,29.89,SSE,150,0.0,3.0,49,0.00,,SKC,0.00,VWS V13.01,2013-03-30 23:59:00,
2013-03-30 17:00:00,74.2,54.4,29.89,SSE,150,0.0,3.0,50,0.00,,SKC,0.00,VWS V13.01,2013-03-31 00:00:00,
2013-03-30 17:01:00,74.2,53.8,29.88,SSE,152,2.0,4.0,49,0.00,,SKC,0.00,VWS V13.01,2013-03-31 00:01:00,
2013-03-30 17:02:00,74.1,53.2,29.89,SSE,152,0.0,4.0,48,0.00,,SKC,0.00,VWS V13.01,2013-03-31 00:02:00,
2013-03-30 17:03:00,74.0,53.1,29.89,SSE,151,0.0,4.0,48,0.00,,SKC,0.00,VWS V13.01,2013-03-31 00:03:00,
2013-03-30 17:04:00,73.9,53.0,29.88,SSE,151,0.0,4.0,48,0.00,,SKC,0.00,VWS V13.01,2013-03-31 00:04:00,
2013-03-30 17:05:00,73.9,53.6,29.88,SSE,151,3.0,4.0,49,0.00,,SKC,0.00,VWS V13.01,2013-03-31 00:05:00,
2013-03-30 17:06:00,73.9,53.6,29.88,SSE,151,0.0,3.0,49,0.00,,SKC,0.00,VWS V13.01,2013-03-31 00:06:00,
2013-03-30 17:07:00,73.8,54.0,29.88,SSE,152,1.0,3.0,50,0.00,,SKC,0.00,VWS V13.01,2013-03-31 00:07:00,
2013-03-30 17:08:00,73.7,53.9,29.88,SSE,151,0.0,3.0,50,0.00,,SKC,0.00,VWS V13.01,2013-03-31 00:08:00,
2013-03-30 17:09:00,73.7,53.9,29.88,NNW,346,5.0,5.0,50,0.00,,SKC,0.00,VWS V13.01,2013-03-31 00:09:00,
2013-03-30 17:10:00,73.7,54.5,29.88,North,355,3.0,6.0,51,0.00,,SKC,0.00,VWS V13.01,2013-03-31 00:10:00,
2013-03-30 17:11:00,73.7,54.5,29.88,NNW,344,4.0,4.0,51,0.00,,SKC,0.00,VWS V13.01,2013-03-31 00:11:00,
2013-03-30 17:12:00,73.6,52.7,29.88,NW,312,0.0,8.0,48,0.00,,SKC,0.00,VWS V13.01,2013-03-31 00:12:00,
2013-03-30 17:13:00,73.6,53.3,29.88,NW,312,0.0,8.0,49,0.00,,SKC,0.00,VWS V13.01,2013-03-31 00:13:00,
2013-03-30 17:14:00,73.5,52.6,29.89,WNW,284,3.0,10.0,48,0.00,,SKC,0.00,VWS V13.01,2013-03-31 00:14:00,
2013-03-30 17:15:00,73.5,52.6,29.89,WNW,284,0.0,10.0,48,0.00,,SKC,0.00,VWS V13.01,2013-03-31 00:15:00,
2013-03-30 17:16:00,73.4,52.5,29.89,WNW,284,2.0,4.0,48,0.00,,SKC,0.00,VWS V13.01,2013-03-31 00:16:00,
2013-03-30 17:17:00,73.4,52.5,29.89,WNW,288,5.0,6.0,48,0.00,,SKC,0.00,VWS V13.01,2013-03-31 00:17:00,
2013-03-30 17:18:00,73.3,53.0,29.88,WNW,296,9.0,10.0,49,0.00,,SKC,0.00,VWS V13.01,2013-03-31 00:18:00,
2013-03-30 17:19:00,73.2,53.5,29.88,NW,319,4.0,10.0,50,0.00,,SKC,0.00,VWS V13.01,2013-03-31 00:19:00,
2013-03-30 17:20:00,73.2,53.5,29.88,NW,319,4.0,10.0,50,0.00,,SKC,0.00,VWS V13.01,2013-03-31 00:20:00,
2013-03-30 17:21:00,73.1,53.4,29.88,NW,321,5.0,6.0,50,0.00,,SKC,0.00,VWS V13.01,2013-03-31 00:21:00,
2013-03-30 17:22:00,73.1,53.9,29.88,NW,320,0.0,6.0,51,0.00,,SKC,0.00,VWS V13.01,2013-03-31 00:22:00,
2013-03-30 17:23:00,73.0,53.3,29.88,NW,319,2.0,7.0,50,0.00,,SKC,0.00,VWS V13.01,2013-03-31 00:23:00,
2013-03-30 17:24:00,72.9,53.2,29.88,NW,310,4.0,7.0,50,0.00,,SKC,0.00,VWS V13.01,2013-03-31 00:24:00,
2013-03-30 17:25:00,72.9,53.2,29.88,WNW,287,6.0,9.0,50,0.00,,SKC,0.00,VWS V13.01,2013-03-31 00:25:00,
2013-03-30 17:26:00,72.8,53.1,29.88,NNW,348,4.0,9.0,50,0.00,,SKC,0.00,VWS V13.01,2013-03-31 00:26:00,
2013-03-30 17:27:00,72.7,53.5,29.88,NNW,348,0.0,9.0,51,0.00,,SKC,0.00,VWS V13.01,2013-03-31 00:27:00,
2013-03-30 17:28:00,72.7,53.5,29.88,NW,314,3.0,9.0,51,0.00,,SKC,0.00,VWS V13.01,2013-03-31 00:28:00,
2013-03-30 17:29:00,72.6,53.5,29.88,WNW,301,2.0,9.0,51,0.00,,SKC,0.00,VWS V13.01,2013-03-31 00:29:00,
2013-03-30 17:30:00,72.6,53.5,29.88,WNW,301,0.0,9.0,51,0.00,,SKC,0.00,VWS V13.01,2013-03-31 00:30:00,
2013-03-30 17:31:00,72.6,53.5,29.88,NNW,332,5.0,10.0,51,0.00,,SKC,0.00,VWS V13.01,2013-03-31 00:31:00,
2013-03-30 17:32:00,72.5,52.8,29.88,NW,306,1.0,10.0,50,0.00,,SKC,0.00,VWS V13.01,2013-03-31 00:32:00,
2013-03-30 17:33:00,72.4,52.7,29.88,NNW,338,5.0,10.0,50,0.00,,SKC,0.00,VWS V13.01,2013-03-31 00:33:00,
2013-03-30 17:34:00,72.4,52.7,29.88,NW,319,0.0,10.0,50,0.00,,SKC,0.00,VWS V13.01,2013-03-31 00:34:00,
2013-03-30 17:35:00,72.4,52.7,29.88,NNE,19,0.0,10.0,50,0.00,,SKC,0.00,VWS V13.01,2013-03-31 00:35:00,
2013-03-30 17:36:00,72.4,53.3,29.88,North,9,0.0,1.0,51,0.00,,SKC,0.00,VWS V13.01,2013-03-31 00:36:00,
2013-03-30 17:37:00,72.3,53.7,29.88,North,9,0.0,3.0,52,0.00,,SKC,0.00,VWS V13.01,2013-03-31 00:37:00,
2013-03-30 17:38:00,72.3,53.2,29.88,North,355,1.0,10.0,51,0.00,,SKC,0.00,VWS V13.01,2013-03-31 00:38:00,
2013-03-30 17:39:00,72.2,53.1,29.89,NNW,336,1.0,10.0,51,0.00,,SKC,0.00,VWS V13.01,2013-03-31 00:39:00,
2013-03-30 17:40:00,72.2,53.1,29.88,NW,315,4.0,10.0,51,0.00,,SKC,0.00,VWS V13.01,2013-03-31 00:40:00,
2013-03-30 17:41:00,72.1,52.5,29.88,NW,312,6.0,7.0,50,0.00,,SKC,0.00,VWS V13.01,2013-03-31 00:41:00,
2013-03-30 17:42:00,72.0,52.9,29.89,WNW,296,2.0,7.0,51,0.00,,SKC,0.00,VWS V13.01,2013-03-31 00:42:00,
2013-03-30 17:43:00,72.0,52.9,29.89,NNW,339,3.0,7.0,51,0.00,,SKC,0.00,VWS V13.01,2013-03-31 00:43:00,
2013-03-30 17:44:00,71.9,52.8,29.89,NNW,337,1.0,7.0,51,0.00,,SKC,0.00,VWS V13.01,2013-03-31 00:44:00,
2013-03-30 17:45:00,71.9,52.8,29.89,NNW,337,5.0,7.0,51,0.00,,SKC,0.00,VWS V13.01,2013-03-31 00:45:00,
2013-03-30 17:46:00,71.8,52.7,29.89,NNW,339,4.0,7.0,51,0.00,,SKC,0.00,VWS V13.01,2013-03-31 00:46:00,
2013-03-30 17:47:00,71.7,52.6,29.89,NW,317,2.0,7.0,51,0.00,,SKC,0.00,VWS V13.01,2013-03-31 00:47:00,
2013-03-30 17:48:00,71.7,52.1,29.89,NW,323,5.0,7.0,50,0.00,,SKC,0.00,VWS V13.01,2013-03-31 00:48:00,
2013-03-30 17:49:00,71.6,52.5,29.89,West,268,1.0,7.0,51,0.00,,SKC,0.00,VWS V13.01,2013-03-31 00:49:00,
2013-03-30 17:50:00,71.5,51.9,29.89,NW,311,4.0,7.0,50,0.00,,SKC,0.00,VWS V13.01,2013-03-31 00:50:00,
2013-03-30 17:51:00,71.4,52.3,29.89,WNW,302,6.0,7.0,51,0.00,,SKC,0.00,VWS V13.01,2013-03-31 00:51:00,
2013-03-30 17:52:00,71.3,51.7,29.89,WNW,302,1.0,7.0,50,0.00,,SKC,0.00,VWS V13.01,2013-03-31 00:52:00,
2013-03-30 17:53:00,71.3,52.3,29.89,WNW,303,0.0,7.0,51,0.00,,SKC,0.00,VWS V13.01,2013-03-31 00:53:00,
2013-03-30 17:54:00,71.2,52.2,29.89,NW,313,2.0,7.0,51,0.00,,SKC,0.00,VWS V13.01,2013-03-31 00:54:00,
2013-03-30 17:55:00,71.2,52.2,29.89,NW,313,0.0,7.0,51,0.00,,SKC,0.00,VWS V13.01,2013-03-31 00:55:00,
2013-03-30 17:56:00,71.1,52.6,29.89,NW,313,0.0,0.0,52,0.00,,SKC,0.00,VWS V13.01,2013-03-31 00:56:00,
2013-03-30 17:57:00,71.1,52.1,29.89,NW,313,0.0,0.0,51,0.00,,SKC,0.00,VWS V13.01,2013-03-31 00:57:00,
2013-03-30 17:58:00,71.1,52.1,29.89,NW,313,2.0,3.0,51,0.00,,SKC,0.00,VWS V13.01,2013-03-31 00:58:00,
2013-03-30 17:59:00,71.0,52.5,29.89,North,355,4.0,8.0,52,0.00,,SKC,0.00,VWS V13.01,2013-03-31 00:59:00,
2013-03-30 18:00:00,71.0,52.0,29.89,North,355,0.0,8.0,51,0.00,,SKC,0.00,VWS V13.01,2013-03-31 01:00:00,
2013-03-30 18:01:00,70.9,51.9,29.90,WNW,288,0.0,8.0,51,0.00,,SKC,0.00,VWS V13.01,2013-03-31 01:01:00,
2013-03-30 18:02:00,70.8,51.8,29.89,NW,314,1.0,8.0,51,0.00,,SKC,0.00,VWS V13.01,2013-03-31 01:02:00,
2013-03-30 18:03:00,70.8,51.8,29.89,NW,320,3.0,8.0,51,0.00,,SKC,0.00,VWS V13.01,2013-03-31 01:03:00,
2013-03-30 18:04:00,70.7,51.7,29.89,NW,317,5.0,8.0,51,0.00,,SKC,0.00,VWS V13.01,2013-03-31 01:04:00,
2013-03-30 18:05:00,70.7,51.2,29.89,NW,307,2.0,8.0,50,0.00,,SKC,0.00,VWS V13.01,2013-03-31 01:05:00,
2013-03-30 18:06:00,70.6,51.6,29.89,NW,307,0.0,3.0,51,0.00,,SKC,0.00,VWS V13.01,2013-03-31 01:06:00,
2013-03-30 18:07:00,70.6,51.6,29.90,West,280,0.0,4.0,51,0.00,,SKC,0.00,VWS V13.01,2013-03-31 01:07:00,
2013-03-30 18:08:00,70.5,51.5,29.90,WNW,298,4.0,7.0,51,0.00,,SKC,0.00,VWS V13.01,2013-03-31 01:08:00,
2013-03-30 18:09:00,70.4,51.4,29.89,WNW,300,6.0,7.0,51,0.00,,SKC,0.00,VWS V13.01,2013-03-31 01:09:00,
2013-03-30 18:10:00,70.4,51.4,29.89,WNW,298,0.0,7.0,51,0.00,,SKC,0.00,VWS V13.01,2013-03-31 01:10:00,
2013-03-30 18:11:00,70.4,51.4,29.89,WNW,292,4.0,4.0,51,0.00,,SKC,0.00,VWS V13.01,2013-03-31 01:11:00,
2013-03-30 18:12:00,70.3,51.3,29.89,WNW,300,0.0,7.0,51,0.00,,SKC,0.00,VWS V13.01,2013-03-31 01:12:00,
2013-03-30 18:13:00,70.3,51.9,29.89,NNW,340,5.0,7.0,52,0.00,,SKC,0.00,VWS V13.01,2013-03-31 01:13:00,
2013-03-30 18:14:00,70.2,51.2,29.89,NW,313,4.0,7.0,51,0.00,,SKC,0.00,VWS V13.01,2013-03-31 01:14:00,
2013-03-30 18:15:00,70.2,51.2,29.89,NW,324,0.0,7.0,51,0.00,,SKC,0.00,VWS V13.01,2013-03-31 01:15:00,
2013-03-30 18:16:00,70.1,51.7,29.89,NW,324,0.0,3.0,52,0.00,,SKC,0.00,VWS V13.01,2013-03-31 01:16:00,
2013-03-30 18:17:00,70.0,51.6,29.89,WNW,298,5.0,5.0,52,0.00,,SKC,0.00,VWS V13.01,2013-03-31 01:17:00,
2013-03-30 18:18:00,70.0,51.6,29.89,NW,306,5.0,5.0,52,0.00,,SKC,0.00,VWS V13.01,2013-03-31 01:18:00,
2013-03-30 18:19:00,69.9,51.5,29.89,NW,304,6.0,6.0,52,0.00,,SKC,0.00,VWS V13.01,2013-03-31 01:19:00,
2013-03-30 18:20:00,69.8,51.4,29.89,WNW,303,4.0,6.0,52,0.00,,SKC,0.00,VWS V13.01,2013-03-31 01:20:00,
2013-03-30 18:21:00,69.8,51.4,29.89,West,266,0.0,6.0,52,0.00,,SKC,0.00,VWS V13.01,2013-03-31 01:21:00,
2013-03-30 18:22:00,69.7,51.3,29.89,WNW,291,0.0,6.0,52,0.00,,SKC,0.00,VWS V13.01,2013-03-31 01:22:00,
2013-03-30 18:23:00,69.7,51.8,29.89,NW,313,3.0,6.0,53,0.00,,SKC,0.00,VWS V13.01,2013-03-31 01:23:00,
2013-03-30 18:24:00,69.5,51.6,29.89,NW,313,1.0,6.0,53,0.00,,SKC,0.00,VWS V13.01,2013-03-31 01:24:00,
2013-03-30 18:25:00,69.5,51.6,29.89,NW,313,2.0,6.0,53,0.00,,SKC,0.00,VWS V13.01,2013-03-31 01:25:00,
2013-03-30 18:26:00,69.5,51.6,29.89,NW,313,0.0,3.0,53,0.00,,SKC,0.00,VWS V13.01,2013-03-31 01:26:00,
2013-03-30 18:27:00,69.5,51.6,29.89,NW,313,0.0,3.0,53,0.00,,SKC,0.00,VWS V13.01,2013-03-31 01:27:00,
2013-03-30 18:28:00,69.4,51.5,29.90,WNW,284,2.0,4.0,53,0.00,,SKC,0.00,VWS V13.01,2013-03-31 01:28:00,
2013-03-30 18:29:00,69.4,51.5,29.90,WNW,284,2.0,4.0,53,0.00,,SKC,0.00,VWS V13.01,2013-03-31 01:29:00,
2013-03-30 18:30:00,69.3,51.5,29.90,NW,313,9.0,9.0,53,0.00,,SKC,0.00,VWS V13.01,2013-03-31 01:30:00,
2013-03-30 18:31:00,69.2,51.4,29.90,WNW,302,5.0,9.0,53,0.00,,SKC,0.00,VWS V13.01,2013-03-31 01:31:00,
2013-03-30 18:32:00,69.2,51.4,29.90,WNW,296,5.0,9.0,53,0.00,,SKC,0.00,VWS V13.01,2013-03-31 01:32:00,
2013-03-30 18:33:00,69.1,51.3,29.90,NW,305,0.0,9.0,53,0.00,,SKC,0.00,VWS V13.01,2013-03-31 01:33:00,
2013-03-30 18:34:00,69.0,51.2,29.90,NW,305,0.0,9.0,53,0.00,,SKC,0.00,VWS V13.01,2013-03-31 01:34:00,
2013-03-30 18:35:00,69.0,51.2,29.89,NW,305,1.0,9.0,53,0.00,,SKC,0.00,VWS V13.01,2013-03-31 01:35:00,
2013-03-30 18:36:00,68.9,51.6,29.90,NW,305,1.0,3.0,54,0.00,,SKC,0.00,VWS V13.01,2013-03-31 01:36:00,
2013-03-30 18:37:00,68.8,51.5,29.90,WNW,298,3.0,3.0,54,0.00,,SKC,0.00,VWS V13.01,2013-03-31 01:37:00,
2013-03-30 18:38:00,68.7,51.4,29.90,West,281,3.0,6.0,54,0.00,,SKC,0.00,VWS V13.01,2013-03-31 01:38:00,
2013-03-30 18:39:00,68.7,50.9,29.90,West,281,0.0,6.0,53,0.00,,SKC,0.00,VWS V13.01,2013-03-31 01:39:00,
2013-03-30 18:40:00,68.6,51.3,29.90,WNW,289,0.0,6.0,54,0.00,,SKC,0.00,VWS V13.01,2013-03-31 01:40:00,
2013-03-30 18:41:00,68.5,51.2,29.90,NW,309,6.0,6.0,54,0.00,,SKC,0.00,VWS V13.01,2013-03-31 01:41:00,
2013-03-30 18:42:00,68.5,51.2,29.90,WNW,293,3.0,6.0,54,0.00,,SKC,0.00,VWS V13.01,2013-03-31 01:42:00,
2013-03-30 18:43:00,68.4,51.1,29.90,NW,311,0.0,6.0,54,0.00,,SKC,0.00,VWS V13.01,2013-03-31 01:43:00,
2013-03-30 18:44:00,68.3,51.0,29.90,NW,306,1.0,6.0,54,0.00,,SKC,0.00,VWS V13.01,2013-03-31 01:44:00,
2013-03-30 18:45:00,68.3,51.0,29.90,NW,306,0.0,6.0,54,0.00,,SKC,0.00,VWS V13.01,2013-03-31 01:45:00,
2013-03-30 18:46:00,68.3,51.0,29.90,NW,306,0.0,0.0,54,0.00,,SKC,0.00,VWS V13.01,2013-03-31 01:46:00,
2013-03-30 18:47:00,68.2,50.9,29.90,NW,306,0.0,0.0,54,0.00,,SKC,0.00,VWS V13.01,2013-03-31 01:47:00,
2013-03-30 18:48:00,68.2,50.4,29.90,NW,306,0.0,3.0,53,0.00,,SKC,0.00,VWS V13.01,2013-03-31 01:48:00,
2013-03-30 18:49:00,68.1,50.3,29.90,WNW,295,6.0,6.0,53,0.00,,SKC,0.00,VWS V13.01,2013-03-31 01:49:00,
2013-03-30 18:50:00,68.0,50.8,29.90,NW,325,3.0,6.0,54,0.00,,SKC,0.00,VWS V13.01,2013-03-31 01:50:00,
2013-03-30 18:51:00,68.0,50.2,29.90,North,355,2.0,4.0,53,0.00,,SKC,0.00,VWS V13.01,2013-03-31 01:51:00,
2013-03-30 18:52:00,67.9,49.7,29.90,NNW,341,2.0,4.0,52,0.00,,SKC,0.00,VWS V13.01,2013-03-31 01:52:00,
2013-03-30 18:53:00,67.8,49.5,29.90,NNW,344,5.0,6.0,52,0.00,,SKC,0.00,VWS V13.01,2013-03-31 01:53:00,
2013-03-30 18:54:00,67.7,49.5,29.90,NNW,338,0.0,6.0,52,0.00,,SKC,0.00,VWS V13.01,2013-03-31 01:54:00,
2013-03-30 18:55:00,67.7,49.5,29.90,NNW,338,0.0,6.0,52,0.00,,SKC,0.00,VWS V13.01,2013-03-31 01:55:00,
2013-03-30 18:56:00,67.6,49.9,29.91,NNW,338,0.0,0.0,53,0.00,,SKC,0.00,VWS V13.01,2013-03-31 01:56:00,
2013-03-30 18:57:00,67.6,49.4,29.91,NNW,342,5.0,5.0,52,0.00,,SKC,0.00,VWS V13.01,2013-03-31 01:57:00,
2013-03-30 18:58:00,67.5,48.8,29.91,NNW,348,0.0,6.0,51,0.00,,SKC,0.00,VWS V13.01,2013-03-31 01:58:00,
2013-03-30 18:59:00,67.4,49.2,29.91,NW,321,2.0,6.0,52,0.00,,SKC,0.00,VWS V13.01,2013-03-31 01:59:00,
2013-03-30 19:00:00,67.4,48.7,29.91,NW,321,0.0,6.0,51,0.00,,SKC,0.00,VWS V13.01,2013-03-31 02:00:00,
2013-03-30 19:01:00,67.3,48.6,29.90,North,350,2.0,4.0,51,0.00,,SKC,0.00,VWS V13.01,2013-03-31 02:01:00,
2013-03-30 19:02:00,67.3,49.1,29.90,NNW,332,3.0,6.0,52,0.00,,SKC,0.00,VWS V13.01,2013-03-31 02:02:00,
2013-03-30 19:03:00,67.2,49.0,29.90,North,355,0.0,6.0,52,0.00,,SKC,0.00,VWS V13.01,2013-03-31 02:03:00,
2013-03-30 19:04:00,67.1,48.9,29.90,North,355,0.0,6.0,52,0.00,,SKC,0.00,VWS V13.01,2013-03-31 02:04:00,
2013-03-30 19:05:00,67.1,48.9,29.90,North,355,1.0,6.0,52,0.00,,SKC,0.00,VWS V13.01,2013-03-31 02:05:00,
2013-03-30 19:06:00,67.0,48.8,29.90,North,355,2.0,4.0,52,0.00,,SKC,0.00,VWS V13.01,2013-03-31 02:06:00,
2013-03-30 19:07:00,66.9,48.2,29.90,North,355,0.0,4.0,51,0.00,,SKC,0.00,VWS V13.01,2013-03-31 02:07:00,
2013-03-30 19:08:00,66.9,48.7,29.89,North,355,0.0,4.0,52,0.00,,SKC,0.00,VWS V13.01,2013-03-31 02:08:00,
2013-03-30 19:09:00,66.8,48.6,29.89,North,355,0.0,4.0,52,0.00,,SKC,0.00,VWS V13.01,2013-03-31 02:09:00,
2013-03-30 19:10:00,66.8,48.6,29.89,North,355,0.0,4.0,52,0.00,,SKC,0.00,VWS V13.01,2013-03-31 02:10:00,
2013-03-30 19:11:00,66.7,48.5,29.89,North,355,0.0,0.0,52,0.00,,SKC,0.00,VWS V13.01,2013-03-31 02:11:00,
2013-03-30 19:12:00,66.7,48.5,29.89,North,355,0.0,0.0,52,0.00,,SKC,0.00,VWS V13.01,2013-03-31 02:12:00,
2013-03-30 19:13:00,66.6,48.4,29.89,NNE,18,1.0,4.0,52,0.00,,SKC,0.00,VWS V13.01,2013-03-31 02:13:00,
2013-03-30 19:14:00,66.5,48.3,29.89,NNE,18,0.0,4.0,52,0.00,,SKC,0.00,VWS V13.01,2013-03-31 02:14:00,
2013-03-30 19:15:00,66.5,48.3,29.89,NNE,18,2.0,4.0,52,0.00,,SKC,0.00,VWS V13.01,2013-03-31 02:15:00,
2013-03-30 19:16:00,66.4,48.3,29.89,NNE,18,0.0,3.0,52,0.00,,SKC,0.00,VWS V13.01,2013-03-31 02:16:00,
2013-03-30 19:17:00,66.3,47.7,29.90,NNE,18,0.0,3.0,51,0.00,,SKC,0.00,VWS V13.01,2013-03-31 02:17:00,
2013-03-30 19:18:00,66.3,48.2,29.90,NNE,18,0.0,3.0,52,0.00,,SKC,0.00,VWS V13.01,2013-03-31 02:18:00,
2013-03-30 19:19:00,66.3,47.7,29.90,NNE,18,0.0,3.0,51,0.00,,SKC,0.00,VWS V13.01,2013-03-31 02:19:00,
2013-03-30 19:20:00,66.2,48.1,29.90,NNE,18,0.0,3.0,52,0.00,,SKC,0.00,VWS V13.01,2013-03-31 02:20:00,
2013-03-30 19:21:00,66.2,48.1,29.90,NNE,18,0.0,0.0,52,0.00,,SKC,0.00,VWS V13.01,2013-03-31 02:21:00,
2013-03-30 19:22:00,66.1,48.0,29.90,NNE,18,2.0,3.0,52,0.00,,SKC,0.00,VWS V13.01,2013-03-31 02:22:00,
2013-03-30 19:23:00,66.1,48.0,29.90,NNE,18,0.0,3.0,52,0.00,,SKC,0.00,VWS V13.01,2013-03-31 02:23:00,
2013-03-30 19:24:00,65.9,48.3,29.90,NNE,18,0.0,3.0,53,0.00,,SKC,0.00,VWS V13.01,2013-03-31 02:24:00,
2013-03-30 19:25:00,65.9,48.3,29.90,NNE,18,0.0,3.0,53,0.00,,SKC,0.00,VWS V13.01,2013-03-31 02:25:00,
2013-03-30 19:26:00,65.9,48.8,29.90,NNE,18,0.0,0.0,54,0.00,,SKC,0.00,VWS V13.01,2013-03-31 02:26:00,
2013-03-30 19:27:00,65.8,48.7,29.90,NNE,18,0.0,0.0,54,0.00,,SKC,0.00,VWS V13.01,2013-03-31 02:27:00,
2013-03-30 19:28:00,65.7,48.1,29.90,NNE,18,0.0,0.0,53,0.00,,SKC,0.00,VWS V13.01,2013-03-31 02:28:00,
2013-03-30 19:29:00,65.6,48.5,29.90,NNE,18,0.0,0.0,54,0.00,,SKC,0.00,VWS V13.01,2013-03-31 02:29:00,
2013-03-30 19:30:00,65.6,48.0,29.90,NNE,18,0.0,0.0,53,0.00,,SKC,0.00,VWS V13.01,2013-03-31 02:30:00,
2013-03-30 19:31:00,65.5,48.4,29.90,NNE,18,1.0,2.0,54,0.00,,SKC,0.00,VWS V13.01,2013-03-31 02:31:00,
2013-03-30 19:32:00,65.4,48.3,29.90,NNE,18,0.0,2.0,54,0.00,,SKC,0.00,VWS V13.01,2013-03-31 02:32:00,
2013-03-30 19:33:00,65.4,47.8,29.90,NNE,18,0.0,2.0,53,0.00,,SKC,0.00,VWS V13.01,2013-03-31 02:33:00,
2013-03-30 19:34:00,65.3,47.8,29.90,NNE,18,0.0,2.0,53,0.00,,SKC,0.00,VWS V13.01,2013-03-31 02:34:00,
2013-03-30 19:35:00,65.3,47.8,29.90,NNE,18,0.0,2.0,53,0.00,,SKC,0.00,VWS V13.01,2013-03-31 02:35:00,
2013-03-30 19:36:00,65.2,48.2,29.90,NNE,18,0.0,0.0,54,0.00,,SKC,0.00,VWS V13.01,2013-03-31 02:36:00,
2013-03-30 19:37:00,65.2,49.1,29.90,NNE,18,0.0,0.0,56,0.00,,SKC,0.00,VWS V13.01,2013-03-31 02:37:00,
2013-03-30 19:38:00,65.1,48.1,29.90,NNE,18,0.0,0.0,54,0.00,,SKC,0.00,VWS V13.01,2013-03-31 02:38:00,
2013-03-30 19:39:00,65.1,48.1,29.90,NNE,18,0.0,0.0,54,0.00,,SKC,0.00,VWS V13.01,2013-03-31 02:39:00,
2013-03-30 19:40:00,65.0,48.0,29.90,NNE,18,0.0,0.0,54,0.00,,SKC,0.00,VWS V13.01,2013-03-31 02:40:00,
2013-03-30 19:41:00,65.0,48.0,29.90,NNE,18,0.0,0.0,54,0.00,,SKC,0.00,VWS V13.01,2013-03-31 02:41:00,
2013-03-30 19:42:00,65.0,48.0,29.90,NNE,18,0.0,0.0,54,0.00,,SKC,0.00,VWS V13.01,2013-03-31 02:42:00,
2013-03-30 19:43:00,64.9,47.9,29.90,NNE,18,0.0,0.0,54,0.00,,SKC,0.00,VWS V13.01,2013-03-31 02:43:00,
2013-03-30 19:44:00,64.9,47.9,29.90,NNE,18,0.0,0.0,54,0.00,,SKC,0.00,VWS V13.01,2013-03-31 02:44:00,
2013-03-30 19:45:00,64.8,47.8,29.90,NNE,18,0.0,0.0,54,0.00,,SKC,0.00,VWS V13.01,2013-03-31 02:45:00,
2013-03-30 19:46:00,64.8,47.8,29.90,NNE,18,0.0,0.0,54,0.00,,SKC,0.00,VWS V13.01,2013-03-31 02:46:00,
2013-03-30 19:47:00,64.8,47.8,29.90,NNE,18,0.0,0.0,54,0.00,,SKC,0.00,VWS V13.01,2013-03-31 02:47:00,
2013-03-30 19:48:00,64.8,48.3,29.90,NNE,18,0.0,0.0,55,0.00,,SKC,0.00,VWS V13.01,2013-03-31 02:48:00,
2013-03-30 19:49:00,64.7,49.1,29.90,NNE,18,0.0,0.0,57,0.00,,SKC,0.00,VWS V13.01,2013-03-31 02:49:00,
2013-03-30 19:50:00,64.7,48.7,29.90,NNE,18,0.0,0.0,56,0.00,,SKC,0.00,VWS V13.01,2013-03-31 02:50:00,
2013-03-30 19:51:00,64.6,48.6,29.90,NNE,18,0.0,0.0,56,0.00,,SKC,0.00,VWS V13.01,2013-03-31 02:51:00,
2013-03-30 19:52:00,64.5,48.5,29.90,NNE,18,0.0,0.0,56,0.00,,SKC,0.00,VWS V13.01,2013-03-31 02:52:00,
2013-03-30 19:53:00,64.4,48.4,29.91,NNE,18,0.0,0.0,56,0.00,,SKC,0.00,VWS V13.01,2013-03-31 02:53:00,
2013-03-30 19:54:00,64.4,48.4,29.90,NNE,18,0.0,0.0,56,0.00,,SKC,0.00,VWS V13.01,2013-03-31 02:54:00,
2013-03-30 19:55:00,64.3,48.3,29.90,NNE,18,0.0,0.0,56,0.00,,SKC,0.00,VWS V13.01,2013-03-31 02:55:00,
2013-03-30 19:56:00,64.3,48.8,29.90,NNE,18,0.0,0.0,57,0.00,,SKC,0.00,VWS V13.01,2013-03-31 02:56:00,
2013-03-30 19:57:00,64.2,49.1,29.90,NNE,18,0.0,0.0,58,0.00,,SKC,0.00,VWS V13.01,2013-03-31 02:57:00,
2013-03-30 19:58:00,64.2,49.6,29.90,NNE,18,0.0,0.0,59,0.00,,SKC,0.00,VWS V13.01,2013-03-31 02:58:00,
2013-03-30 19:59:00,64.1,50.0,29.90,NNE,18,0.0,0.0,60,0.00,,SKC,0.00,VWS V13.01,2013-03-31 02:59:00,
2013-03-30 20:00:00,64.0,49.8,29.90,NNE,18,0.0,0.0,60,0.00,,SKC,0.00,VWS V13.01,2013-03-31 03:00:00,
2013-03-30 20:01:00,63.9,49.8,29.90,NNE,18,0.0,0.0,60,0.00,,SKC,0.00,VWS V13.01,2013-03-31 03:01:00,
2013-03-30 20:02:00,63.9,49.8,29.90,NNE,18,0.0,0.0,60,0.00,,SKC,0.00,VWS V13.01,2013-03-31 03:02:00,
2013-03-30 20:03:00,63.8,49.7,29.90,NNE,18,0.0,0.0,60,0.00,,SKC,0.00,VWS V13.01,2013-03-31 03:03:00,
2013-03-30 20:04:00,63.6,49.5,29.90,NNE,18,0.0,0.0,60,0.00,,SKC,0.00,VWS V13.01,2013-03-31 03:04:00,
2013-03-30 20:05:00,63.6,49.9,29.90,NNE,18,0.0,0.0,61,0.00,,SKC,0.00,VWS V13.01,2013-03-31 03:05:00,
2013-03-30 20:06:00,63.5,50.3,29.90,NNE,18,0.0,0.0,62,0.00,,SKC,0.00,VWS V13.01,2013-03-31 03:06:00,
2013-03-30 20:07:00,63.4,50.2,29.90,NNE,18,0.0,0.0,62,0.00,,SKC,0.00,VWS V13.01,2013-03-31 03:07:00,
2013-03-30 20:08:00,63.4,50.2,29.90,NNE,18,0.0,0.0,62,0.00,,SKC,0.00,VWS V13.01,2013-03-31 03:08:00,
2013-03-30 20:10:00,63.2,50.0,29.90,NNE,18,0.0,0.0,62,0.00,,SKC,0.00,VWS V13.01,2013-03-31 03:10:00,
2013-03-30 20:11:00,63.1,50.3,29.90,NNE,18,0.0,0.0,63,0.00,,SKC,0.00,VWS V13.01,2013-03-31 03:11:00,
2013-03-30 20:12:00,63.0,50.2,29.90,NNE,18,0.0,0.0,63,0.00,,SKC,0.00,VWS V13.01,2013-03-31 03:12:00,
2013-03-30 20:13:00,62.9,49.7,29.90,NNE,18,0.0,0.0,62,0.00,,SKC,0.00,VWS V13.01,2013-03-31 03:13:00,
2013-03-30 20:14:00,62.8,49.2,29.90,NNE,18,0.0,0.0,61,0.00,,SKC,0.00,VWS V13.01,2013-03-31 03:14:00,
2013-03-30 20:15:00,62.8,48.7,29.90,NNE,18,0.0,0.0,60,0.00,,SKC,0.00,VWS V13.01,2013-03-31 03:15:00,
2013-03-30 20:16:00,62.8,48.3,29.90,NNE,18,0.0,0.0,59,0.00,,SKC,0.00,VWS V13.01,2013-03-31 03:16:00,
2013-03-30 20:17:00,62.8,48.7,29.90,NNE,18,0.0,0.0,60,0.00,,SKC,0.00,VWS V13.01,2013-03-31 03:17:00,
2013-03-30 20:18:00,62.8,48.7,29.90,NNE,18,0.0,0.0,60,0.00,,SKC,0.00,VWS V13.01,2013-03-31 03:18:00,
2013-03-30 20:19:00,62.8,48.7,29.90,NNE,18,0.0,0.0,60,0.00,,SKC,0.00,VWS V13.01,2013-03-31 03:19:00,
2013-03-30 20:20:00,62.8,49.2,29.90,NNE,18,0.0,0.0,61,0.00,,SKC,0.00,VWS V13.01,2013-03-31 03:20:00,
2013-03-30 20:21:00,62.8,49.2,29.90,NNE,18,0.0,0.0,61,0.00,,SKC,0.00,VWS V13.01,2013-03-31 03:21:00,
2013-03-30 20:22:00,62.7,49.1,29.90,NNE,18,0.0,0.0,61,0.00,,SKC,0.00,VWS V13.01,2013-03-31 03:22:00,
2013-03-30 20:23:00,62.7,49.1,29.90,NNE,18,0.0,0.0,61,0.00,,SKC,0.00,VWS V13.01,2013-03-31 03:23:00,
2013-03-30 20:24:00,62.7,49.1,29.90,NNE,18,0.0,0.0,61,0.00,,SKC,0.00,VWS V13.01,2013-03-31 03:24:00,
2013-03-30 20:25:00,62.7,49.1,29.90,NNE,18,0.0,0.0,61,0.00,,SKC,0.00,VWS V13.01,2013-03-31 03:25:00,
2013-03-30 20:26:00,62.6,49.4,29.91,NNE,18,0.0,0.0,62,0.00,,SKC,0.00,VWS V13.01,2013-03-31 03:26:00,
2013-03-30 20:27:00,62.6,49.4,29.90,NNE,18,0.0,0.0,62,0.00,,SKC,0.00,VWS V13.01,2013-03-31 03:27:00,
2013-03-30 20:28:00,62.5,49.3,29.91,NNE,18,0.0,0.0,62,0.00,,SKC,0.00,VWS V13.01,2013-03-31 03:28:00,
2013-03-30 20:29:00,62.5,49.3,29.91,NNE,18,0.0,0.0,62,0.00,,SKC,0.00,VWS V13.01,2013-03-31 03:29:00,
2013-03-30 20:30:00,62.5,49.8,29.91,NNE,18,0.0,0.0,63,0.00,,SKC,0.00,VWS V13.01,2013-03-31 03:30:00,
2013-03-30 20:31:00,62.5,51.0,29.91,NNE,18,0.0,0.0,66,0.00,,SKC,0.00,VWS V13.01,2013-03-31 03:31:00,
2013-03-30 20:32:00,62.5,51.0,29.91,NNE,18,0.0,0.0,66,0.00,,SKC,0.00,VWS V13.01,2013-03-31 03:32:00,
2013-03-30 20:33:00,62.4,50.9,29.91,NNE,18,0.0,0.0,66,0.00,,SKC,0.00,VWS V13.01,2013-03-31 03:33:00,
2013-03-30 20:34:00,62.3,50.4,29.91,NNE,18,0.0,0.0,65,0.00,,SKC,0.00,VWS V13.01,2013-03-31 03:34:00,
2013-03-30 20:35:00,62.3,50.4,29.91,NNE,18,0.0,0.0,65,0.00,,SKC,0.00,VWS V13.01,2013-03-31 03:35:00,
2013-03-30 20:36:00,62.2,50.7,29.91,NNE,18,0.0,0.0,66,0.00,,SKC,0.00,VWS V13.01,2013-03-31 03:36:00,
2013-03-30 20:37:00,62.1,51.0,29.91,NNE,18,0.0,0.0,67,0.00,,SKC,0.00,VWS V13.01,2013-03-31 03:37:00,
2013-03-30 20:38:00,62.1,50.6,29.91,NNE,18,0.0,0.0,66,0.00,,SKC,0.00,VWS V13.01,2013-03-31 03:38:00,
2013-03-30 20:39:00,62.0,51.3,29.91,NNE,18,0.0,0.0,68,0.00,,SKC,0.00,VWS V13.01,2013-03-31 03:39:00,
2013-03-30 20:40:00,62.0,51.3,29.91,NNE,18,0.0,0.0,68,0.00,,SKC,0.00,VWS V13.01,2013-03-31 03:40:00,
2013-03-30 20:41:00,61.9,50.8,29.91,NNE,18,0.0,0.0,67,0.00,,SKC,0.00,VWS V13.01,2013-03-31 03:41:00,
2013-03-30 20:42:00,61.8,51.1,29.91,NNE,18,0.0,0.0,68,0.00,,SKC,0.00,VWS V13.01,2013-03-31 03:42:00,
2013-03-30 20:43:00,61.7,51.4,29.91,NNE,18,0.0,0.0,69,0.00,,SKC,0.00,VWS V13.01,2013-03-31 03:43:00,
2013-03-30 20:44:00,61.7,51.4,29.91,NNE,18,0.0,0.0,69,0.00,,SKC,0.00,VWS V13.01,2013-03-31 03:44:00,
2013-03-30 20:45:00,61.6,51.7,29.91,NNE,18,0.0,0.0,70,0.00,,SKC,0.00,VWS V13.01,2013-03-31 03:45:00,
2013-03-30 20:46:00,61.6,51.7,29.91,NNE,18,0.0,0.0,70,0.00,,SKC,0.00,VWS V13.01,2013-03-31 03:46:00,
2013-03-30 20:47:00,61.5,51.6,29.91,NNE,18,0.0,0.0,70,0.00,,SKC,0.00,VWS V13.01,2013-03-31 03:47:00,
2013-03-30 20:48:00,61.4,51.9,29.91,NNE,18,0.0,0.0,71,0.00,,SKC,0.00,VWS V13.01,2013-03-31 03:48:00,
2013-03-30 20:49:00,61.3,51.8,29.91,NNE,18,0.0,0.0,71,0.00,,SKC,0.00,VWS V13.01,2013-03-31 03:49:00,
2013-03-30 20:50:00,61.3,51.8,29.91,NNE,18,0.0,0.0,71,0.00,,SKC,0.00,VWS V13.01,2013-03-31 03:50:00,
2013-03-30 20:51:00,61.1,51.6,29.91,NNE,18,0.0,0.0,71,0.00,,SKC,0.00,VWS V13.01,2013-03-31 03:51:00,
2013-03-30 20:52:00,61.1,51.6,29.91,NNE,18,0.0,0.0,71,0.00,,SKC,0.00,VWS V13.01,2013-03-31 03:52:00,
2013-03-30 20:53:00,61.0,51.9,29.91,NNE,18,0.0,0.0,72,0.00,,SKC,0.00,VWS V13.01,2013-03-31 03:53:00,
2013-03-30 20:54:00,60.9,51.8,29.91,NNE,18,0.0,0.0,72,0.00,,SKC,0.00,VWS V13.01,2013-03-31 03:54:00,
2013-03-30 20:55:00,60.8,51.7,29.91,NNE,18,0.0,0.0,72,0.00,,SKC,0.00,VWS V13.01,2013-03-31 03:55:00,
2013-03-30 20:56:00,60.7,51.6,29.92,NNE,18,0.0,0.0,72,0.00,,SKC,0.00,VWS V13.01,2013-03-31 03:56:00,
2013-03-30 20:57:00,60.7,51.6,29.92,NNE,18,2.0,2.0,72,0.00,,SKC,0.00,VWS V13.01,2013-03-31 03:57:00,
2013-03-30 20:58:00,60.6,51.2,29.92,NNE,17,2.0,3.0,71,0.00,,SKC,0.00,VWS V13.01,2013-03-31 03:58:00,
2013-03-30 20:59:00,60.6,50.8,29.92,NNE,15,3.0,3.0,70,0.00,,SKC,0.00,VWS V13.01,2013-03-31 03:59:00,
2013-03-30 21:00:00,60.6,50.8,29.92,NNE,15,2.0,3.0,70,0.00,,SKC,0.00,VWS V13.01,2013-03-31 04:00:00,
2013-03-30 21:01:00,60.6,50.8,29.92,NNE,15,2.0,3.0,70,0.00,,SKC,0.00,VWS V13.01,2013-03-31 04:01:00,
2013-03-30 21:02:00,60.7,50.5,29.92,NNE,15,0.0,3.0,69,0.00,,SKC,0.00,VWS V13.01,2013-03-31 04:02:00,
2013-03-30 21:03:00,60.7,50.5,29.91,NNE,15,0.0,3.0,69,0.00,,SKC,0.00,VWS V13.01,2013-03-31 04:03:00,
2013-03-30 21:04:00,60.7,50.9,29.91,NNE,15,0.0,3.0,70,0.00,,SKC,0.00,VWS V13.01,2013-03-31 04:04:00,
2013-03-30 21:05:00,60.7,50.9,29.91,NNE,15,0.0,3.0,70,0.00,,SKC,0.00,VWS V13.01,2013-03-31 04:05:00,
2013-03-30 21:06:00,60.7,51.2,29.91,NNE,15,0.0,0.0,71,0.00,,SKC,0.00,VWS V13.01,2013-03-31 04:06:00,
2013-03-30 21:07:00,60.6,50.8,29.91,NNE,15,0.0,0.0,70,0.00,,SKC,0.00,VWS V13.01,2013-03-31 04:07:00,
2013-03-30 21:08:00,60.6,51.2,29.91,NNE,15,0.0,0.0,71,0.00,,SKC,0.00,VWS V13.01,2013-03-31 04:08:00,
2013-03-30 21:09:00,60.5,51.1,29.91,NNE,15,0.0,0.0,71,0.00,,SKC,0.00,VWS V13.01,2013-03-31 04:09:00,
2013-03-30 21:10:00,60.5,51.1,29.91,NNE,15,0.0,0.0,71,0.00,,SKC,0.00,VWS V13.01,2013-03-31 04:10:00,
2013-03-30 21:11:00,60.4,51.0,29.92,NNE,15,0.0,0.0,71,0.00,,SKC,0.00,VWS V13.01,2013-03-31 04:11:00,
2013-03-30 21:12:00,60.3,50.9,29.92,NNE,15,0.0,0.0,71,0.00,,SKC,0.00,VWS V13.01,2013-03-31 04:12:00,
2013-03-30 21:13:00,60.2,50.8,29.92,NNE,15,0.0,0.0,71,0.00,,SKC,0.00,VWS V13.01,2013-03-31 04:13:00,
2013-03-30 21:14:00,60.2,51.2,29.91,NNE,15,0.0,0.0,72,0.00,,SKC,0.00,VWS V13.01,2013-03-31 04:14:00,
2013-03-30 21:15:00,60.1,51.1,29.91,NNE,15,0.0,0.0,72,0.00,,SKC,0.00,VWS V13.01,2013-03-31 04:15:00,
2013-03-30 21:16:00,60.0,51.0,29.92,NNE,15,0.0,0.0,72,0.00,,SKC,0.00,VWS V13.01,2013-03-31 04:16:00,
2013-03-30 21:17:00,60.0,51.0,29.92,NNE,15,0.0,0.0,72,0.00,,SKC,0.00,VWS V13.01,2013-03-31 04:17:00,
2013-03-30 21:18:00,59.9,50.9,29.92,NNE,15,0.0,0.0,72,0.00,,SKC,0.00,VWS V13.01,2013-03-31 04:18:00,
2013-03-30 21:19:00,59.8,50.8,29.92,NNE,15,0.0,0.0,72,0.00,,SKC,0.00,VWS V13.01,2013-03-31 04:19:00,
2013-03-30 21:20:00,59.8,50.8,29.92,NNE,15,0.0,0.0,72,0.00,,SKC,0.00,VWS V13.01,2013-03-31 04:20:00,
2013-03-30 21:21:00,59.8,51.1,29.92,NNE,15,0.0,0.0,73,0.00,,SKC,0.00,VWS V13.01,2013-03-31 04:21:00,
2013-03-30 21:22:00,59.7,51.0,29.91,NNE,15,0.0,0.0,73,0.00,,SKC,0.00,VWS V13.01,2013-03-31 04:22:00,
2013-03-30 21:23:00,59.7,51.0,29.91,NNE,15,0.0,0.0,73,0.00,,SKC,0.00,VWS V13.01,2013-03-31 04:23:00,
2013-03-30 21:24:00,59.6,51.0,29.91,NNE,15,0.0,0.0,73,0.00,,SKC,0.00,VWS V13.01,2013-03-31 04:24:00,
2013-03-30 21:25:00,59.6,51.0,29.91,NNE,15,0.0,0.0,73,0.00,,SKC,0.00,VWS V13.01,2013-03-31 04:25:00,
2013-03-30 21:26:00,59.5,50.8,29.91,NNE,15,0.0,0.0,73,0.00,,SKC,0.00,VWS V13.01,2013-03-31 04:26:00,
2013-03-30 21:27:00,59.4,50.8,29.92,NNE,15,0.0,0.0,73,0.00,,SKC,0.00,VWS V13.01,2013-03-31 04:27:00,
2013-03-30 21:28:00,59.4,50.8,29.92,NNE,15,0.0,0.0,73,0.00,,SKC,0.00,VWS V13.01,2013-03-31 04:28:00,
2013-03-30 21:29:00,59.3,51.0,29.92,NNE,15,0.0,0.0,74,0.00,,SKC,0.00,VWS V13.01,2013-03-31 04:29:00,
2013-03-30 21:30:00,59.3,51.0,29.92,NNE,15,0.0,0.0,74,0.00,,SKC,0.00,VWS V13.01,2013-03-31 04:30:00,
2013-03-30 21:31:00,59.2,50.9,29.92,NNE,15,0.0,0.0,74,0.00,,SKC,0.00,VWS V13.01,2013-03-31 04:31:00,
2013-03-30 21:32:00,59.1,50.8,29.92,NNE,15,0.0,0.0,74,0.00,,SKC,0.00,VWS V13.01,2013-03-31 04:32:00,
2013-03-30 21:33:00,59.0,50.7,29.92,NNE,15,0.0,0.0,74,0.00,,SKC,0.00,VWS V13.01,2013-03-31 04:33:00,
2013-03-30 21:34:00,59.0,50.7,29.92,NNE,15,0.0,0.0,74,0.00,,SKC,0.00,VWS V13.01,2013-03-31 04:34:00,
2013-03-30 21:35:00,59.0,50.7,29.92,NNE,15,0.0,0.0,74,0.00,,SKC,0.00,VWS V13.01,2013-03-31 04:35:00,
2013-03-30 21:36:00,59.0,50.7,29.92,NNE,15,0.0,0.0,74,0.00,,SKC,0.00,VWS V13.01,2013-03-31 04:36:00,
2013-03-30 21:37:00,59.0,50.7,29.92,NNE,15,0.0,0.0,74,0.00,,SKC,0.00,VWS V13.01,2013-03-31 04:37:00,
2013-03-30 21:38:00,58.8,50.5,29.92,NNE,15,0.0,0.0,74,0.00,,SKC,0.00,VWS V13.01,2013-03-31 04:38:00,
2013-03-30 21:39:00,58.7,50.8,29.92,NNE,15,0.0,0.0,75,0.00,,SKC,0.00,VWS V13.01,2013-03-31 04:39:00,
2013-03-30 21:40:00,58.6,50.7,29.92,NNE,15,0.0,0.0,75,0.00,,SKC,0.00,VWS V13.01,2013-03-31 04:40:00,
2013-03-30 21:41:00,58.6,50.7,29.92,NNE,15,0.0,0.0,75,0.00,,SKC,0.00,VWS V13.01,2013-03-31 04:41:00,
2013-03-30 21:42:00,58.5,50.6,29.92,NNE,15,0.0,0.0,75,0.00,,SKC,0.00,VWS V13.01,2013-03-31 04:42:00,
2013-03-30 21:43:00,58.4,50.5,29.92,NNE,15,0.0,0.0,75,0.00,,SKC,0.00,VWS V13.01,2013-03-31 04:43:00,
2013-03-30 21:44:00,58.2,50.3,29.93,NNE,15,0.0,0.0,75,0.00,,SKC,0.00,VWS V13.01,2013-03-31 04:44:00,
2013-03-30 21:45:00,58.2,50.3,29.93,NNE,15,0.0,0.0,75,0.00,,SKC,0.00,VWS V13.01,2013-03-31 04:45:00,
2013-03-30 21:46:00,58.1,50.2,29.93,NNE,15,0.0,0.0,75,0.00,,SKC,0.00,VWS V13.01,2013-03-31 04:46:00,
2013-03-30 21:47:00,58.0,50.1,29.93,NNE,15,0.0,0.0,75,0.00,,SKC,0.00,VWS V13.01,2013-03-31 04:47:00,
2013-03-30 21:48:00,58.0,50.1,29.93,NNE,15,0.0,0.0,75,0.00,,SKC,0.00,VWS V13.01,2013-03-31 04:48:00,
2013-03-30 21:49:00,57.9,50.0,29.93,NNE,15,0.0,0.0,75,0.00,,SKC,0.00,VWS V13.01,2013-03-31 04:49:00,
2013-03-30 21:50:00,57.8,49.9,29.93,NNE,15,0.0,0.0,75,0.00,,SKC,0.00,VWS V13.01,2013-03-31 04:50:00,
2013-03-30 21:51:00,57.8,50.3,29.93,NNE,15,0.0,0.0,76,0.00,,SKC,0.00,VWS V13.01,2013-03-31 04:51:00,
2013-03-30 21:52:00,57.7,50.2,29.93,NNE,15,0.0,0.0,76,0.00,,SKC,0.00,VWS V13.01,2013-03-31 04:52:00,
2013-03-30 21:53:00,57.7,50.2,29.93,NNE,15,0.0,0.0,76,0.00,,SKC,0.00,VWS V13.01,2013-03-31 04:53:00,
2013-03-30 21:54:00,57.6,50.1,29.93,North,10,0.0,1.0,76,0.00,,SKC,0.00,VWS V13.01,2013-03-31 04:54:00,
2013-03-30 21:55:00,57.6,50.1,29.92,North,10,0.0,1.0,76,0.00,,SKC,0.00,VWS V13.01,2013-03-31 04:55:00,
2013-03-30 21:56:00,57.5,50.0,29.93,North,10,0.0,0.0,76,0.00,,SKC,0.00,VWS V13.01,2013-03-31 04:56:00,
2013-03-30 21:57:00,57.5,50.0,29.92,North,10,0.0,0.0,76,0.00,,SKC,0.00,VWS V13.01,2013-03-31 04:57:00,
2013-03-30 21:58:00,57.5,50.0,29.92,North,10,0.0,0.0,76,0.00,,SKC,0.00,VWS V13.01,2013-03-31 04:58:00,
2013-03-30 21:59:00,57.4,50.3,29.92,North,10,0.0,0.0,77,0.00,,SKC,0.00,VWS V13.01,2013-03-31 04:59:00,
2013-03-30 22:00:00,57.4,50.3,29.92,North,10,0.0,0.0,77,0.00,,SKC,0.00,VWS V13.01,2013-03-31 05:00:00,
2013-03-30 22:01:00,57.3,50.2,29.92,North,10,0.0,0.0,77,0.00,,SKC,0.00,VWS V13.01,2013-03-31 05:01:00,
2013-03-30 22:02:00,57.2,50.1,29.92,East,83,0.0,1.0,77,0.00,,SKC,0.00,VWS V13.01,2013-03-31 05:02:00,
2013-03-30 22:03:00,57.2,50.1,29.92,East,83,0.0,1.0,77,0.00,,SKC,0.00,VWS V13.01,2013-03-31 05:03:00,
2013-03-30 22:04:00,57.0,49.9,29.92,East,83,0.0,1.0,77,0.00,,SKC,0.00,VWS V13.01,2013-03-31 05:04:00,
2013-03-30 22:05:00,57.0,49.9,29.93,East,83,0.0,1.0,77,0.00,,SKC,0.00,VWS V13.01,2013-03-31 05:05:00,
2013-03-30 22:06:00,56.9,49.8,29.93,East,83,0.0,0.0,77,0.00,,SKC,0.00,VWS V13.01,2013-03-31 05:06:00,
2013-03-30 22:07:00,56.8,49.7,29.93,East,83,0.0,0.0,77,0.00,,SKC,0.00,VWS V13.01,2013-03-31 05:07:00,
2013-03-30 22:08:00,56.8,49.7,29.93,East,83,0.0,0.0,77,0.00,,SKC,0.00,VWS V13.01,2013-03-31 05:08:00,
2013-03-30 22:09:00,56.7,49.6,29.93,East,83,0.0,0.0,77,0.00,,SKC,0.00,VWS V13.01,2013-03-31 05:09:00,
2013-03-30 22:10:00,56.6,49.5,29.93,East,83,0.0,0.0,77,0.00,,SKC,0.00,VWS V13.01,2013-03-31 05:10:00,
2013-03-30 22:11:00,56.6,49.8,29.92,East,83,0.0,0.0,78,0.00,,SKC,0.00,VWS V13.01,2013-03-31 05:11:00,
2013-03-30 22:12:00,56.5,49.7,29.92,East,83,0.0,0.0,78,0.00,,SKC,0.00,VWS V13.01,2013-03-31 05:12:00,
2013-03-30 22:13:00,56.4,49.3,29.92,East,83,0.0,0.0,77,0.00,,SKC,0.00,VWS V13.01,2013-03-31 05:13:00,
2013-03-30 22:14:00,56.3,49.2,29.93,East,83,0.0,0.0,77,0.00,,SKC,0.00,VWS V13.01,2013-03-31 05:14:00,
2013-03-30 22:15:00,56.2,49.1,29.93,East,83,0.0,0.0,77,0.00,,SKC,0.00,VWS V13.01,2013-03-31 05:15:00,
2013-03-30 22:16:00,56.2,49.4,29.93,East,83,0.0,0.0,78,0.00,,SKC,0.00,VWS V13.01,2013-03-31 05:16:00,
2013-03-30 22:17:00,56.1,49.3,29.93,East,83,0.0,0.0,78,0.00,,SKC,0.00,VWS V13.01,2013-03-31 05:17:00,
2013-03-30 22:18:00,56.0,49.2,29.93,East,83,0.0,0.0,78,0.00,,SKC,0.00,VWS V13.01,2013-03-31 05:18:00,
2013-03-30 22:19:00,56.0,49.2,29.93,East,83,0.0,0.0,78,0.00,,SKC,0.00,VWS V13.01,2013-03-31 05:19:00,
2013-03-30 22:20:00,55.9,49.2,29.93,East,83,0.0,0.0,78,0.00,,SKC,0.00,VWS V13.01,2013-03-31 05:20:00,
2013-03-30 22:21:00,55.9,49.2,29.93,East,83,0.0,0.0,78,0.00,,SKC,0.00,VWS V13.01,2013-03-31 05:21:00,
2013-03-30 22:22:00,55.8,49.0,29.92,East,83,0.0,0.0,78,0.00,,SKC,0.00,VWS V13.01,2013-03-31 05:22:00,
2013-03-30 22:23:00,55.8,49.0,29.93,East,83,0.0,0.0,78,0.00,,SKC,0.00,VWS V13.01,2013-03-31 05:23:00,
2013-03-30 22:24:00,55.7,49.3,29.93,East,83,0.0,0.0,79,0.00,,SKC,0.00,VWS V13.01,2013-03-31 05:24:00,
2013-03-30 22:25:00,55.7,49.3,29.93,East,83,0.0,0.0,79,0.00,,SKC,0.00,VWS V13.01,2013-03-31 05:25:00,
2013-03-30 22:26:00,55.6,49.2,29.93,East,83,0.0,0.0,79,0.00,,SKC,0.00,VWS V13.01,2013-03-31 05:26:00,
2013-03-30 22:27:00,55.6,49.2,29.93,East,83,0.0,0.0,79,0.00,,SKC,0.00,VWS V13.01,2013-03-31 05:27:00,
2013-03-30 22:28:00,55.5,49.1,29.93,East,83,0.0,0.0,79,0.00,,SKC,0.00,VWS V13.01,2013-03-31 05:28:00,
2013-03-30 22:29:00,55.4,49.0,29.93,East,83,0.0,0.0,79,0.00,,SKC,0.00,VWS V13.01,2013-03-31 05:29:00,
2013-03-30 22:30:00,55.4,49.0,29.93,East,83,0.0,0.0,79,0.00,,SKC,0.00,VWS V13.01,2013-03-31 05:30:00,
2013-03-30 22:31:00,55.4,49.0,29.93,East,83,0.0,0.0,79,0.00,,SKC,0.00,VWS V13.01,2013-03-31 05:31:00,
2013-03-30 22:32:00,55.3,48.9,29.93,East,83,0.0,0.0,79,0.00,,SKC,0.00,VWS V13.01,2013-03-31 05:32:00,
2013-03-30 22:33:00,55.3,48.9,29.93,East,83,0.0,0.0,79,0.00,,SKC,0.00,VWS V13.01,2013-03-31 05:33:00,
2013-03-30 22:34:00,55.3,48.9,29.93,East,83,0.0,0.0,79,0.00,,SKC,0.00,VWS V13.01,2013-03-31 05:34:00,
2013-03-30 22:35:00,55.3,48.9,29.93,East,83,0.0,0.0,79,0.00,,SKC,0.00,VWS V13.01,2013-03-31 05:35:00,
2013-03-30 22:36:00,55.3,48.9,29.93,East,83,0.0,0.0,79,0.00,,SKC,0.00,VWS V13.01,2013-03-31 05:36:00,
2013-03-30 22:37:00,55.3,48.9,29.93,East,83,0.0,0.0,79,0.00,,SKC,0.00,VWS V13.01,2013-03-31 05:37:00,
2013-03-30 22:38:00,55.4,49.3,29.93,East,83,0.0,0.0,80,0.00,,SKC,0.00,VWS V13.01,2013-03-31 05:38:00,
2013-03-30 22:39:00,55.5,49.1,29.93,East,83,2.0,3.0,79,0.00,,SKC,0.00,VWS V13.01,2013-03-31 05:39:00,
2013-03-30 22:40:00,55.6,49.2,29.93,East,83,0.0,3.0,79,0.00,,SKC,0.00,VWS V13.01,2013-03-31 05:40:00,
2013-03-30 22:41:00,55.7,49.3,29.93,East,83,0.0,0.0,79,0.00,,SKC,0.00,VWS V13.01,2013-03-31 05:41:00,
2013-03-30 22:42:00,55.7,49.3,29.93,East,83,0.0,0.0,79,0.00,,SKC,0.00,VWS V13.01,2013-03-31 05:42:00,
2013-03-30 22:43:00,55.8,49.4,29.93,East,83,0.0,0.0,79,0.00,,SKC,0.00,VWS V13.01,2013-03-31 05:43:00,
2013-03-30 22:44:00,55.9,49.5,29.93,East,83,0.0,0.0,79,0.00,,SKC,0.00,VWS V13.01,2013-03-31 05:44:00,
2013-03-30 22:45:00,56.0,49.6,29.93,East,83,0.0,0.0,79,0.00,,SKC,0.00,VWS V13.01,2013-03-31 05:45:00,
2013-03-30 22:46:00,56.0,49.6,29.93,East,83,0.0,0.0,79,0.00,,SKC,0.00,VWS V13.01,2013-03-31 05:46:00,
2013-03-30 22:47:00,56.1,49.7,29.93,East,83,0.0,0.0,79,0.00,,SKC,0.00,VWS V13.01,2013-03-31 05:47:00,
2013-03-30 22:48:00,56.1,49.7,29.93,East,83,0.0,0.0,79,0.00,,SKC,0.00,VWS V13.01,2013-03-31 05:48:00,
2013-03-30 22:49:00,56.1,49.7,29.93,East,83,0.0,0.0,79,0.00,,SKC,0.00,VWS V13.01,2013-03-31 05:49:00,
2013-03-30 22:50:00,56.1,49.7,29.93,East,83,0.0,0.0,79,0.00,,SKC,0.00,VWS V13.01,2013-03-31 05:50:00,
2013-03-30 22:51:00,56.1,49.7,29.93,East,83,0.0,0.0,79,0.00,,SKC,0.00,VWS V13.01,2013-03-31 05:51:00,
2013-03-30 22:52:00,56.1,49.7,29.93,East,83,0.0,0.0,79,0.00,,SKC,0.00,VWS V13.01,2013-03-31 05:52:00,
2013-03-30 22:53:00,56.1,49.7,29.93,East,83,0.0,0.0,79,0.00,,SKC,0.00,VWS V13.01,2013-03-31 05:53:00,
2013-03-30 22:54:00,56.1,49.7,29.93,East,83,0.0,0.0,79,0.00,,SKC,0.00,VWS V13.01,2013-03-31 05:54:00,
2013-03-30 22:55:00,56.0,49.6,29.93,East,83,0.0,0.0,79,0.00,,SKC,0.00,VWS V13.01,2013-03-31 05:55:00,
2013-03-30 22:56:00,56.1,49.7,29.92,East,83,0.0,0.0,79,0.00,,SKC,0.00,VWS V13.01,2013-03-31 05:56:00,
2013-03-30 22:57:00,56.1,49.7,29.92,East,83,0.0,0.0,79,0.00,,SKC,0.00,VWS V13.01,2013-03-31 05:57:00,
2013-03-30 22:58:00,56.1,49.7,29.93,East,83,0.0,0.0,79,0.00,,SKC,0.00,VWS V13.01,2013-03-31 05:58:00,
2013-03-30 22:59:00,56.2,49.8,29.93,East,83,0.0,0.0,79,0.00,,SKC,0.00,VWS V13.01,2013-03-31 05:59:00,
2013-03-30 23:00:00,56.3,49.9,29.93,East,83,0.0,0.0,79,0.00,,SKC,0.00,VWS V13.01,2013-03-31 06:00:00,
2013-03-30 23:01:00,56.3,49.9,29.92,East,83,0.0,0.0,79,0.00,,SKC,0.00,VWS V13.01,2013-03-31 06:01:00,
2013-03-30 23:02:00,56.4,50.0,29.92,East,83,0.0,0.0,79,0.00,,SKC,0.00,VWS V13.01,2013-03-31 06:02:00,
2013-03-30 23:03:00,56.4,50.0,29.92,East,83,0.0,0.0,79,0.00,,SKC,0.00,VWS V13.01,2013-03-31 06:03:00,
2013-03-30 23:04:00,56.5,50.1,29.92,East,83,0.0,0.0,79,0.00,,SKC,0.00,VWS V13.01,2013-03-31 06:04:00,
2013-03-30 23:05:00,56.5,50.1,29.92,East,83,0.0,0.0,79,0.00,,SKC,0.00,VWS V13.01,2013-03-31 06:05:00,
2013-03-30 23:06:00,56.6,50.2,29.92,East,83,0.0,0.0,79,0.00,,SKC,0.00,VWS V13.01,2013-03-31 06:06:00,
2013-03-30 23:07:00,56.7,50.3,29.92,East,83,0.0,0.0,79,0.00,,SKC,0.00,VWS V13.01,2013-03-31 06:07:00,
2013-03-30 23:08:00,56.7,50.3,29.92,East,83,0.0,0.0,79,0.00,,SKC,0.00,VWS V13.01,2013-03-31 06:08:00,
2013-03-30 23:09:00,56.7,50.6,29.92,East,83,0.0,0.0,80,0.00,,SKC,0.00,VWS V13.01,2013-03-31 06:09:00,
2013-03-30 23:10:00,56.8,50.7,29.92,East,83,0.0,0.0,80,0.00,,SKC,0.00,VWS V13.01,2013-03-31 06:10:00,
2013-03-30 23:11:00,56.8,50.7,29.92,East,83,0.0,0.0,80,0.00,,SKC,0.00,VWS V13.01,2013-03-31 06:11:00,
2013-03-30 23:12:00,56.8,50.7,29.92,East,83,0.0,0.0,80,0.00,,SKC,0.00,VWS V13.01,2013-03-31 06:12:00,
2013-03-30 23:13:00,56.8,50.7,29.92,East,83,0.0,0.0,80,0.00,,SKC,0.00,VWS V13.01,2013-03-31 06:13:00,
2013-03-30 23:14:00,56.8,50.7,29.93,East,83,0.0,0.0,80,0.00,,SKC,0.00,VWS V13.01,2013-03-31 06:14:00,
2013-03-30 23:15:00,56.8,50.7,29.93,East,83,0.0,0.0,80,0.00,,SKC,0.00,VWS V13.01,2013-03-31 06:15:00,
2013-03-30 23:16:00,56.9,50.8,29.93,East,83,0.0,0.0,80,0.00,,SKC,0.00,VWS V13.01,2013-03-31 06:16:00,
2013-03-30 23:17:00,56.9,50.8,29.93,ESE,103,4.0,4.0,80,0.00,,SKC,0.00,VWS V13.01,2013-03-31 06:17:00,
2013-03-30 23:18:00,56.9,50.8,29.93,ESE,104,3.0,4.0,80,0.00,,SKC,0.00,VWS V13.01,2013-03-31 06:18:00,
2013-03-30 23:19:00,57.0,50.9,29.93,ESE,104,3.0,4.0,80,0.00,,SKC,0.00,VWS V13.01,2013-03-31 06:19:00,
2013-03-30 23:20:00,57.1,51.0,29.93,ESE,104,3.0,3.0,80,0.00,,SKC,0.00,VWS V13.01,2013-03-31 06:20:00,
2013-03-30 23:21:00,57.2,50.8,29.93,ESE,104,3.0,4.0,79,0.00,,SKC,0.00,VWS V13.01,2013-03-31 06:21:00,
2013-03-30 23:22:00,57.3,50.8,29.93,ESE,104,4.0,4.0,79,0.00,,SKC,0.00,VWS V13.01,2013-03-31 06:22:00,
2013-03-30 23:23:00,57.5,51.0,29.93,ESE,104,3.0,4.0,79,0.00,,SKC,0.00,VWS V13.01,2013-03-31 06:23:00,
2013-03-30 23:24:00,57.6,51.1,29.93,ESE,104,3.0,4.0,79,0.00,,SKC,0.00,VWS V13.01,2013-03-31 06:24:00,
2013-03-30 23:25:00,57.7,51.2,29.93,ESE,104,2.0,4.0,79,0.00,,SKC,0.00,VWS V13.01,2013-03-31 06:25:00,
2013-03-30 23:26:00,57.8,51.3,29.93,ESE,104,2.0,3.0,79,0.00,,SKC,0.00,VWS V13.01,2013-03-31 06:26:00,
2013-03-30 23:27:00,57.9,51.1,29.93,ESE,104,0.0,3.0,78,0.00,,SKC,0.00,VWS V13.01,2013-03-31 06:27:00,
2013-03-30 23:28:00,58.0,51.2,29.93,ESE,104,0.0,3.0,78,0.00,,SKC,0.00,VWS V13.01,2013-03-31 06:28:00,
2013-03-30 23:29:00,58.1,51.3,29.93,ESE,104,0.0,3.0,78,0.00,,SKC,0.00,VWS V13.01,2013-03-31 06:29:00,
2013-03-30 23:30:00,58.1,51.3,29.93,ESE,104,1.0,3.0,78,0.00,,SKC,0.00,VWS V13.01,2013-03-31 06:30:00,
2013-03-30 23:31:00,58.2,51.4,29.93,ESE,104,2.0,4.0,78,0.00,,SKC,0.00,VWS V13.01,2013-03-31 06:31:00,
2013-03-30 23:32:00,58.2,51.4,29.93,ESE,104,2.0,4.0,78,0.00,,SKC,0.00,VWS V13.01,2013-03-31 06:32:00,
2013-03-30 23:33:00,58.3,51.5,29.93,SE,127,4.0,5.0,78,0.00,,SKC,0.00,VWS V13.01,2013-03-31 06:33:00,
2013-03-30 23:34:00,58.4,51.6,29.93,South,173,3.0,6.0,78,0.00,,SKC,0.00,VWS V13.01,2013-03-31 06:34:00,
2013-03-30 23:35:00,58.5,51.7,29.93,South,173,5.0,6.0,78,0.00,,SKC,0.00,VWS V13.01,2013-03-31 06:35:00,
2013-03-30 23:36:00,58.6,51.4,29.94,South,173,2.0,5.0,77,0.00,,SKC,0.00,VWS V13.01,2013-03-31 06:36:00,
2013-03-30 23:37:00,58.7,51.5,29.94,South,173,4.0,5.0,77,0.00,,SKC,0.00,VWS V13.01,2013-03-31 06:37:00,
2013-03-30 23:38:00,58.7,51.5,29.93,South,173,4.0,5.0,77,0.00,,SKC,0.00,VWS V13.01,2013-03-31 06:38:00,
2013-03-30 23:39:00,58.8,51.6,29.94,South,173,3.0,5.0,77,0.00,,SKC,0.00,VWS V13.01,2013-03-31 06:39:00,
2013-03-30 23:40:00,58.9,51.7,29.94,South,173,1.0,5.0,77,0.00,,SKC,0.00,VWS V13.01,2013-03-31 06:40:00,
2013-03-30 23:41:00,59.0,51.8,29.94,South,173,2.0,3.0,77,0.00,,SKC,0.00,VWS V13.01,2013-03-31 06:41:00,
2013-03-30 23:42:00,59.0,51.8,29.94,South,173,2.0,4.0,77,0.00,,SKC,0.00,VWS V13.01,2013-03-31 06:42:00,
2013-03-30 23:43:00,59.0,51.8,29.94,South,173,3.0,4.0,77,0.00,,SKC,0.00,VWS V13.01,2013-03-31 06:43:00,
2013-03-30 23:44:00,59.0,51.8,29.94,South,173,3.0,4.0,77,0.00,,SKC,0.00,VWS V13.01,2013-03-31 06:44:00,
2013-03-30 23:45:00,59.0,51.8,29.94,South,173,3.0,3.0,77,0.00,,SKC,0.00,VWS V13.01,2013-03-31 06:45:00,
2013-03-30 23:46:00,59.0,51.8,29.94,South,173,4.0,4.0,77,0.00,,SKC,0.00,VWS V13.01,2013-03-31 06:46:00,
2013-03-30 23:47:00,59.0,51.8,29.94,South,173,4.0,4.0,77,0.00,,SKC,0.00,VWS V13.01,2013-03-31 06:47:00,
2013-03-30 23:48:00,59.0,51.8,29.94,South,173,2.0,4.0,77,0.00,,SKC,0.00,VWS V13.01,2013-03-31 06:48:00,
2013-03-30 23:49:00,59.0,51.8,29.94,South,173,1.0,4.0,77,0.00,,SKC,0.00,VWS V13.01,2013-03-31 06:49:00,
2013-03-30 23:50:00,59.0,51.8,29.94,South,173,2.0,4.0,77,0.00,,SKC,0.00,VWS V13.01,2013-03-31 06:50:00,
2013-03-30 23:51:00,59.0,51.8,29.93,SSW,199,2.0,4.0,77,0.00,,SKC,0.00,VWS V13.01,2013-03-31 06:51:00,
2013-03-30 23:52:00,59.0,51.8,29.93,West,271,3.0,4.0,77,0.00,,SKC,0.00,VWS V13.01,2013-03-31 06:52:00,
2013-03-30 23:53:00,59.0,51.5,29.93,NW,310,4.0,5.0,76,0.00,,SKC,0.00,VWS V13.01,2013-03-31 06:53:00,
2013-03-30 23:54:00,59.0,51.5,29.93,WNW,290,2.0,6.0,76,0.00,,SKC,0.00,VWS V13.01,2013-03-31 06:54:00,
2013-03-30 23:55:00,59.0,51.5,29.93,WNW,290,3.0,6.0,76,0.00,,SKC,0.00,VWS V13.01,2013-03-31 06:55:00,
2013-03-30 23:56:00,59.0,51.5,29.93,West,273,4.0,5.0,76,0.00,,SKC,0.00,VWS V13.01,2013-03-31 06:56:00,
2013-03-30 23:57:00,59.0,51.5,29.93,West,273,0.0,5.0,76,0.00,,SKC,0.00,VWS V13.01,2013-03-31 06:57:00,
2013-03-30 23:58:00,59.0,51.5,29.93,West,272,0.0,5.0,76,0.00,,SKC,0.00,VWS V13.01,2013-03-31 06:58:00,
2013-03-30 23:59:00,59.0,51.5,29.93,West,265,2.0,5.0,76,0.00,,SKC,0.00,VWS V13.01,2013-03-31 06:59:00,